<?xml version='1.0' encoding='UTF-8'?>
<gpx version="1.1" creator="https://www.komoot.de" xmlns="http://www.topografix.com/GPX/1/1" xmlns:xsi="http://www.w3.org/2001/XMLSchema-instance" xsi:schemaLocation="http://www.topografix.com/GPX/1/1 http://www.topografix.com/GPX/1/1/gpx.xsd">
  <metadata>
    <name>74_840StaffeleggBuerersteig</name>
    <author>
      <link href="https://www.komoot.de">
        <text>komoot</text>
        <type>text/html</type>
      </link>
    </author>
  </metadata>
  <trk>
    <name>74_840StaffeleggBuerersteig</name>
    <trkseg>
      <trkpt lat="47.541310" lon="7.870874">
        <ele>340.881975</ele>
        <time>2021-11-21T06:59:39.169Z</time>
      </trkpt>
      <trkpt lat="47.541410" lon="7.870791">
        <ele>340.881975</ele>
        <time>2021-11-21T06:59:40.874Z</time>
      </trkpt>
      <trkpt lat="47.541576" lon="7.870664">
        <ele>340.881975</ele>
        <time>2021-11-21T06:59:45.017Z</time>
      </trkpt>
      <trkpt lat="47.541796" lon="7.871042">
        <ele>340.881975</ele>
        <time>2021-11-21T06:59:52.119Z</time>
      </trkpt>
      <trkpt lat="47.541953" lon="7.871286">
        <ele>340.881975</ele>
        <time>2021-11-21T06:59:56.941Z</time>
      </trkpt>
      <trkpt lat="47.542039" lon="7.871556">
        <ele>341.500723</ele>
        <time>2021-11-21T07:00:01.325Z</time>
      </trkpt>
      <trkpt lat="47.542067" lon="7.871664">
        <ele>341.788123</ele>
        <time>2021-11-21T07:00:02.986Z</time>
      </trkpt>
      <trkpt lat="47.542091" lon="7.871721">
        <ele>341.955010</ele>
        <time>2021-11-21T07:00:03.590Z</time>
      </trkpt>
      <trkpt lat="47.542218" lon="7.871866">
        <ele>342.545077</ele>
        <time>2021-11-21T07:00:08.698Z</time>
      </trkpt>
      <trkpt lat="47.542394" lon="7.872341">
        <ele>343.891137</ele>
        <time>2021-11-21T07:00:18.750Z</time>
      </trkpt>
      <trkpt lat="47.542436" lon="7.872494">
        <ele>344.301442</ele>
        <time>2021-11-21T07:00:22.142Z</time>
      </trkpt>
      <trkpt lat="47.542537" lon="7.872430">
        <ele>344.705702</ele>
        <time>2021-11-21T07:00:24.254Z</time>
      </trkpt>
      <trkpt lat="47.542714" lon="7.872334">
        <ele>345.399352</ele>
        <time>2021-11-21T07:00:31.210Z</time>
      </trkpt>
      <trkpt lat="47.542814" lon="7.872280">
        <ele>345.791043</ele>
        <time>2021-11-21T07:00:34.224Z</time>
      </trkpt>
      <trkpt lat="47.542919" lon="7.872226">
        <ele>346.200069</ele>
        <time>2021-11-21T07:00:38.063Z</time>
      </trkpt>
      <trkpt lat="47.543013" lon="7.872182">
        <ele>346.562850</ele>
        <time>2021-11-21T07:00:41.569Z</time>
      </trkpt>
      <trkpt lat="47.543233" lon="7.872082">
        <ele>347.409712</ele>
        <time>2021-11-21T07:00:48.808Z</time>
      </trkpt>
      <trkpt lat="47.543251" lon="7.872152">
        <ele>347.664199</ele>
        <time>2021-11-21T07:00:52.181Z</time>
      </trkpt>
      <trkpt lat="47.543332" lon="7.872237">
        <ele>348.293233</ele>
        <time>2021-11-21T07:00:55.487Z</time>
      </trkpt>
      <trkpt lat="47.544390" lon="7.872423">
        <ele>355.044843</ele>
        <time>2021-11-21T07:01:37.206Z</time>
      </trkpt>
      <trkpt lat="47.544883" lon="7.872555">
        <ele>358.219609</ele>
        <time>2021-11-21T07:01:59.615Z</time>
      </trkpt>
      <trkpt lat="47.545131" lon="7.872664">
        <ele>359.902194</ele>
        <time>2021-11-21T07:02:10.619Z</time>
      </trkpt>
      <trkpt lat="47.545375" lon="7.872836">
        <ele>361.691793</ele>
        <time>2021-11-21T07:02:21.560Z</time>
      </trkpt>
      <trkpt lat="47.545478" lon="7.872968">
        <ele>362.593771</ele>
        <time>2021-11-21T07:02:28.367Z</time>
      </trkpt>
      <trkpt lat="47.545515" lon="7.873015">
        <ele>362.916564</ele>
        <time>2021-11-21T07:02:30.324Z</time>
      </trkpt>
      <trkpt lat="47.545746" lon="7.873302">
        <ele>364.913241</ele>
        <time>2021-11-21T07:02:43.524Z</time>
      </trkpt>
      <trkpt lat="47.545934" lon="7.873549">
        <ele>366.577438</ele>
        <time>2021-11-21T07:02:53.624Z</time>
      </trkpt>
      <trkpt lat="47.546077" lon="7.873763">
        <ele>367.923609</ele>
        <time>2021-11-21T07:03:02.820Z</time>
      </trkpt>
      <trkpt lat="47.546135" lon="7.873859">
        <ele>368.499572</ele>
        <time>2021-11-21T07:03:06.059Z</time>
      </trkpt>
      <trkpt lat="47.546309" lon="7.874154">
        <ele>370.250903</ele>
        <time>2021-11-21T07:03:17.174Z</time>
      </trkpt>
      <trkpt lat="47.547126" lon="7.875801">
        <ele>375.936970</ele>
        <time>2021-11-21T07:04:02.935Z</time>
      </trkpt>
      <trkpt lat="47.547574" lon="7.876801">
        <ele>377.695895</ele>
        <time>2021-11-21T07:04:21.931Z</time>
      </trkpt>
      <trkpt lat="47.547992" lon="7.877974">
        <ele>377.011071</ele>
        <time>2021-11-21T07:04:34.731Z</time>
      </trkpt>
      <trkpt lat="47.548234" lon="7.878638">
        <ele>376.621476</ele>
        <time>2021-11-21T07:04:39.995Z</time>
      </trkpt>
      <trkpt lat="47.548422" lon="7.878959">
        <ele>375.643965</ele>
        <time>2021-11-21T07:04:42.765Z</time>
      </trkpt>
      <trkpt lat="47.548718" lon="7.879258">
        <ele>374.007678</ele>
        <time>2021-11-21T07:04:46.181Z</time>
      </trkpt>
      <trkpt lat="47.549140" lon="7.879391">
        <ele>372.037103</ele>
        <time>2021-11-21T07:04:50.250Z</time>
      </trkpt>
      <trkpt lat="47.549318" lon="7.879398">
        <ele>371.223818</ele>
        <time>2021-11-21T07:04:51.863Z</time>
      </trkpt>
      <trkpt lat="47.549426" lon="7.879394">
        <ele>370.730383</ele>
        <time>2021-11-21T07:04:52.906Z</time>
      </trkpt>
      <trkpt lat="47.549694" lon="7.879391">
        <ele>369.506283</ele>
        <time>2021-11-21T07:04:55.431Z</time>
      </trkpt>
      <trkpt lat="47.549920" lon="7.879395">
        <ele>368.473975</ele>
        <time>2021-11-21T07:04:57.626Z</time>
      </trkpt>
      <trkpt lat="47.549993" lon="7.879403">
        <ele>368.206359</ele>
        <time>2021-11-21T07:04:58.301Z</time>
      </trkpt>
      <trkpt lat="47.550458" lon="7.879428">
        <ele>366.790873</ele>
        <time>2021-11-21T07:05:02.800Z</time>
      </trkpt>
      <trkpt lat="47.550948" lon="7.879456">
        <ele>365.299158</ele>
        <time>2021-11-21T07:05:07.709Z</time>
      </trkpt>
      <trkpt lat="47.551453" lon="7.879539">
        <ele>363.753497</ele>
        <time>2021-11-21T07:05:13.330Z</time>
      </trkpt>
      <trkpt lat="47.551499" lon="7.879547">
        <ele>363.612602</ele>
        <time>2021-11-21T07:05:13.850Z</time>
      </trkpt>
      <trkpt lat="47.552616" lon="7.879896">
        <ele>360.770251</ele>
        <time>2021-11-21T07:05:26.869Z</time>
      </trkpt>
      <trkpt lat="47.553292" lon="7.880216">
        <ele>359.110268</ele>
        <time>2021-11-21T07:05:34.539Z</time>
      </trkpt>
      <trkpt lat="47.554555" lon="7.880902">
        <ele>353.050763</ele>
        <time>2021-11-21T07:05:47.484Z</time>
      </trkpt>
      <trkpt lat="47.554711" lon="7.880958">
        <ele>352.269763</ele>
        <time>2021-11-21T07:05:48.975Z</time>
      </trkpt>
      <trkpt lat="47.554840" lon="7.880981">
        <ele>351.637566</ele>
        <time>2021-11-21T07:05:50.143Z</time>
      </trkpt>
      <trkpt lat="47.554892" lon="7.880986">
        <ele>351.384019</ele>
        <time>2021-11-21T07:05:50.630Z</time>
      </trkpt>
      <trkpt lat="47.555165" lon="7.880954">
        <ele>350.051545</ele>
        <time>2021-11-21T07:05:53.134Z</time>
      </trkpt>
      <trkpt lat="47.555200" lon="7.881240">
        <ele>348.839174</ele>
        <time>2021-11-21T07:05:54.933Z</time>
      </trkpt>
      <trkpt lat="47.555219" lon="7.881390">
        <ele>348.178822</ele>
        <time>2021-11-21T07:05:55.849Z</time>
      </trkpt>
      <trkpt lat="47.555161" lon="7.882307">
        <ele>344.193764</ele>
        <time>2021-11-21T07:06:01.483Z</time>
      </trkpt>
      <trkpt lat="47.554972" lon="7.883695">
        <ele>338.124014</ele>
        <time>2021-11-21T07:06:10.098Z</time>
      </trkpt>
      <trkpt lat="47.554519" lon="7.886778">
        <ele>327.561433</ele>
        <time>2021-11-21T07:06:30.142Z</time>
      </trkpt>
      <trkpt lat="47.554151" lon="7.889353">
        <ele>321.384592</ele>
        <time>2021-11-21T07:06:48.117Z</time>
      </trkpt>
      <trkpt lat="47.553816" lon="7.891691">
        <ele>317.257362</ele>
        <time>2021-11-21T07:07:05.181Z</time>
      </trkpt>
      <trkpt lat="47.553711" lon="7.892472">
        <ele>316.284848</ele>
        <time>2021-11-21T07:07:10.952Z</time>
      </trkpt>
      <trkpt lat="47.553422" lon="7.894151">
        <ele>314.274689</ele>
        <time>2021-11-21T07:07:24.256Z</time>
      </trkpt>
      <trkpt lat="47.553308" lon="7.894573">
        <ele>314.127803</ele>
        <time>2021-11-21T07:07:28.099Z</time>
      </trkpt>
      <trkpt lat="47.553260" lon="7.894549">
        <ele>314.103547</ele>
        <time>2021-11-21T07:07:28.755Z</time>
      </trkpt>
      <trkpt lat="47.553130" lon="7.894640">
        <ele>314.034705</ele>
        <time>2021-11-21T07:07:30.742Z</time>
      </trkpt>
      <trkpt lat="47.553112" lon="7.894710">
        <ele>314.010499</ele>
        <time>2021-11-21T07:07:31.376Z</time>
      </trkpt>
      <trkpt lat="47.553110" lon="7.894769">
        <ele>313.991409</ele>
        <time>2021-11-21T07:07:31.906Z</time>
      </trkpt>
      <trkpt lat="47.553174" lon="7.894916">
        <ele>313.934880</ele>
        <time>2021-11-21T07:07:33.437Z</time>
      </trkpt>
      <trkpt lat="47.553211" lon="7.894938">
        <ele>313.915791</ele>
        <time>2021-11-21T07:07:33.988Z</time>
      </trkpt>
      <trkpt lat="47.553164" lon="7.895114">
        <ele>313.854626</ele>
        <time>2021-11-21T07:07:35.868Z</time>
      </trkpt>
      <trkpt lat="47.552719" lon="7.896440">
        <ele>313.353887</ele>
        <time>2021-11-21T07:07:50.188Z</time>
      </trkpt>
      <trkpt lat="47.552358" lon="7.897179">
        <ele>312.972457</ele>
        <time>2021-11-21T07:07:59.796Z</time>
      </trkpt>
      <trkpt lat="47.551673" lon="7.898276">
        <ele>312.347582</ele>
        <time>2021-11-21T07:08:12.401Z</time>
      </trkpt>
      <trkpt lat="47.551366" lon="7.899159">
        <ele>310.485808</ele>
        <time>2021-11-21T07:08:19.687Z</time>
      </trkpt>
      <trkpt lat="47.551253" lon="7.899932">
        <ele>308.974142</ele>
        <time>2021-11-21T07:08:25.161Z</time>
      </trkpt>
      <trkpt lat="47.551142" lon="7.902561">
        <ele>302.782924</ele>
        <time>2021-11-21T07:08:42.622Z</time>
      </trkpt>
      <trkpt lat="47.550977" lon="7.903668">
        <ele>300.007143</ele>
        <time>2021-11-21T07:08:50.120Z</time>
      </trkpt>
      <trkpt lat="47.550965" lon="7.903751">
        <ele>299.852310</ele>
        <time>2021-11-21T07:08:50.648Z</time>
      </trkpt>
      <trkpt lat="47.550802" lon="7.904472">
        <ele>298.465333</ele>
        <time>2021-11-21T07:08:55.862Z</time>
      </trkpt>
      <trkpt lat="47.550497" lon="7.905558">
        <ele>296.319722</ele>
        <time>2021-11-21T07:09:04.203Z</time>
      </trkpt>
      <trkpt lat="47.549539" lon="7.908625">
        <ele>292.780910</ele>
        <time>2021-11-21T07:09:30.966Z</time>
      </trkpt>
      <trkpt lat="47.549520" lon="7.908678">
        <ele>292.733887</ele>
        <time>2021-11-21T07:09:31.462Z</time>
      </trkpt>
      <trkpt lat="47.549317" lon="7.909350">
        <ele>292.156999</ele>
        <time>2021-11-21T07:09:37.445Z</time>
      </trkpt>
      <trkpt lat="47.549260" lon="7.909541">
        <ele>291.993361</ele>
        <time>2021-11-21T07:09:39.186Z</time>
      </trkpt>
      <trkpt lat="47.549195" lon="7.909756">
        <ele>291.808766</ele>
        <time>2021-11-21T07:09:41.095Z</time>
      </trkpt>
      <trkpt lat="47.549102" lon="7.910058">
        <ele>291.548662</ele>
        <time>2021-11-21T07:09:43.811Z</time>
      </trkpt>
      <trkpt lat="47.549012" lon="7.910340">
        <ele>291.304238</ele>
        <time>2021-11-21T07:09:46.312Z</time>
      </trkpt>
      <trkpt lat="47.548412" lon="7.912168">
        <ele>289.823394</ele>
        <time>2021-11-21T07:10:02.640Z</time>
      </trkpt>
      <trkpt lat="47.548027" lon="7.913334">
        <ele>288.985743</ele>
        <time>2021-11-21T07:10:13.401Z</time>
      </trkpt>
      <trkpt lat="47.547994" lon="7.913433">
        <ele>288.967350</ele>
        <time>2021-11-21T07:10:14.322Z</time>
      </trkpt>
      <trkpt lat="47.547423" lon="7.915080">
        <ele>288.658916</ele>
        <time>2021-11-21T07:10:31.798Z</time>
      </trkpt>
      <trkpt lat="47.547113" lon="7.915971">
        <ele>288.711298</ele>
        <time>2021-11-21T07:10:42.245Z</time>
      </trkpt>
      <trkpt lat="47.547091" lon="7.916039">
        <ele>288.735160</ele>
        <time>2021-11-21T07:10:43.270Z</time>
      </trkpt>
      <trkpt lat="47.547032" lon="7.916218">
        <ele>288.798195</ele>
        <time>2021-11-21T07:10:45.473Z</time>
      </trkpt>
      <trkpt lat="47.546821" lon="7.916867">
        <ele>289.026146</ele>
        <time>2021-11-21T07:10:53.582Z</time>
      </trkpt>
      <trkpt lat="47.546262" lon="7.919081">
        <ele>289.701895</ele>
        <time>2021-11-21T07:11:21.093Z</time>
      </trkpt>
      <trkpt lat="47.546128" lon="7.919617">
        <ele>289.846797</ele>
        <time>2021-11-21T07:11:26.561Z</time>
      </trkpt>
      <trkpt lat="47.545973" lon="7.920313">
        <ele>290.032595</ele>
        <time>2021-11-21T07:11:35.025Z</time>
      </trkpt>
      <trkpt lat="47.545913" lon="7.920765">
        <ele>290.327465</ele>
        <time>2021-11-21T07:11:39.198Z</time>
      </trkpt>
      <trkpt lat="47.545881" lon="7.921096">
        <ele>290.651675</ele>
        <time>2021-11-21T07:11:43.215Z</time>
      </trkpt>
      <trkpt lat="47.545810" lon="7.921755">
        <ele>291.298724</ele>
        <time>2021-11-21T07:11:52.123Z</time>
      </trkpt>
      <trkpt lat="47.545778" lon="7.921947">
        <ele>291.490476</ele>
        <time>2021-11-21T07:11:55.732Z</time>
      </trkpt>
      <trkpt lat="47.545714" lon="7.922249">
        <ele>291.797386</ele>
        <time>2021-11-21T07:11:58.931Z</time>
      </trkpt>
      <trkpt lat="47.545699" lon="7.922325">
        <ele>291.874160</ele>
        <time>2021-11-21T07:12:00.128Z</time>
      </trkpt>
      <trkpt lat="47.545690" lon="7.922369">
        <ele>291.918738</ele>
        <time>2021-11-21T07:12:02.226Z</time>
      </trkpt>
      <trkpt lat="47.545641" lon="7.922610">
        <ele>292.162781</ele>
        <time>2021-11-21T07:12:04.580Z</time>
      </trkpt>
      <trkpt lat="47.545587" lon="7.922895">
        <ele>292.449796</ele>
        <time>2021-11-21T07:12:10.376Z</time>
      </trkpt>
      <trkpt lat="47.545553" lon="7.923142">
        <ele>292.731776</ele>
        <time>2021-11-21T07:12:13.023Z</time>
      </trkpt>
      <trkpt lat="47.545536" lon="7.923407">
        <ele>293.389512</ele>
        <time>2021-11-21T07:12:18.913Z</time>
      </trkpt>
      <trkpt lat="47.545521" lon="7.923709">
        <ele>294.137737</ele>
        <time>2021-11-21T07:12:23.067Z</time>
      </trkpt>
      <trkpt lat="47.545481" lon="7.924396">
        <ele>295.841542</ele>
        <time>2021-11-21T07:12:37.670Z</time>
      </trkpt>
      <trkpt lat="47.545466" lon="7.924880">
        <ele>297.038713</ele>
        <time>2021-11-21T07:12:48.976Z</time>
      </trkpt>
      <trkpt lat="47.545446" lon="7.925350">
        <ele>298.202337</ele>
        <time>2021-11-21T07:12:59.351Z</time>
      </trkpt>
      <trkpt lat="47.545417" lon="7.925848">
        <ele>299.354501</ele>
        <time>2021-11-21T07:13:09.830Z</time>
      </trkpt>
      <trkpt lat="47.545409" lon="7.926773">
        <ele>300.607068</ele>
        <time>2021-11-21T07:13:27.031Z</time>
      </trkpt>
      <trkpt lat="47.545407" lon="7.927001">
        <ele>300.915809</ele>
        <time>2021-11-21T07:13:30.840Z</time>
      </trkpt>
      <trkpt lat="47.545406" lon="7.927306">
        <ele>301.328789</ele>
        <time>2021-11-21T07:13:35.445Z</time>
      </trkpt>
      <trkpt lat="47.545421" lon="7.927686">
        <ele>301.844193</ele>
        <time>2021-11-21T07:13:40.980Z</time>
      </trkpt>
      <trkpt lat="47.545475" lon="7.928419">
        <ele>302.842579</ele>
        <time>2021-11-21T07:13:50.298Z</time>
      </trkpt>
      <trkpt lat="47.545563" lon="7.929641">
        <ele>301.575866</ele>
        <time>2021-11-21T07:14:00.177Z</time>
      </trkpt>
      <trkpt lat="47.545661" lon="7.930955">
        <ele>300.176118</ele>
        <time>2021-11-21T07:14:09.573Z</time>
      </trkpt>
      <trkpt lat="47.545696" lon="7.931497">
        <ele>299.738847</ele>
        <time>2021-11-21T07:14:13.542Z</time>
      </trkpt>
      <trkpt lat="47.545721" lon="7.931992">
        <ele>299.379214</ele>
        <time>2021-11-21T07:14:17.334Z</time>
      </trkpt>
      <trkpt lat="47.545724" lon="7.932758">
        <ele>298.824232</ele>
        <time>2021-11-21T07:14:23.544Z</time>
      </trkpt>
      <trkpt lat="47.545702" lon="7.933290">
        <ele>298.438071</ele>
        <time>2021-11-21T07:14:28.187Z</time>
      </trkpt>
      <trkpt lat="47.545674" lon="7.933625">
        <ele>298.193508</ele>
        <time>2021-11-21T07:14:31.387Z</time>
      </trkpt>
      <trkpt lat="47.545457" lon="7.935110">
        <ele>299.099751</ele>
        <time>2021-11-21T07:14:49.522Z</time>
      </trkpt>
      <trkpt lat="47.545074" lon="7.936484">
        <ele>300.257564</ele>
        <time>2021-11-21T07:15:11.049Z</time>
      </trkpt>
      <trkpt lat="47.544903" lon="7.936917">
        <ele>300.855277</ele>
        <time>2021-11-21T07:15:18.366Z</time>
      </trkpt>
      <trkpt lat="47.544705" lon="7.937395">
        <ele>301.523483</ele>
        <time>2021-11-21T07:15:26.550Z</time>
      </trkpt>
      <trkpt lat="47.544472" lon="7.937932">
        <ele>302.284085</ele>
        <time>2021-11-21T07:15:35.957Z</time>
      </trkpt>
      <trkpt lat="47.543826" lon="7.939433">
        <ele>304.330498</ele>
        <time>2021-11-21T07:16:02.839Z</time>
      </trkpt>
      <trkpt lat="47.543435" lon="7.940670">
        <ele>305.860238</ele>
        <time>2021-11-21T07:16:22.799Z</time>
      </trkpt>
      <trkpt lat="47.543161" lon="7.942213">
        <ele>306.497504</ele>
        <time>2021-11-21T07:16:43.648Z</time>
      </trkpt>
      <trkpt lat="47.543007" lon="7.943867">
        <ele>306.497949</ele>
        <time>2021-11-21T07:16:59.192Z</time>
      </trkpt>
      <trkpt lat="47.542913" lon="7.945267">
        <ele>305.083821</ele>
        <time>2021-11-21T07:17:10.099Z</time>
      </trkpt>
      <trkpt lat="47.542872" lon="7.945781">
        <ele>304.563588</ele>
        <time>2021-11-21T07:17:13.915Z</time>
      </trkpt>
      <trkpt lat="47.542875" lon="7.946089">
        <ele>304.253975</ele>
        <time>2021-11-21T07:17:16.150Z</time>
      </trkpt>
      <trkpt lat="47.542902" lon="7.946514">
        <ele>303.821731</ele>
        <time>2021-11-21T07:17:19.244Z</time>
      </trkpt>
      <trkpt lat="47.542943" lon="7.946806">
        <ele>303.519160</ele>
        <time>2021-11-21T07:17:21.454Z</time>
      </trkpt>
      <trkpt lat="47.542974" lon="7.946965">
        <ele>303.351264</ele>
        <time>2021-11-21T07:17:22.762Z</time>
      </trkpt>
      <trkpt lat="47.542979" lon="7.946989">
        <ele>303.325783</ele>
        <time>2021-11-21T07:17:22.919Z</time>
      </trkpt>
      <trkpt lat="47.542989" lon="7.947104">
        <ele>303.208153</ele>
        <time>2021-11-21T07:17:23.790Z</time>
      </trkpt>
      <trkpt lat="47.542984" lon="7.947304">
        <ele>303.005117</ele>
        <time>2021-11-21T07:17:25.365Z</time>
      </trkpt>
      <trkpt lat="47.542979" lon="7.947370">
        <ele>302.937740</ele>
        <time>2021-11-21T07:17:25.866Z</time>
      </trkpt>
      <trkpt lat="47.542935" lon="7.947564">
        <ele>302.730118</ele>
        <time>2021-11-21T07:17:27.434Z</time>
      </trkpt>
      <trkpt lat="47.542892" lon="7.947789">
        <ele>302.492887</ele>
        <time>2021-11-21T07:17:29.352Z</time>
      </trkpt>
      <trkpt lat="47.542875" lon="7.948001">
        <ele>302.276303</ele>
        <time>2021-11-21T07:17:31.168Z</time>
      </trkpt>
      <trkpt lat="47.542838" lon="7.948225">
        <ele>302.042354</ele>
        <time>2021-11-21T07:17:32.952Z</time>
      </trkpt>
      <trkpt lat="47.542826" lon="7.948298">
        <ele>301.966132</ele>
        <time>2021-11-21T07:17:33.574Z</time>
      </trkpt>
      <trkpt lat="47.542719" lon="7.949175">
        <ele>301.348053</ele>
        <time>2021-11-21T07:17:40.798Z</time>
      </trkpt>
      <trkpt lat="47.542609" lon="7.949914">
        <ele>301.128152</ele>
        <time>2021-11-21T07:17:47.573Z</time>
      </trkpt>
      <trkpt lat="47.542560" lon="7.950202">
        <ele>301.041846</ele>
        <time>2021-11-21T07:17:50.441Z</time>
      </trkpt>
      <trkpt lat="47.542554" lon="7.950231">
        <ele>301.033032</ele>
        <time>2021-11-21T07:17:50.717Z</time>
      </trkpt>
      <trkpt lat="47.542546" lon="7.950274">
        <ele>301.020071</ele>
        <time>2021-11-21T07:17:51.121Z</time>
      </trkpt>
      <trkpt lat="47.542444" lon="7.950687">
        <ele>300.892280</ele>
        <time>2021-11-21T07:17:55.584Z</time>
      </trkpt>
      <trkpt lat="47.542357" lon="7.951037">
        <ele>300.783898</ele>
        <time>2021-11-21T07:17:59.228Z</time>
      </trkpt>
      <trkpt lat="47.542192" lon="7.951713">
        <ele>300.623402</ele>
        <time>2021-11-21T07:18:06.176Z</time>
      </trkpt>
      <trkpt lat="47.542169" lon="7.951815">
        <ele>300.605463</ele>
        <time>2021-11-21T07:18:07.103Z</time>
      </trkpt>
      <trkpt lat="47.541991" lon="7.952667">
        <ele>300.456689</ele>
        <time>2021-11-21T07:18:15.384Z</time>
      </trkpt>
      <trkpt lat="47.541791" lon="7.953601">
        <ele>300.293235</ele>
        <time>2021-11-21T07:18:24.436Z</time>
      </trkpt>
      <trkpt lat="47.541773" lon="7.953695">
        <ele>300.276936</ele>
        <time>2021-11-21T07:18:25.372Z</time>
      </trkpt>
      <trkpt lat="47.541735" lon="7.953892">
        <ele>300.249288</ele>
        <time>2021-11-21T07:18:27.255Z</time>
      </trkpt>
      <trkpt lat="47.541660" lon="7.954250">
        <ele>300.480450</ele>
        <time>2021-11-21T07:18:31.013Z</time>
      </trkpt>
      <trkpt lat="47.541530" lon="7.954936">
        <ele>300.919853</ele>
        <time>2021-11-21T07:18:38.234Z</time>
      </trkpt>
      <trkpt lat="47.541482" lon="7.955294">
        <ele>301.144941</ele>
        <time>2021-11-21T07:18:42.283Z</time>
      </trkpt>
      <trkpt lat="47.541465" lon="7.955512">
        <ele>301.280274</ele>
        <time>2021-11-21T07:18:44.618Z</time>
      </trkpt>
      <trkpt lat="47.541442" lon="7.955866">
        <ele>301.499592</ele>
        <time>2021-11-21T07:18:49.911Z</time>
      </trkpt>
      <trkpt lat="47.541410" lon="7.956569">
        <ele>302.054035</ele>
        <time>2021-11-21T07:19:01.211Z</time>
      </trkpt>
      <trkpt lat="47.541404" lon="7.956677">
        <ele>302.292007</ele>
        <time>2021-11-21T07:19:03.317Z</time>
      </trkpt>
      <trkpt lat="47.541280" lon="7.957569">
        <ele>304.291963</ele>
        <time>2021-11-21T07:19:18.964Z</time>
      </trkpt>
      <trkpt lat="47.541237" lon="7.957756">
        <ele>304.725791</ele>
        <time>2021-11-21T07:19:23.312Z</time>
      </trkpt>
      <trkpt lat="47.541141" lon="7.958127">
        <ele>305.598321</ele>
        <time>2021-11-21T07:19:30.863Z</time>
      </trkpt>
      <trkpt lat="47.540957" lon="7.959132">
        <ele>307.872357</ele>
        <time>2021-11-21T07:19:52.306Z</time>
      </trkpt>
      <trkpt lat="47.540954" lon="7.959705">
        <ele>309.021659</ele>
        <time>2021-11-21T07:20:03.733Z</time>
      </trkpt>
      <trkpt lat="47.540979" lon="7.959950">
        <ele>309.518638</ele>
        <time>2021-11-21T07:20:09.183Z</time>
      </trkpt>
      <trkpt lat="47.541002" lon="7.960092">
        <ele>309.811530</ele>
        <time>2021-11-21T07:20:11.777Z</time>
      </trkpt>
      <trkpt lat="47.541060" lon="7.960321">
        <ele>310.302099</ele>
        <time>2021-11-21T07:20:16.499Z</time>
      </trkpt>
      <trkpt lat="47.541153" lon="7.960814">
        <ele>311.328788</ele>
        <time>2021-11-21T07:20:25.068Z</time>
      </trkpt>
      <trkpt lat="47.541242" lon="7.961294">
        <ele>312.327176</ele>
        <time>2021-11-21T07:20:33.027Z</time>
      </trkpt>
      <trkpt lat="47.541316" lon="7.962197">
        <ele>313.712968</ele>
        <time>2021-11-21T07:20:47.653Z</time>
      </trkpt>
      <trkpt lat="47.541314" lon="7.962377">
        <ele>313.925906</ele>
        <time>2021-11-21T07:20:50.482Z</time>
      </trkpt>
      <trkpt lat="47.541308" lon="7.962513">
        <ele>314.087114</ele>
        <time>2021-11-21T07:20:52.345Z</time>
      </trkpt>
      <trkpt lat="47.541293" lon="7.962730">
        <ele>314.345130</ele>
        <time>2021-11-21T07:20:55.208Z</time>
      </trkpt>
      <trkpt lat="47.541258" lon="7.962975">
        <ele>314.641341</ele>
        <time>2021-11-21T07:20:59.108Z</time>
      </trkpt>
      <trkpt lat="47.541217" lon="7.963187">
        <ele>314.902189</ele>
        <time>2021-11-21T07:21:01.897Z</time>
      </trkpt>
      <trkpt lat="47.541123" lon="7.963520">
        <ele>315.329122</ele>
        <time>2021-11-21T07:21:07.132Z</time>
      </trkpt>
      <trkpt lat="47.541019" lon="7.963815">
        <ele>315.722776</ele>
        <time>2021-11-21T07:21:11.768Z</time>
      </trkpt>
      <trkpt lat="47.540959" lon="7.963916">
        <ele>315.881913</ele>
        <time>2021-11-21T07:21:14.056Z</time>
      </trkpt>
      <trkpt lat="47.540467" lon="7.964759">
        <ele>317.037556</ele>
        <time>2021-11-21T07:21:29.780Z</time>
      </trkpt>
      <trkpt lat="47.540257" lon="7.965417">
        <ele>317.753667</ele>
        <time>2021-11-21T07:21:39.716Z</time>
      </trkpt>
      <trkpt lat="47.540200" lon="7.965632">
        <ele>317.980935</ele>
        <time>2021-11-21T07:21:43.169Z</time>
      </trkpt>
      <trkpt lat="47.540100" lon="7.966046">
        <ele>318.413561</ele>
        <time>2021-11-21T07:21:49.058Z</time>
      </trkpt>
      <trkpt lat="47.539909" lon="7.966784">
        <ele>319.273211</ele>
        <time>2021-11-21T07:21:59.754Z</time>
      </trkpt>
      <trkpt lat="47.539680" lon="7.967625">
        <ele>320.383359</ele>
        <time>2021-11-21T07:22:13.176Z</time>
      </trkpt>
      <trkpt lat="47.539403" lon="7.968640">
        <ele>321.723620</ele>
        <time>2021-11-21T07:22:29.638Z</time>
      </trkpt>
      <trkpt lat="47.539248" lon="7.969246">
        <ele>322.637289</ele>
        <time>2021-11-21T07:22:39.929Z</time>
      </trkpt>
      <trkpt lat="47.539144" lon="7.969781">
        <ele>323.524009</ele>
        <time>2021-11-21T07:22:49.043Z</time>
      </trkpt>
      <trkpt lat="47.539052" lon="7.970439">
        <ele>324.594252</ele>
        <time>2021-11-21T07:23:00.358Z</time>
      </trkpt>
      <trkpt lat="47.538935" lon="7.971210">
        <ele>325.852874</ele>
        <time>2021-11-21T07:23:13.650Z</time>
      </trkpt>
      <trkpt lat="47.538858" lon="7.971696">
        <ele>326.628118</ele>
        <time>2021-11-21T07:23:21.664Z</time>
      </trkpt>
      <trkpt lat="47.538687" lon="7.972850">
        <ele>328.379884</ele>
        <time>2021-11-21T07:23:40.280Z</time>
      </trkpt>
      <trkpt lat="47.538490" lon="7.973699">
        <ele>329.710980</ele>
        <time>2021-11-21T07:23:54.542Z</time>
      </trkpt>
      <trkpt lat="47.538106" lon="7.974772">
        <ele>331.702291</ele>
        <time>2021-11-21T07:24:14.054Z</time>
      </trkpt>
      <trkpt lat="47.537896" lon="7.975317">
        <ele>332.780472</ele>
        <time>2021-11-21T07:24:24.294Z</time>
      </trkpt>
      <trkpt lat="47.537896" lon="7.975317">
        <ele>332.780472</ele>
        <time>2021-11-21T07:24:24.515Z</time>
      </trkpt>
      <trkpt lat="47.537896" lon="7.975317">
        <ele>332.780472</ele>
        <time>2021-11-21T07:24:24.538Z</time>
      </trkpt>
      <trkpt lat="47.536866" lon="7.977996">
        <ele>338.063423</ele>
        <time>2021-11-21T07:25:19.544Z</time>
      </trkpt>
      <trkpt lat="47.536460" lon="7.979083">
        <ele>339.425998</ele>
        <time>2021-11-21T07:25:38.631Z</time>
      </trkpt>
      <trkpt lat="47.536403" lon="7.979241">
        <ele>339.417781</ele>
        <time>2021-11-21T07:25:40.993Z</time>
      </trkpt>
      <trkpt lat="47.536340" lon="7.979418">
        <ele>339.408602</ele>
        <time>2021-11-21T07:25:43.605Z</time>
      </trkpt>
      <trkpt lat="47.536061" lon="7.980200">
        <ele>339.368031</ele>
        <time>2021-11-21T07:25:52.417Z</time>
      </trkpt>
      <trkpt lat="47.535599" lon="7.981498">
        <ele>338.623411</ele>
        <time>2021-11-21T07:26:03.685Z</time>
      </trkpt>
      <trkpt lat="47.535452" lon="7.981933">
        <ele>337.943400</ele>
        <time>2021-11-21T07:26:07.131Z</time>
      </trkpt>
      <trkpt lat="47.535345" lon="7.982248">
        <ele>337.450464</ele>
        <time>2021-11-21T07:26:09.627Z</time>
      </trkpt>
      <trkpt lat="47.535328" lon="7.982298">
        <ele>337.372206</ele>
        <time>2021-11-21T07:26:10.026Z</time>
      </trkpt>
      <trkpt lat="47.535300" lon="7.982379">
        <ele>337.244996</ele>
        <time>2021-11-21T07:26:10.690Z</time>
      </trkpt>
      <trkpt lat="47.535231" lon="7.982582">
        <ele>336.927284</ele>
        <time>2021-11-21T07:26:12.321Z</time>
      </trkpt>
      <trkpt lat="47.534817" lon="7.983835">
        <ele>335.309062</ele>
        <time>2021-11-21T07:26:22.617Z</time>
      </trkpt>
      <trkpt lat="47.534722" lon="7.984096">
        <ele>335.115612</ele>
        <time>2021-11-21T07:26:24.999Z</time>
      </trkpt>
      <trkpt lat="47.534320" lon="7.984882">
        <ele>334.472284</ele>
        <time>2021-11-21T07:26:33.479Z</time>
      </trkpt>
      <trkpt lat="47.534197" lon="7.985105">
        <ele>334.284414</ele>
        <time>2021-11-21T07:26:36.094Z</time>
      </trkpt>
      <trkpt lat="47.533975" lon="7.985526">
        <ele>333.935895</ele>
        <time>2021-11-21T07:26:40.815Z</time>
      </trkpt>
      <trkpt lat="47.533546" lon="7.986336">
        <ele>333.409385</ele>
        <time>2021-11-21T07:26:50.195Z</time>
      </trkpt>
      <trkpt lat="47.533208" lon="7.986980">
        <ele>333.006559</ele>
        <time>2021-11-21T07:26:57.172Z</time>
      </trkpt>
      <trkpt lat="47.533114" lon="7.987128">
        <ele>332.906212</ele>
        <time>2021-11-21T07:26:58.630Z</time>
      </trkpt>
      <trkpt lat="47.532879" lon="7.987447">
        <ele>332.673051</ele>
        <time>2021-11-21T07:27:02.826Z</time>
      </trkpt>
      <trkpt lat="47.532716" lon="7.987667">
        <ele>332.501694</ele>
        <time>2021-11-21T07:27:06.073Z</time>
      </trkpt>
      <trkpt lat="47.532621" lon="7.987826">
        <ele>332.365877</ele>
        <time>2021-11-21T07:27:07.618Z</time>
      </trkpt>
      <trkpt lat="47.532544" lon="7.987973">
        <ele>332.246863</ele>
        <time>2021-11-21T07:27:10.318Z</time>
      </trkpt>
      <trkpt lat="47.532464" lon="7.988171">
        <ele>332.099258</ele>
        <time>2021-11-21T07:27:12.032Z</time>
      </trkpt>
      <trkpt lat="47.532401" lon="7.988331">
        <ele>331.980775</ele>
        <time>2021-11-21T07:27:13.343Z</time>
      </trkpt>
      <trkpt lat="47.532373" lon="7.988399">
        <ele>331.929825</ele>
        <time>2021-11-21T07:27:15.521Z</time>
      </trkpt>
      <trkpt lat="47.532299" lon="7.988577">
        <ele>331.796107</ele>
        <time>2021-11-21T07:27:17.055Z</time>
      </trkpt>
      <trkpt lat="47.532014" lon="7.989225">
        <ele>331.301398</ele>
        <time>2021-11-21T07:27:23.104Z</time>
      </trkpt>
      <trkpt lat="47.531897" lon="7.989450">
        <ele>331.119728</ele>
        <time>2021-11-21T07:27:26.013Z</time>
      </trkpt>
      <trkpt lat="47.531823" lon="7.989607">
        <ele>330.997245</ele>
        <time>2021-11-21T07:27:27.376Z</time>
      </trkpt>
      <trkpt lat="47.531667" lon="7.989873">
        <ele>330.795199</ele>
        <time>2021-11-21T07:27:30.525Z</time>
      </trkpt>
      <trkpt lat="47.531363" lon="7.990436">
        <ele>330.488199</ele>
        <time>2021-11-21T07:27:36.448Z</time>
      </trkpt>
      <trkpt lat="47.530979" lon="7.991211">
        <ele>330.078823</ele>
        <time>2021-11-21T07:27:44.896Z</time>
      </trkpt>
      <trkpt lat="47.530933" lon="7.991310">
        <ele>330.027644</ele>
        <time>2021-11-21T07:27:45.881Z</time>
      </trkpt>
      <trkpt lat="47.530776" lon="7.991586">
        <ele>329.873953</ele>
        <time>2021-11-21T07:27:49.398Z</time>
      </trkpt>
      <trkpt lat="47.530495" lon="7.992103">
        <ele>329.766390</ele>
        <time>2021-11-21T07:27:55.326Z</time>
      </trkpt>
      <trkpt lat="47.530141" lon="7.992757">
        <ele>329.948591</ele>
        <time>2021-11-21T07:28:04.001Z</time>
      </trkpt>
      <trkpt lat="47.529350" lon="7.994228">
        <ele>330.415153</ele>
        <time>2021-11-21T07:28:26.140Z</time>
      </trkpt>
      <trkpt lat="47.529261" lon="7.994394">
        <ele>330.498691</ele>
        <time>2021-11-21T07:28:28.665Z</time>
      </trkpt>
      <trkpt lat="47.529180" lon="7.994531">
        <ele>330.570459</ele>
        <time>2021-11-21T07:28:30.986Z</time>
      </trkpt>
      <trkpt lat="47.528880" lon="7.995091">
        <ele>330.852189</ele>
        <time>2021-11-21T07:28:38.956Z</time>
      </trkpt>
      <trkpt lat="47.528128" lon="7.996500">
        <ele>331.350190</ele>
        <time>2021-11-21T07:28:59.969Z</time>
      </trkpt>
      <trkpt lat="47.527614" lon="7.997121">
        <ele>331.374545</ele>
        <time>2021-11-21T07:29:09.911Z</time>
      </trkpt>
      <trkpt lat="47.527213" lon="7.997459">
        <ele>331.391485</ele>
        <time>2021-11-21T07:29:16.267Z</time>
      </trkpt>
      <trkpt lat="47.526915" lon="7.997856">
        <ele>331.394081</ele>
        <time>2021-11-21T07:29:21.620Z</time>
      </trkpt>
      <trkpt lat="47.526730" lon="7.998233">
        <ele>331.371135</ele>
        <time>2021-11-21T07:29:26.087Z</time>
      </trkpt>
      <trkpt lat="47.526473" lon="7.999201">
        <ele>331.319922</ele>
        <time>2021-11-21T07:29:36.100Z</time>
      </trkpt>
      <trkpt lat="47.526401" lon="7.999417">
        <ele>331.308062</ele>
        <time>2021-11-21T07:29:38.055Z</time>
      </trkpt>
      <trkpt lat="47.526401" lon="7.999417">
        <ele>331.308062</ele>
        <time>2021-11-21T07:29:38.167Z</time>
      </trkpt>
      <trkpt lat="47.526084" lon="8.000015">
        <ele>331.274246</ele>
        <time>2021-11-21T07:29:45.807Z</time>
      </trkpt>
      <trkpt lat="47.525162" lon="8.001004">
        <ele>332.017823</ele>
        <time>2021-11-21T07:30:05.809Z</time>
      </trkpt>
      <trkpt lat="47.524855" lon="8.001439">
        <ele>332.295339</ele>
        <time>2021-11-21T07:30:13.912Z</time>
      </trkpt>
      <trkpt lat="47.524655" lon="8.001699">
        <ele>332.463166</ele>
        <time>2021-11-21T07:30:18.772Z</time>
      </trkpt>
      <trkpt lat="47.520570" lon="8.007346">
        <ele>335.242206</ele>
        <time>2021-11-21T07:31:51.652Z</time>
      </trkpt>
      <trkpt lat="47.518886" lon="8.009691">
        <ele>337.166809</ele>
        <time>2021-11-21T07:32:34.289Z</time>
      </trkpt>
      <trkpt lat="47.517842" lon="8.011140">
        <ele>338.316353</ele>
        <time>2021-11-21T07:33:00.511Z</time>
      </trkpt>
      <trkpt lat="47.517559" lon="8.011519">
        <ele>338.557046</ele>
        <time>2021-11-21T07:33:07.204Z</time>
      </trkpt>
      <trkpt lat="47.517220" lon="8.011958">
        <ele>338.841122</ele>
        <time>2021-11-21T07:33:14.843Z</time>
      </trkpt>
      <trkpt lat="47.516968" lon="8.012240">
        <ele>339.040367</ele>
        <time>2021-11-21T07:33:20.072Z</time>
      </trkpt>
      <trkpt lat="47.515686" lon="8.013458">
        <ele>340.234604</ele>
        <time>2021-11-21T07:33:46.514Z</time>
      </trkpt>
      <trkpt lat="47.515654" lon="8.013483">
        <ele>340.264205</ele>
        <time>2021-11-21T07:33:47.296Z</time>
      </trkpt>
      <trkpt lat="47.515613" lon="8.013424">
        <ele>340.310980</ele>
        <time>2021-11-21T07:33:48.442Z</time>
      </trkpt>
      <trkpt lat="47.515541" lon="8.013407">
        <ele>340.370630</ele>
        <time>2021-11-21T07:33:49.803Z</time>
      </trkpt>
      <trkpt lat="47.515502" lon="8.013432">
        <ele>340.405398</ele>
        <time>2021-11-21T07:33:50.716Z</time>
      </trkpt>
      <trkpt lat="47.515475" lon="8.013469">
        <ele>340.435497</ele>
        <time>2021-11-21T07:33:51.391Z</time>
      </trkpt>
      <trkpt lat="47.515457" lon="8.013608">
        <ele>340.513701</ele>
        <time>2021-11-21T07:33:53.120Z</time>
      </trkpt>
      <trkpt lat="47.515468" lon="8.013643">
        <ele>340.535032</ele>
        <time>2021-11-21T07:33:53.578Z</time>
      </trkpt>
      <trkpt lat="47.515263" lon="8.013836">
        <ele>340.764365</ele>
        <time>2021-11-21T07:33:58.488Z</time>
      </trkpt>
      <trkpt lat="47.515054" lon="8.014017">
        <ele>341.091379</ele>
        <time>2021-11-21T07:34:03.228Z</time>
      </trkpt>
      <trkpt lat="47.514746" lon="8.014292">
        <ele>341.577145</ele>
        <time>2021-11-21T07:34:10.431Z</time>
      </trkpt>
      <trkpt lat="47.514628" lon="8.014407">
        <ele>341.767941</ele>
        <time>2021-11-21T07:34:13.316Z</time>
      </trkpt>
      <trkpt lat="47.514464" lon="8.014550">
        <ele>342.024995</ele>
        <time>2021-11-21T07:34:17.210Z</time>
      </trkpt>
      <trkpt lat="47.514162" lon="8.014813">
        <ele>342.498198</ele>
        <time>2021-11-21T07:34:24.232Z</time>
      </trkpt>
      <trkpt lat="47.514036" lon="8.014936">
        <ele>342.702032</ele>
        <time>2021-11-21T07:34:27.518Z</time>
      </trkpt>
      <trkpt lat="47.513919" lon="8.015052">
        <ele>342.892209</ele>
        <time>2021-11-21T07:34:30.403Z</time>
      </trkpt>
      <trkpt lat="47.513872" lon="8.015092">
        <ele>342.965426</ele>
        <time>2021-11-21T07:34:31.468Z</time>
      </trkpt>
      <trkpt lat="47.513615" lon="8.015346">
        <ele>343.293787</ele>
        <time>2021-11-21T07:34:38.090Z</time>
      </trkpt>
      <trkpt lat="47.512943" lon="8.015998">
        <ele>344.016955</ele>
        <time>2021-11-21T07:34:53.893Z</time>
      </trkpt>
      <trkpt lat="47.512748" lon="8.016153">
        <ele>344.216169</ele>
        <time>2021-11-21T07:34:57.747Z</time>
      </trkpt>
      <trkpt lat="47.512572" lon="8.016270">
        <ele>344.389821</ele>
        <time>2021-11-21T07:35:00.921Z</time>
      </trkpt>
      <trkpt lat="47.512292" lon="8.016407">
        <ele>344.655253</ele>
        <time>2021-11-21T07:35:05.888Z</time>
      </trkpt>
      <trkpt lat="47.511937" lon="8.016578">
        <ele>344.688003</ele>
        <time>2021-11-21T07:35:11.838Z</time>
      </trkpt>
      <trkpt lat="47.511835" lon="8.016624">
        <ele>344.670417</ele>
        <time>2021-11-21T07:35:13.332Z</time>
      </trkpt>
      <trkpt lat="47.511079" lon="8.016999">
        <ele>344.538914</ele>
        <time>2021-11-21T07:35:24.922Z</time>
      </trkpt>
      <trkpt lat="47.510624" lon="8.017217">
        <ele>344.460037</ele>
        <time>2021-11-21T07:35:31.289Z</time>
      </trkpt>
      <trkpt lat="47.510117" lon="8.017458">
        <ele>344.209787</ele>
        <time>2021-11-21T07:35:38.033Z</time>
      </trkpt>
      <trkpt lat="47.509872" lon="8.017541">
        <ele>344.066473</ele>
        <time>2021-11-21T07:35:41.195Z</time>
      </trkpt>
      <trkpt lat="47.509728" lon="8.017576">
        <ele>343.983262</ele>
        <time>2021-11-21T07:35:43.152Z</time>
      </trkpt>
      <trkpt lat="47.509596" lon="8.017609">
        <ele>343.906928</ele>
        <time>2021-11-21T07:35:44.808Z</time>
      </trkpt>
      <trkpt lat="47.509437" lon="8.017668">
        <ele>343.813459</ele>
        <time>2021-11-21T07:35:46.932Z</time>
      </trkpt>
      <trkpt lat="47.509253" lon="8.017765">
        <ele>343.702086</ele>
        <time>2021-11-21T07:35:49.443Z</time>
      </trkpt>
      <trkpt lat="47.509105" lon="8.017861">
        <ele>343.609948</ele>
        <time>2021-11-21T07:35:51.547Z</time>
      </trkpt>
      <trkpt lat="47.508988" lon="8.017959">
        <ele>343.533295</ele>
        <time>2021-11-21T07:35:53.322Z</time>
      </trkpt>
      <trkpt lat="47.508896" lon="8.018035">
        <ele>343.473221</ele>
        <time>2021-11-21T07:35:54.629Z</time>
      </trkpt>
      <trkpt lat="47.508805" lon="8.018141">
        <ele>343.419443</ele>
        <time>2021-11-21T07:35:56.265Z</time>
      </trkpt>
      <trkpt lat="47.508699" lon="8.018304">
        <ele>343.526438</ele>
        <time>2021-11-21T07:35:58.382Z</time>
      </trkpt>
      <trkpt lat="47.508636" lon="8.018423">
        <ele>343.597935</ele>
        <time>2021-11-21T07:35:59.730Z</time>
      </trkpt>
      <trkpt lat="47.508617" lon="8.018463">
        <ele>343.621059</ele>
        <time>2021-11-21T07:36:00.182Z</time>
      </trkpt>
      <trkpt lat="47.508597" lon="8.018443">
        <ele>343.637955</ele>
        <time>2021-11-21T07:36:00.596Z</time>
      </trkpt>
      <trkpt lat="47.508507" lon="8.018455">
        <ele>343.701216</ele>
        <time>2021-11-21T07:36:02.089Z</time>
      </trkpt>
      <trkpt lat="47.508490" lon="8.018479">
        <ele>343.717661</ele>
        <time>2021-11-21T07:36:02.498Z</time>
      </trkpt>
      <trkpt lat="47.508475" lon="8.018519">
        <ele>343.739295</ele>
        <time>2021-11-21T07:36:02.934Z</time>
      </trkpt>
      <trkpt lat="47.508493" lon="8.018648">
        <ele>343.801585</ele>
        <time>2021-11-21T07:36:04.350Z</time>
      </trkpt>
      <trkpt lat="47.508517" lon="8.018677">
        <ele>343.823273</ele>
        <time>2021-11-21T07:36:04.766Z</time>
      </trkpt>
      <trkpt lat="47.508505" lon="8.018716">
        <ele>343.843538</ele>
        <time>2021-11-21T07:36:05.230Z</time>
      </trkpt>
      <trkpt lat="47.508436" lon="8.018909">
        <ele>343.946799</ele>
        <time>2021-11-21T07:36:07.854Z</time>
      </trkpt>
      <trkpt lat="47.508403" lon="8.018982">
        <ele>343.988337</ele>
        <time>2021-11-21T07:36:08.855Z</time>
      </trkpt>
      <trkpt lat="47.508273" lon="8.019268">
        <ele>344.151351</ele>
        <time>2021-11-21T07:36:13.030Z</time>
      </trkpt>
      <trkpt lat="47.508117" lon="8.019584">
        <ele>344.336436</ele>
        <time>2021-11-21T07:36:18.001Z</time>
      </trkpt>
      <trkpt lat="47.508075" lon="8.019669">
        <ele>344.386237</ele>
        <time>2021-11-21T07:36:19.458Z</time>
      </trkpt>
      <trkpt lat="47.508029" lon="8.019761">
        <ele>344.440364</ele>
        <time>2021-11-21T07:36:21.082Z</time>
      </trkpt>
      <trkpt lat="47.507951" lon="8.019911">
        <ele>344.529881</ele>
        <time>2021-11-21T07:36:23.774Z</time>
      </trkpt>
      <trkpt lat="47.507863" lon="8.020075">
        <ele>344.628925</ele>
        <time>2021-11-21T07:36:26.580Z</time>
      </trkpt>
      <trkpt lat="47.507666" lon="8.020400">
        <ele>345.231797</ele>
        <time>2021-11-21T07:36:32.946Z</time>
      </trkpt>
      <trkpt lat="47.507609" lon="8.020484">
        <ele>345.424552</ele>
        <time>2021-11-21T07:36:34.775Z</time>
      </trkpt>
      <trkpt lat="47.507466" lon="8.020697">
        <ele>345.910724</ele>
        <time>2021-11-21T07:36:39.584Z</time>
      </trkpt>
      <trkpt lat="47.507213" lon="8.021061">
        <ele>346.756253</ele>
        <time>2021-11-21T07:36:48.362Z</time>
      </trkpt>
      <trkpt lat="47.507007" lon="8.021362">
        <ele>347.449942</ele>
        <time>2021-11-21T07:36:55.932Z</time>
      </trkpt>
      <trkpt lat="47.506949" lon="8.021459">
        <ele>347.659663</ele>
        <time>2021-11-21T07:36:58.198Z</time>
      </trkpt>
      <trkpt lat="47.506910" lon="8.021529">
        <ele>347.806561</ele>
        <time>2021-11-21T07:36:59.698Z</time>
      </trkpt>
      <trkpt lat="47.506867" lon="8.021604">
        <ele>347.965819</ele>
        <time>2021-11-21T07:37:01.552Z</time>
      </trkpt>
      <trkpt lat="47.506735" lon="8.021861">
        <ele>348.488497</ele>
        <time>2021-11-21T07:37:07.434Z</time>
      </trkpt>
      <trkpt lat="47.506678" lon="8.022015">
        <ele>348.772787</ele>
        <time>2021-11-21T07:37:10.465Z</time>
      </trkpt>
      <trkpt lat="47.506655" lon="8.022123">
        <ele>348.956116</ele>
        <time>2021-11-21T07:37:12.582Z</time>
      </trkpt>
      <trkpt lat="47.506621" lon="8.022234">
        <ele>349.134583</ele>
        <time>2021-11-21T07:37:14.658Z</time>
      </trkpt>
      <trkpt lat="47.506535" lon="8.022414">
        <ele>349.452148</ele>
        <time>2021-11-21T07:37:18.233Z</time>
      </trkpt>
      <trkpt lat="47.506468" lon="8.022553">
        <ele>349.698107</ele>
        <time>2021-11-21T07:37:21.212Z</time>
      </trkpt>
      <trkpt lat="47.506258" lon="8.022985">
        <ele>350.464723</ele>
        <time>2021-11-21T07:37:29.898Z</time>
      </trkpt>
      <trkpt lat="47.506232" lon="8.023038">
        <ele>350.559071</ele>
        <time>2021-11-21T07:37:30.940Z</time>
      </trkpt>
      <trkpt lat="47.506199" lon="8.023103">
        <ele>350.676190</ele>
        <time>2021-11-21T07:37:32.228Z</time>
      </trkpt>
      <trkpt lat="47.505883" lon="8.023827">
        <ele>351.917779</ele>
        <time>2021-11-21T07:37:45.625Z</time>
      </trkpt>
      <trkpt lat="47.505697" lon="8.024216">
        <ele>352.604257</ele>
        <time>2021-11-21T07:37:52.715Z</time>
      </trkpt>
      <trkpt lat="47.505612" lon="8.024383">
        <ele>352.857771</ele>
        <time>2021-11-21T07:37:55.829Z</time>
      </trkpt>
      <trkpt lat="47.505559" lon="8.024486">
        <ele>352.942824</ele>
        <time>2021-11-21T07:37:57.587Z</time>
      </trkpt>
      <trkpt lat="47.505192" lon="8.025207">
        <ele>353.535849</ele>
        <time>2021-11-21T07:38:09.483Z</time>
      </trkpt>
      <trkpt lat="47.504823" lon="8.026024">
        <ele>354.181438</ele>
        <time>2021-11-21T07:38:21.414Z</time>
      </trkpt>
      <trkpt lat="47.504760" lon="8.026163">
        <ele>354.291395</ele>
        <time>2021-11-21T07:38:23.400Z</time>
      </trkpt>
      <trkpt lat="47.504725" lon="8.026244">
        <ele>354.354558</ele>
        <time>2021-11-21T07:38:24.653Z</time>
      </trkpt>
      <trkpt lat="47.504704" lon="8.026294">
        <ele>354.393233</ele>
        <time>2021-11-21T07:38:25.303Z</time>
      </trkpt>
      <trkpt lat="47.504676" lon="8.026276">
        <ele>354.422918</ele>
        <time>2021-11-21T07:38:25.812Z</time>
      </trkpt>
      <trkpt lat="47.504602" lon="8.026299">
        <ele>354.496446</ele>
        <time>2021-11-21T07:38:27.056Z</time>
      </trkpt>
      <trkpt lat="47.504574" lon="8.026349">
        <ele>354.539110</ele>
        <time>2021-11-21T07:38:27.787Z</time>
      </trkpt>
      <trkpt lat="47.504566" lon="8.026393">
        <ele>354.567959</ele>
        <time>2021-11-21T07:38:28.342Z</time>
      </trkpt>
      <trkpt lat="47.504579" lon="8.026477">
        <ele>354.596661</ele>
        <time>2021-11-21T07:38:29.272Z</time>
      </trkpt>
      <trkpt lat="47.504614" lon="8.026525">
        <ele>354.620184</ele>
        <time>2021-11-21T07:38:30.051Z</time>
      </trkpt>
      <trkpt lat="47.504606" lon="8.026545">
        <ele>354.627925</ele>
        <time>2021-11-21T07:38:30.457Z</time>
      </trkpt>
      <trkpt lat="47.504221" lon="8.027444">
        <ele>354.982440</ele>
        <time>2021-11-21T07:38:41.990Z</time>
      </trkpt>
      <trkpt lat="47.504063" lon="8.027828">
        <ele>355.132190</ele>
        <time>2021-11-21T07:38:46.891Z</time>
      </trkpt>
      <trkpt lat="47.503672" lon="8.028775">
        <ele>355.549063</ele>
        <time>2021-11-21T07:38:59.810Z</time>
      </trkpt>
      <trkpt lat="47.503617" lon="8.028907">
        <ele>355.651303</ele>
        <time>2021-11-21T07:39:01.663Z</time>
      </trkpt>
      <trkpt lat="47.503408" lon="8.029412">
        <ele>356.041725</ele>
        <time>2021-11-21T07:39:08.960Z</time>
      </trkpt>
      <trkpt lat="47.503055" lon="8.030264">
        <ele>356.700618</ele>
        <time>2021-11-21T07:39:21.383Z</time>
      </trkpt>
      <trkpt lat="47.502589" lon="8.031477">
        <ele>357.892835</ele>
        <time>2021-11-21T07:39:40.026Z</time>
      </trkpt>
      <trkpt lat="47.502278" lon="8.032378">
        <ele>359.001030</ele>
        <time>2021-11-21T07:39:55.001Z</time>
      </trkpt>
      <trkpt lat="47.502050" lon="8.032952">
        <ele>359.730342</ele>
        <time>2021-11-21T07:40:05.103Z</time>
      </trkpt>
      <trkpt lat="47.501972" lon="8.033162">
        <ele>359.992823</ele>
        <time>2021-11-21T07:40:08.737Z</time>
      </trkpt>
      <trkpt lat="47.501831" lon="8.033540">
        <ele>360.511711</ele>
        <time>2021-11-21T07:40:14.920Z</time>
      </trkpt>
      <trkpt lat="47.501831" lon="8.033540">
        <ele>360.511711</ele>
        <time>2021-11-21T07:40:14.932Z</time>
      </trkpt>
      <trkpt lat="47.501831" lon="8.033540">
        <ele>360.511711</ele>
        <time>2021-11-21T07:40:15.003Z</time>
      </trkpt>
      <trkpt lat="47.501785" lon="8.033665">
        <ele>360.688638</ele>
        <time>2021-11-21T07:40:17.071Z</time>
      </trkpt>
      <trkpt lat="47.501740" lon="8.033640">
        <ele>360.777072</ele>
        <time>2021-11-21T07:40:18.102Z</time>
      </trkpt>
      <trkpt lat="47.501690" lon="8.033644">
        <ele>360.869201</ele>
        <time>2021-11-21T07:40:19.058Z</time>
      </trkpt>
      <trkpt lat="47.501641" lon="8.033681">
        <ele>360.970408</ele>
        <time>2021-11-21T07:40:20.301Z</time>
      </trkpt>
      <trkpt lat="47.501609" lon="8.033741">
        <ele>361.065426</ele>
        <time>2021-11-21T07:40:21.381Z</time>
      </trkpt>
      <trkpt lat="47.501499" lon="8.033681">
        <ele>361.281117</ele>
        <time>2021-11-21T07:40:24.152Z</time>
      </trkpt>
      <trkpt lat="47.501210" lon="8.033684">
        <ele>361.812858</ele>
        <time>2021-11-21T07:40:30.746Z</time>
      </trkpt>
      <trkpt lat="47.501066" lon="8.033753">
        <ele>362.091338</ele>
        <time>2021-11-21T07:40:34.204Z</time>
      </trkpt>
      <trkpt lat="47.500801" lon="8.034059">
        <ele>362.709718</ele>
        <time>2021-11-21T07:40:41.999Z</time>
      </trkpt>
      <trkpt lat="47.500645" lon="8.034361">
        <ele>363.182259</ele>
        <time>2021-11-21T07:40:47.598Z</time>
      </trkpt>
      <trkpt lat="47.500553" lon="8.034618">
        <ele>363.605433</ele>
        <time>2021-11-21T07:40:51.878Z</time>
      </trkpt>
      <trkpt lat="47.500428" lon="8.035006">
        <ele>364.440507</ele>
        <time>2021-11-21T07:40:57.549Z</time>
      </trkpt>
      <trkpt lat="47.500382" lon="8.035149">
        <ele>364.748194</ele>
        <time>2021-11-21T07:40:59.508Z</time>
      </trkpt>
      <trkpt lat="47.500216" lon="8.035877">
        <ele>366.240847</ele>
        <time>2021-11-21T07:41:12.565Z</time>
      </trkpt>
      <trkpt lat="47.500179" lon="8.036039">
        <ele>366.573059</ele>
        <time>2021-11-21T07:41:16.465Z</time>
      </trkpt>
      <trkpt lat="47.500102" lon="8.036513">
        <ele>367.520138</ele>
        <time>2021-11-21T07:41:25.904Z</time>
      </trkpt>
      <trkpt lat="47.500058" lon="8.036692">
        <ele>367.890181</ele>
        <time>2021-11-21T07:41:28.975Z</time>
      </trkpt>
      <trkpt lat="47.499963" lon="8.036789">
        <ele>368.222048</ele>
        <time>2021-11-21T07:41:32.266Z</time>
      </trkpt>
      <trkpt lat="47.499771" lon="8.036897">
        <ele>368.830477</ele>
        <time>2021-11-21T07:41:39.614Z</time>
      </trkpt>
      <trkpt lat="47.499648" lon="8.036940">
        <ele>369.225256</ele>
        <time>2021-11-21T07:41:42.998Z</time>
      </trkpt>
      <trkpt lat="47.499522" lon="8.037002">
        <ele>369.640014</ele>
        <time>2021-11-21T07:41:49.167Z</time>
      </trkpt>
      <trkpt lat="47.498677" lon="8.037354">
        <ele>372.382033</ele>
        <time>2021-11-21T07:42:12.945Z</time>
      </trkpt>
      <trkpt lat="47.498126" lon="8.037627">
        <ele>374.197030</ele>
        <time>2021-11-21T07:42:29.476Z</time>
      </trkpt>
      <trkpt lat="47.497527" lon="8.037971">
        <ele>374.115440</ele>
        <time>2021-11-21T07:42:43.440Z</time>
      </trkpt>
      <trkpt lat="47.496219" lon="8.038857">
        <ele>374.635276</ele>
        <time>2021-11-21T07:43:00.209Z</time>
      </trkpt>
      <trkpt lat="47.495413" lon="8.039424">
        <ele>376.986788</ele>
        <time>2021-11-21T07:43:19.596Z</time>
      </trkpt>
      <trkpt lat="47.494520" lon="8.039948">
        <ele>381.173824</ele>
        <time>2021-11-21T07:43:55.006Z</time>
      </trkpt>
      <trkpt lat="47.493632" lon="8.040450">
        <ele>388.479012</ele>
        <time>2021-11-21T07:44:46.291Z</time>
      </trkpt>
      <trkpt lat="47.493165" lon="8.040632">
        <ele>392.190264</ele>
        <time>2021-11-21T07:45:07.658Z</time>
      </trkpt>
      <trkpt lat="47.492877" lon="8.040697">
        <ele>393.055600</ele>
        <time>2021-11-21T07:45:19.941Z</time>
      </trkpt>
      <trkpt lat="47.492662" lon="8.040732">
        <ele>393.548450</ele>
        <time>2021-11-21T07:45:26.843Z</time>
      </trkpt>
      <trkpt lat="47.491717" lon="8.040838">
        <ele>395.707885</ele>
        <time>2021-11-21T07:45:48.150Z</time>
      </trkpt>
      <trkpt lat="47.490839" lon="8.041082">
        <ele>396.356850</ele>
        <time>2021-11-21T07:45:58.056Z</time>
      </trkpt>
      <trkpt lat="47.490616" lon="8.041172">
        <ele>396.258482</ele>
        <time>2021-11-21T07:46:00.494Z</time>
      </trkpt>
      <trkpt lat="47.490361" lon="8.041316">
        <ele>396.142329</ele>
        <time>2021-11-21T07:46:03.963Z</time>
      </trkpt>
      <trkpt lat="47.490235" lon="8.041413">
        <ele>396.081885</ele>
        <time>2021-11-21T07:46:05.904Z</time>
      </trkpt>
      <trkpt lat="47.489987" lon="8.041601">
        <ele>395.963303</ele>
        <time>2021-11-21T07:46:10.149Z</time>
      </trkpt>
      <trkpt lat="47.489813" lon="8.041741">
        <ele>395.879016</ele>
        <time>2021-11-21T07:46:14.308Z</time>
      </trkpt>
      <trkpt lat="47.489784" lon="8.041770">
        <ele>395.864121</ele>
        <time>2021-11-21T07:46:14.899Z</time>
      </trkpt>
      <trkpt lat="47.489650" lon="8.041908">
        <ele>395.871187</ele>
        <time>2021-11-21T07:46:17.728Z</time>
      </trkpt>
      <trkpt lat="47.488739" lon="8.043034">
        <ele>397.948698</ele>
        <time>2021-11-21T07:46:46.110Z</time>
      </trkpt>
      <trkpt lat="47.488426" lon="8.043370">
        <ele>398.625498</ele>
        <time>2021-11-21T07:46:54.755Z</time>
      </trkpt>
      <trkpt lat="47.488198" lon="8.043608">
        <ele>398.966451</ele>
        <time>2021-11-21T07:47:01.307Z</time>
      </trkpt>
      <trkpt lat="47.488104" lon="8.043686">
        <ele>398.976937</ele>
        <time>2021-11-21T07:47:02.558Z</time>
      </trkpt>
      <trkpt lat="47.487878" lon="8.043871">
        <ele>399.002068</ele>
        <time>2021-11-21T07:47:07.981Z</time>
      </trkpt>
      <trkpt lat="47.487834" lon="8.043908">
        <ele>399.006992</ele>
        <time>2021-11-21T07:47:08.505Z</time>
      </trkpt>
      <trkpt lat="47.487802" lon="8.043934">
        <ele>399.010544</ele>
        <time>2021-11-21T07:47:08.898Z</time>
      </trkpt>
      <trkpt lat="47.487166" lon="8.044335">
        <ele>399.077812</ele>
        <time>2021-11-21T07:47:18.221Z</time>
      </trkpt>
      <trkpt lat="47.487068" lon="8.044398">
        <ele>399.088208</ele>
        <time>2021-11-21T07:47:19.652Z</time>
      </trkpt>
      <trkpt lat="47.486651" lon="8.044683">
        <ele>399.133134</ele>
        <time>2021-11-21T07:47:26.062Z</time>
      </trkpt>
      <trkpt lat="47.486383" lon="8.044953">
        <ele>399.228428</ele>
        <time>2021-11-21T07:47:30.552Z</time>
      </trkpt>
      <trkpt lat="47.486324" lon="8.045034">
        <ele>399.252083</ele>
        <time>2021-11-21T07:47:31.686Z</time>
      </trkpt>
      <trkpt lat="47.486186" lon="8.045223">
        <ele>399.307351</ele>
        <time>2021-11-21T07:47:34.699Z</time>
      </trkpt>
      <trkpt lat="47.486112" lon="8.045358">
        <ele>399.341878</ele>
        <time>2021-11-21T07:47:36.464Z</time>
      </trkpt>
      <trkpt lat="47.486008" lon="8.045547">
        <ele>399.390289</ele>
        <time>2021-11-21T07:47:38.946Z</time>
      </trkpt>
      <trkpt lat="47.485904" lon="8.045811">
        <ele>399.450986</ele>
        <time>2021-11-21T07:47:42.060Z</time>
      </trkpt>
      <trkpt lat="47.485879" lon="8.045875">
        <ele>399.465669</ele>
        <time>2021-11-21T07:47:42.808Z</time>
      </trkpt>
      <trkpt lat="47.485757" lon="8.046283">
        <ele>399.554288</ele>
        <time>2021-11-21T07:47:48.178Z</time>
      </trkpt>
      <trkpt lat="47.485521" lon="8.047198">
        <ele>399.994709</ele>
        <time>2021-11-21T07:48:00.566Z</time>
      </trkpt>
      <trkpt lat="47.485457" lon="8.047448">
        <ele>400.197259</ele>
        <time>2021-11-21T07:48:03.716Z</time>
      </trkpt>
      <trkpt lat="47.485348" lon="8.047826">
        <ele>400.508639</ele>
        <time>2021-11-21T07:48:08.684Z</time>
      </trkpt>
      <trkpt lat="47.485152" lon="8.048506">
        <ele>401.068758</ele>
        <time>2021-11-21T07:48:17.770Z</time>
      </trkpt>
      <trkpt lat="47.485058" lon="8.048854">
        <ele>401.352708</ele>
        <time>2021-11-21T07:48:22.665Z</time>
      </trkpt>
      <trkpt lat="47.485027" lon="8.048970">
        <ele>401.447220</ele>
        <time>2021-11-21T07:48:24.847Z</time>
      </trkpt>
      <trkpt lat="47.484909" lon="8.049404">
        <ele>401.964883</ele>
        <time>2021-11-21T07:48:31.683Z</time>
      </trkpt>
      <trkpt lat="47.484770" lon="8.049870">
        <ele>402.860356</ele>
        <time>2021-11-21T07:48:39.636Z</time>
      </trkpt>
      <trkpt lat="47.484700" lon="8.050131">
        <ele>403.354004</ele>
        <time>2021-11-21T07:48:44.251Z</time>
      </trkpt>
      <trkpt lat="47.484549" lon="8.050568">
        <ele>404.216846</ele>
        <time>2021-11-21T07:48:52.507Z</time>
      </trkpt>
      <trkpt lat="47.484363" lon="8.050966">
        <ele>405.067537</ele>
        <time>2021-11-21T07:49:01.058Z</time>
      </trkpt>
      <trkpt lat="47.484138" lon="8.051330">
        <ele>405.934763</ele>
        <time>2021-11-21T07:49:09.689Z</time>
      </trkpt>
      <trkpt lat="47.483872" lon="8.051697">
        <ele>406.964032</ele>
        <time>2021-11-21T07:49:19.816Z</time>
      </trkpt>
      <trkpt lat="47.483624" lon="8.052017">
        <ele>407.955918</ele>
        <time>2021-11-21T07:49:30.591Z</time>
      </trkpt>
      <trkpt lat="47.483451" lon="8.052218">
        <ele>408.618962</ele>
        <time>2021-11-21T07:49:37.915Z</time>
      </trkpt>
      <trkpt lat="47.482970" lon="8.052591">
        <ele>410.255953</ele>
        <time>2021-11-21T07:49:52.759Z</time>
      </trkpt>
      <trkpt lat="47.482613" lon="8.052715">
        <ele>411.361360</ele>
        <time>2021-11-21T07:50:01.142Z</time>
      </trkpt>
      <trkpt lat="47.482462" lon="8.052727">
        <ele>411.787994</ele>
        <time>2021-11-21T07:50:04.322Z</time>
      </trkpt>
      <trkpt lat="47.482349" lon="8.052735">
        <ele>411.868839</ele>
        <time>2021-11-21T07:50:07.094Z</time>
      </trkpt>
      <trkpt lat="47.481881" lon="8.052687">
        <ele>412.204087</ele>
        <time>2021-11-21T07:50:16.303Z</time>
      </trkpt>
      <trkpt lat="47.481505" lon="8.052618">
        <ele>412.474845</ele>
        <time>2021-11-21T07:50:22.813Z</time>
      </trkpt>
      <trkpt lat="47.481460" lon="8.052611">
        <ele>412.507180</ele>
        <time>2021-11-21T07:50:23.243Z</time>
      </trkpt>
      <trkpt lat="47.480567" lon="8.052481">
        <ele>413.083964</ele>
        <time>2021-11-21T07:50:39.149Z</time>
      </trkpt>
      <trkpt lat="47.480495" lon="8.052470">
        <ele>413.096066</ele>
        <time>2021-11-21T07:50:40.058Z</time>
      </trkpt>
      <trkpt lat="47.480400" lon="8.052455">
        <ele>413.112039</ele>
        <time>2021-11-21T07:50:41.015Z</time>
      </trkpt>
      <trkpt lat="47.480382" lon="8.052453">
        <ele>413.115057</ele>
        <time>2021-11-21T07:50:41.250Z</time>
      </trkpt>
      <trkpt lat="47.479929" lon="8.052381">
        <ele>413.191230</ele>
        <time>2021-11-21T07:50:47.853Z</time>
      </trkpt>
      <trkpt lat="47.479686" lon="8.052283">
        <ele>413.233340</ele>
        <time>2021-11-21T07:50:51.204Z</time>
      </trkpt>
      <trkpt lat="47.479583" lon="8.052216">
        <ele>413.252151</ele>
        <time>2021-11-21T07:50:53.894Z</time>
      </trkpt>
      <trkpt lat="47.479417" lon="8.052077">
        <ele>413.284041</ele>
        <time>2021-11-21T07:50:56.447Z</time>
      </trkpt>
      <trkpt lat="47.479245" lon="8.051933">
        <ele>413.317082</ele>
        <time>2021-11-21T07:51:00.411Z</time>
      </trkpt>
      <trkpt lat="47.478764" lon="8.051342">
        <ele>413.358339</ele>
        <time>2021-11-21T07:51:10.985Z</time>
      </trkpt>
      <trkpt lat="47.478162" lon="8.050827">
        <ele>413.344673</ele>
        <time>2021-11-21T07:51:21.515Z</time>
      </trkpt>
      <trkpt lat="47.477651" lon="8.050602">
        <ele>413.334196</ele>
        <time>2021-11-21T07:51:28.578Z</time>
      </trkpt>
      <trkpt lat="47.477294" lon="8.050539">
        <ele>413.405686</ele>
        <time>2021-11-21T07:51:33.414Z</time>
      </trkpt>
      <trkpt lat="47.476860" lon="8.050513">
        <ele>413.663575</ele>
        <time>2021-11-21T07:51:39.333Z</time>
      </trkpt>
      <trkpt lat="47.476449" lon="8.050502">
        <ele>413.907638</ele>
        <time>2021-11-21T07:51:45.554Z</time>
      </trkpt>
      <trkpt lat="47.475715" lon="8.050478">
        <ele>414.343540</ele>
        <time>2021-11-21T07:52:01.854Z</time>
      </trkpt>
      <trkpt lat="47.475357" lon="8.050458">
        <ele>414.870957</ele>
        <time>2021-11-21T07:52:09.344Z</time>
      </trkpt>
      <trkpt lat="47.475284" lon="8.050458">
        <ele>415.000252</ele>
        <time>2021-11-21T07:52:10.164Z</time>
      </trkpt>
      <trkpt lat="47.475253" lon="8.050461">
        <ele>415.055276</ele>
        <time>2021-11-21T07:52:10.492Z</time>
      </trkpt>
      <trkpt lat="47.475144" lon="8.050466">
        <ele>415.248426</ele>
        <time>2021-11-21T07:52:11.638Z</time>
      </trkpt>
      <trkpt lat="47.474929" lon="8.050514">
        <ele>415.633537</ele>
        <time>2021-11-21T07:52:19.075Z</time>
      </trkpt>
      <trkpt lat="47.474798" lon="8.050543">
        <ele>415.868143</ele>
        <time>2021-11-21T07:52:20.468Z</time>
      </trkpt>
      <trkpt lat="47.474739" lon="8.050556">
        <ele>415.973794</ele>
        <time>2021-11-21T07:52:21.150Z</time>
      </trkpt>
      <trkpt lat="47.474655" lon="8.050582">
        <ele>416.125793</ele>
        <time>2021-11-21T07:52:27.394Z</time>
      </trkpt>
      <trkpt lat="47.474369" lon="8.050670">
        <ele>416.643185</ele>
        <time>2021-11-21T07:52:30.909Z</time>
      </trkpt>
      <trkpt lat="47.474254" lon="8.050712">
        <ele>416.852983</ele>
        <time>2021-11-21T07:52:36.689Z</time>
      </trkpt>
      <trkpt lat="47.474067" lon="8.050782">
        <ele>417.194628</ele>
        <time>2021-11-21T07:52:38.839Z</time>
      </trkpt>
      <trkpt lat="47.474013" lon="8.050809">
        <ele>417.295586</ele>
        <time>2021-11-21T07:52:40.895Z</time>
      </trkpt>
      <trkpt lat="47.473944" lon="8.050844">
        <ele>417.424780</ele>
        <time>2021-11-21T07:52:45.623Z</time>
      </trkpt>
      <trkpt lat="47.473006" lon="8.051614">
        <ele>419.188865</ele>
        <time>2021-11-21T07:53:06.228Z</time>
      </trkpt>
      <trkpt lat="47.472803" lon="8.051811">
        <ele>419.585313</ele>
        <time>2021-11-21T07:53:11.798Z</time>
      </trkpt>
      <trkpt lat="47.472623" lon="8.052001">
        <ele>419.946395</ele>
        <time>2021-11-21T07:53:16.694Z</time>
      </trkpt>
      <trkpt lat="47.472429" lon="8.052206">
        <ele>420.335704</ele>
        <time>2021-11-21T07:53:21.834Z</time>
      </trkpt>
      <trkpt lat="47.472031" lon="8.052625">
        <ele>421.102738</ele>
        <time>2021-11-21T07:53:31.966Z</time>
      </trkpt>
      <trkpt lat="47.471962" lon="8.052697">
        <ele>421.233727</ele>
        <time>2021-11-21T07:53:34.009Z</time>
      </trkpt>
      <trkpt lat="47.471695" lon="8.052974">
        <ele>421.739629</ele>
        <time>2021-11-21T07:53:40.571Z</time>
      </trkpt>
      <trkpt lat="47.471653" lon="8.053017">
        <ele>421.818865</ele>
        <time>2021-11-21T07:53:42.074Z</time>
      </trkpt>
      <trkpt lat="47.471281" lon="8.053367">
        <ele>422.502781</ele>
        <time>2021-11-21T07:53:50.950Z</time>
      </trkpt>
      <trkpt lat="47.470975" lon="8.053567">
        <ele>423.021751</ele>
        <time>2021-11-21T07:53:57.961Z</time>
      </trkpt>
      <trkpt lat="47.470388" lon="8.053827">
        <ele>423.976871</ele>
        <time>2021-11-21T07:54:10.743Z</time>
      </trkpt>
      <trkpt lat="47.470221" lon="8.053859">
        <ele>424.239904</ele>
        <time>2021-11-21T07:54:14.532Z</time>
      </trkpt>
      <trkpt lat="47.470146" lon="8.053870">
        <ele>424.357628</ele>
        <time>2021-11-21T07:54:16.193Z</time>
      </trkpt>
      <trkpt lat="47.470035" lon="8.053870">
        <ele>424.531009</ele>
        <time>2021-11-21T07:54:18.522Z</time>
      </trkpt>
      <trkpt lat="47.469912" lon="8.053834">
        <ele>424.726859</ele>
        <time>2021-11-21T07:54:21.104Z</time>
      </trkpt>
      <trkpt lat="47.469816" lon="8.053809">
        <ele>424.879116</ele>
        <time>2021-11-21T07:54:23.042Z</time>
      </trkpt>
      <trkpt lat="47.469768" lon="8.053784">
        <ele>424.958603</ele>
        <time>2021-11-21T07:54:24.444Z</time>
      </trkpt>
      <trkpt lat="47.468916" lon="8.053225">
        <ele>426.520912</ele>
        <time>2021-11-21T07:54:43.632Z</time>
      </trkpt>
      <trkpt lat="47.468638" lon="8.053071">
        <ele>427.152335</ele>
        <time>2021-11-21T07:54:49.813Z</time>
      </trkpt>
      <trkpt lat="47.468134" lon="8.052813">
        <ele>428.286746</ele>
        <time>2021-11-21T07:55:01.724Z</time>
      </trkpt>
      <trkpt lat="47.467479" lon="8.052348">
        <ele>429.832105</ele>
        <time>2021-11-21T07:55:20.154Z</time>
      </trkpt>
      <trkpt lat="47.467177" lon="8.052075">
        <ele>430.892926</ele>
        <time>2021-11-21T07:55:29.593Z</time>
      </trkpt>
      <trkpt lat="47.466793" lon="8.051728">
        <ele>432.311424</ele>
        <time>2021-11-21T07:55:41.629Z</time>
      </trkpt>
      <trkpt lat="47.466507" lon="8.051581">
        <ele>433.265872</ele>
        <time>2021-11-21T07:55:49.530Z</time>
      </trkpt>
      <trkpt lat="47.466297" lon="8.051497">
        <ele>433.951642</ele>
        <time>2021-11-21T07:55:55.924Z</time>
      </trkpt>
      <trkpt lat="47.465552" lon="8.051201">
        <ele>436.511265</ele>
        <time>2021-11-21T07:56:18.145Z</time>
      </trkpt>
      <trkpt lat="47.465219" lon="8.050945">
        <ele>437.891423</ele>
        <time>2021-11-21T07:56:28.828Z</time>
      </trkpt>
      <trkpt lat="47.464876" lon="8.050495">
        <ele>439.577506</ele>
        <time>2021-11-21T07:56:41.807Z</time>
      </trkpt>
      <trkpt lat="47.464428" lon="8.050024">
        <ele>441.598830</ele>
        <time>2021-11-21T07:56:57.120Z</time>
      </trkpt>
      <trkpt lat="47.462932" lon="8.048714">
        <ele>449.748461</ele>
        <time>2021-11-21T07:57:58.399Z</time>
      </trkpt>
      <trkpt lat="47.462793" lon="8.048637">
        <ele>450.460696</ele>
        <time>2021-11-21T07:58:04.130Z</time>
      </trkpt>
      <trkpt lat="47.462760" lon="8.048615">
        <ele>450.634388</ele>
        <time>2021-11-21T07:58:05.454Z</time>
      </trkpt>
      <trkpt lat="47.462692" lon="8.048578">
        <ele>450.953122</ele>
        <time>2021-11-21T07:58:07.601Z</time>
      </trkpt>
      <trkpt lat="47.462404" lon="8.048445">
        <ele>452.053546</ele>
        <time>2021-11-21T07:58:17.485Z</time>
      </trkpt>
      <trkpt lat="47.462251" lon="8.048378">
        <ele>452.635523</ele>
        <time>2021-11-21T07:58:21.333Z</time>
      </trkpt>
      <trkpt lat="47.461466" lon="8.048031">
        <ele>455.623766</ele>
        <time>2021-11-21T07:58:45.195Z</time>
      </trkpt>
      <trkpt lat="47.461083" lon="8.047963">
        <ele>457.030704</ele>
        <time>2021-11-21T07:58:54.827Z</time>
      </trkpt>
      <trkpt lat="47.460776" lon="8.047954">
        <ele>458.307752</ele>
        <time>2021-11-21T07:59:03.208Z</time>
      </trkpt>
      <trkpt lat="47.460608" lon="8.047981">
        <ele>459.056928</ele>
        <time>2021-11-21T07:59:07.349Z</time>
      </trkpt>
      <trkpt lat="47.460570" lon="8.047988">
        <ele>459.226695</ele>
        <time>2021-11-21T07:59:09.314Z</time>
      </trkpt>
      <trkpt lat="47.460132" lon="8.048201">
        <ele>461.270738</ele>
        <time>2021-11-21T07:59:24.615Z</time>
      </trkpt>
      <trkpt lat="47.460107" lon="8.048213">
        <ele>461.387260</ele>
        <time>2021-11-21T07:59:25.632Z</time>
      </trkpt>
      <trkpt lat="47.459740" lon="8.048503">
        <ele>463.231917</ele>
        <time>2021-11-21T07:59:40.686Z</time>
      </trkpt>
      <trkpt lat="47.459655" lon="8.048568">
        <ele>463.656133</ele>
        <time>2021-11-21T07:59:43.418Z</time>
      </trkpt>
      <trkpt lat="47.459546" lon="8.048650">
        <ele>464.198278</ele>
        <time>2021-11-21T07:59:48.237Z</time>
      </trkpt>
      <trkpt lat="47.459403" lon="8.048721">
        <ele>464.867005</ele>
        <time>2021-11-21T07:59:53.100Z</time>
      </trkpt>
      <trkpt lat="47.459227" lon="8.048808">
        <ele>465.627759</ele>
        <time>2021-11-21T07:59:59.614Z</time>
      </trkpt>
      <trkpt lat="47.459118" lon="8.048828">
        <ele>466.012188</ele>
        <time>2021-11-21T08:00:03.347Z</time>
      </trkpt>
      <trkpt lat="47.459071" lon="8.048837">
        <ele>466.178063</ele>
        <time>2021-11-21T08:00:05.355Z</time>
      </trkpt>
      <trkpt lat="47.458765" lon="8.048904">
        <ele>467.260749</ele>
        <time>2021-11-21T08:00:15.063Z</time>
      </trkpt>
      <trkpt lat="47.458490" lon="8.048954">
        <ele>468.230507</ele>
        <time>2021-11-21T08:00:23.919Z</time>
      </trkpt>
      <trkpt lat="47.458266" lon="8.048995">
        <ele>469.020498</ele>
        <time>2021-11-21T08:00:30.170Z</time>
      </trkpt>
      <trkpt lat="47.458176" lon="8.049041">
        <ele>469.353781</ele>
        <time>2021-11-21T08:00:32.829Z</time>
      </trkpt>
      <trkpt lat="47.457845" lon="8.049210">
        <ele>470.579385</ele>
        <time>2021-11-21T08:00:41.776Z</time>
      </trkpt>
      <trkpt lat="47.457577" lon="8.049600">
        <ele>471.833413</ele>
        <time>2021-11-21T08:00:51.372Z</time>
      </trkpt>
      <trkpt lat="47.457433" lon="8.049943">
        <ele>472.499625</ele>
        <time>2021-11-21T08:00:56.919Z</time>
      </trkpt>
      <trkpt lat="47.457227" lon="8.050454">
        <ele>473.481325</ele>
        <time>2021-11-21T08:01:04.998Z</time>
      </trkpt>
      <trkpt lat="47.457063" lon="8.050750">
        <ele>474.112796</ele>
        <time>2021-11-21T08:01:11.647Z</time>
      </trkpt>
      <trkpt lat="47.456935" lon="8.050906">
        <ele>474.517574</ele>
        <time>2021-11-21T08:01:15.517Z</time>
      </trkpt>
      <trkpt lat="47.456820" lon="8.051046">
        <ele>474.881079</ele>
        <time>2021-11-21T08:01:19.368Z</time>
      </trkpt>
      <trkpt lat="47.456563" lon="8.051295">
        <ele>475.630882</ele>
        <time>2021-11-21T08:01:27.520Z</time>
      </trkpt>
      <trkpt lat="47.456114" lon="8.051697">
        <ele>477.142048</ele>
        <time>2021-11-21T08:01:41.934Z</time>
      </trkpt>
      <trkpt lat="47.455980" lon="8.051817">
        <ele>477.630221</ele>
        <time>2021-11-21T08:01:47.095Z</time>
      </trkpt>
      <trkpt lat="47.455912" lon="8.051878">
        <ele>477.878065</ele>
        <time>2021-11-21T08:01:49.325Z</time>
      </trkpt>
      <trkpt lat="47.455674" lon="8.052090">
        <ele>478.743884</ele>
        <time>2021-11-21T08:01:57.294Z</time>
      </trkpt>
      <trkpt lat="47.455435" lon="8.052304">
        <ele>479.614550</ele>
        <time>2021-11-21T08:02:04.446Z</time>
      </trkpt>
      <trkpt lat="47.455278" lon="8.052443">
        <ele>480.184780</ele>
        <time>2021-11-21T08:02:09.676Z</time>
      </trkpt>
      <trkpt lat="47.455102" lon="8.052621">
        <ele>480.849234</ele>
        <time>2021-11-21T08:02:15.525Z</time>
      </trkpt>
      <trkpt lat="47.455021" lon="8.052703">
        <ele>481.155129</ele>
        <time>2021-11-21T08:02:18.036Z</time>
      </trkpt>
      <trkpt lat="47.454740" lon="8.053121">
        <ele>482.517752</ele>
        <time>2021-11-21T08:02:28.597Z</time>
      </trkpt>
      <trkpt lat="47.454599" lon="8.053302">
        <ele>483.198196</ele>
        <time>2021-11-21T08:02:33.088Z</time>
      </trkpt>
      <trkpt lat="47.454280" lon="8.053495">
        <ele>484.454294</ele>
        <time>2021-11-21T08:02:41.455Z</time>
      </trkpt>
      <trkpt lat="47.454190" lon="8.053504">
        <ele>484.783042</ele>
        <time>2021-11-21T08:02:44.158Z</time>
      </trkpt>
      <trkpt lat="47.454007" lon="8.053484">
        <ele>485.451793</ele>
        <time>2021-11-21T08:02:50.106Z</time>
      </trkpt>
      <trkpt lat="47.453588" lon="8.053338">
        <ele>487.020625</ele>
        <time>2021-11-21T08:03:02.074Z</time>
      </trkpt>
      <trkpt lat="47.453160" lon="8.053216">
        <ele>489.011671</ele>
        <time>2021-11-21T08:03:16.894Z</time>
      </trkpt>
      <trkpt lat="47.452870" lon="8.053142">
        <ele>491.255359</ele>
        <time>2021-11-21T08:03:28.532Z</time>
      </trkpt>
      <trkpt lat="47.452771" lon="8.053113">
        <ele>492.024819</ele>
        <time>2021-11-21T08:03:32.475Z</time>
      </trkpt>
      <trkpt lat="47.452592" lon="8.053064">
        <ele>493.412734</ele>
        <time>2021-11-21T08:03:40.523Z</time>
      </trkpt>
      <trkpt lat="47.452030" lon="8.052767">
        <ele>497.962901</ele>
        <time>2021-11-21T08:04:07.636Z</time>
      </trkpt>
      <trkpt lat="47.451728" lon="8.052549">
        <ele>500.525070</ele>
        <time>2021-11-21T08:04:25.642Z</time>
      </trkpt>
      <trkpt lat="47.451546" lon="8.052392">
        <ele>502.173914</ele>
        <time>2021-11-21T08:04:36.715Z</time>
      </trkpt>
      <trkpt lat="47.451164" lon="8.052019">
        <ele>506.496826</ele>
        <time>2021-11-21T08:05:03.193Z</time>
      </trkpt>
      <trkpt lat="47.450757" lon="8.051663">
        <ele>510.962404</ele>
        <time>2021-11-21T08:05:29.586Z</time>
      </trkpt>
      <trkpt lat="47.450592" lon="8.051537">
        <ele>512.716095</ele>
        <time>2021-11-21T08:05:39.566Z</time>
      </trkpt>
      <trkpt lat="47.450504" lon="8.051491">
        <ele>513.597527</ele>
        <time>2021-11-21T08:05:45.026Z</time>
      </trkpt>
      <trkpt lat="47.450344" lon="8.051426">
        <ele>515.164490</ele>
        <time>2021-11-21T08:05:53.136Z</time>
      </trkpt>
      <trkpt lat="47.450074" lon="8.051371">
        <ele>517.738351</ele>
        <time>2021-11-21T08:06:06.674Z</time>
      </trkpt>
      <trkpt lat="47.449886" lon="8.051364">
        <ele>519.263921</ele>
        <time>2021-11-21T08:06:15.416Z</time>
      </trkpt>
      <trkpt lat="47.449613" lon="8.051437">
        <ele>520.742566</ele>
        <time>2021-11-21T08:06:28.828Z</time>
      </trkpt>
      <trkpt lat="47.449059" lon="8.051793">
        <ele>523.962046</ele>
        <time>2021-11-21T08:06:52.612Z</time>
      </trkpt>
      <trkpt lat="47.448673" lon="8.052159">
        <ele>526.405975</ele>
        <time>2021-11-21T08:07:06.971Z</time>
      </trkpt>
      <trkpt lat="47.448435" lon="8.052444">
        <ele>528.038246</ele>
        <time>2021-11-21T08:07:15.295Z</time>
      </trkpt>
      <trkpt lat="47.447987" lon="8.053132">
        <ele>528.712147</ele>
        <time>2021-11-21T08:07:30.532Z</time>
      </trkpt>
      <trkpt lat="47.447919" lon="8.053237">
        <ele>528.745159</ele>
        <time>2021-11-21T08:07:33.067Z</time>
      </trkpt>
      <trkpt lat="47.447679" lon="8.053483">
        <ele>528.843212</ele>
        <time>2021-11-21T08:07:38.419Z</time>
      </trkpt>
      <trkpt lat="47.447302" lon="8.053642">
        <ele>528.974848</ele>
        <time>2021-11-21T08:07:43.697Z</time>
      </trkpt>
      <trkpt lat="47.446540" lon="8.053621">
        <ele>528.926583</ele>
        <time>2021-11-21T08:07:51.794Z</time>
      </trkpt>
      <trkpt lat="47.446453" lon="8.053638">
        <ele>528.867143</ele>
        <time>2021-11-21T08:07:52.693Z</time>
      </trkpt>
      <trkpt lat="47.446269" lon="8.053688">
        <ele>528.740428</ele>
        <time>2021-11-21T08:07:54.673Z</time>
      </trkpt>
      <trkpt lat="47.446146" lon="8.053729">
        <ele>528.655026</ele>
        <time>2021-11-21T08:07:56.093Z</time>
      </trkpt>
      <trkpt lat="47.446043" lon="8.053773">
        <ele>528.582408</ele>
        <time>2021-11-21T08:07:57.174Z</time>
      </trkpt>
      <trkpt lat="47.445607" lon="8.054011">
        <ele>528.267613</ele>
        <time>2021-11-21T08:08:03.347Z</time>
      </trkpt>
      <trkpt lat="47.445482" lon="8.054086">
        <ele>528.176242</ele>
        <time>2021-11-21T08:08:05.599Z</time>
      </trkpt>
      <trkpt lat="47.445453" lon="8.054023">
        <ele>528.141333</ele>
        <time>2021-11-21T08:08:06.495Z</time>
      </trkpt>
      <trkpt lat="47.445416" lon="8.053837">
        <ele>528.052522</ele>
        <time>2021-11-21T08:08:09.974Z</time>
      </trkpt>
      <trkpt lat="47.445402" lon="8.053798">
        <ele>528.032297</ele>
        <time>2021-11-21T08:08:10.425Z</time>
      </trkpt>
      <trkpt lat="47.445351" lon="8.053710">
        <ele>527.979210</ele>
        <time>2021-11-21T08:08:12.300Z</time>
      </trkpt>
      <trkpt lat="47.445252" lon="8.053552">
        <ele>528.223008</ele>
        <time>2021-11-21T08:08:16.030Z</time>
      </trkpt>
      <trkpt lat="47.445146" lon="8.053366">
        <ele>529.337512</ele>
        <time>2021-11-21T08:08:20.532Z</time>
      </trkpt>
      <trkpt lat="47.445090" lon="8.052871">
        <ele>531.637144</ele>
        <time>2021-11-21T08:08:32.037Z</time>
      </trkpt>
      <trkpt lat="47.445074" lon="8.052566">
        <ele>533.038869</ele>
        <time>2021-11-21T08:08:41.080Z</time>
      </trkpt>
      <trkpt lat="47.445068" lon="8.052423">
        <ele>533.695363</ele>
        <time>2021-11-21T08:08:46.159Z</time>
      </trkpt>
      <trkpt lat="47.445027" lon="8.051806">
        <ele>536.536107</ele>
        <time>2021-11-21T08:09:06.298Z</time>
      </trkpt>
      <trkpt lat="47.444849" lon="8.050837">
        <ele>541.513782</ele>
        <time>2021-11-21T08:09:52.933Z</time>
      </trkpt>
      <trkpt lat="47.444592" lon="8.050411">
        <ele>545.077959</ele>
        <time>2021-11-21T08:10:18.640Z</time>
      </trkpt>
      <trkpt lat="47.444085" lon="8.049867">
        <ele>550.861013</ele>
        <time>2021-11-21T08:10:52.436Z</time>
      </trkpt>
      <trkpt lat="47.443870" lon="8.049556">
        <ele>553.637712</ele>
        <time>2021-11-21T08:11:08.645Z</time>
      </trkpt>
      <trkpt lat="47.443701" lon="8.049281">
        <ele>555.957679</ele>
        <time>2021-11-21T08:11:22.212Z</time>
      </trkpt>
      <trkpt lat="47.443362" lon="8.049045">
        <ele>559.006206</ele>
        <time>2021-11-21T08:11:40.876Z</time>
      </trkpt>
      <trkpt lat="47.443158" lon="8.048931">
        <ele>560.714941</ele>
        <time>2021-11-21T08:11:51.338Z</time>
      </trkpt>
      <trkpt lat="47.443001" lon="8.048852">
        <ele>562.014353</ele>
        <time>2021-11-21T08:11:59.973Z</time>
      </trkpt>
      <trkpt lat="47.442907" lon="8.048806">
        <ele>562.790155</ele>
        <time>2021-11-21T08:12:03.717Z</time>
      </trkpt>
      <trkpt lat="47.442821" lon="8.048812">
        <ele>563.464734</ele>
        <time>2021-11-21T08:12:09.311Z</time>
      </trkpt>
      <trkpt lat="47.442585" lon="8.048777">
        <ele>565.323125</ele>
        <time>2021-11-21T08:12:21.990Z</time>
      </trkpt>
      <trkpt lat="47.442502" lon="8.048654">
        <ele>566.243866</ele>
        <time>2021-11-21T08:12:27.939Z</time>
      </trkpt>
      <trkpt lat="47.442486" lon="8.048592">
        <ele>566.595521</ele>
        <time>2021-11-21T08:12:31.016Z</time>
      </trkpt>
      <trkpt lat="47.442433" lon="8.048394">
        <ele>567.723951</ele>
        <time>2021-11-21T08:12:36.320Z</time>
      </trkpt>
      <trkpt lat="47.442402" lon="8.048296">
        <ele>568.297268</ele>
        <time>2021-11-21T08:12:38.649Z</time>
      </trkpt>
      <trkpt lat="47.442359" lon="8.048158">
        <ele>569.102437</ele>
        <time>2021-11-21T08:12:44.720Z</time>
      </trkpt>
      <trkpt lat="47.442152" lon="8.047782">
        <ele>571.960142</ele>
        <time>2021-11-21T08:13:00.623Z</time>
      </trkpt>
      <trkpt lat="47.442099" lon="8.047710">
        <ele>572.709794</ele>
        <time>2021-11-21T08:13:06.158Z</time>
      </trkpt>
      <trkpt lat="47.441607" lon="8.047055">
        <ele>579.605442</ele>
        <time>2021-11-21T08:13:47.200Z</time>
      </trkpt>
      <trkpt lat="47.441395" lon="8.046867">
        <ele>582.180249</ele>
        <time>2021-11-21T08:14:03.838Z</time>
      </trkpt>
      <trkpt lat="47.441214" lon="8.046845">
        <ele>584.071823</ele>
        <time>2021-11-21T08:14:14.942Z</time>
      </trkpt>
      <trkpt lat="47.441083" lon="8.047030">
        <ele>585.958650</ele>
        <time>2021-11-21T08:14:27.431Z</time>
      </trkpt>
      <trkpt lat="47.441070" lon="8.047297">
        <ele>587.844409</ele>
        <time>2021-11-21T08:14:38.656Z</time>
      </trkpt>
      <trkpt lat="47.441101" lon="8.047518">
        <ele>589.434382</ele>
        <time>2021-11-21T08:14:50.559Z</time>
      </trkpt>
      <trkpt lat="47.441111" lon="8.047603">
        <ele>589.958141</ele>
        <time>2021-11-21T08:14:53.494Z</time>
      </trkpt>
      <trkpt lat="47.441184" lon="8.048045">
        <ele>592.638229</ele>
        <time>2021-11-21T08:15:14.063Z</time>
      </trkpt>
      <trkpt lat="47.441251" lon="8.048495">
        <ele>595.352403</ele>
        <time>2021-11-21T08:15:32.733Z</time>
      </trkpt>
      <trkpt lat="47.441251" lon="8.048636">
        <ele>596.182957</ele>
        <time>2021-11-21T08:15:37.714Z</time>
      </trkpt>
      <trkpt lat="47.441241" lon="8.048812">
        <ele>597.223329</ele>
        <time>2021-11-21T08:15:43.720Z</time>
      </trkpt>
      <trkpt lat="47.441246" lon="8.048959">
        <ele>598.090320</ele>
        <time>2021-11-21T08:15:50.031Z</time>
      </trkpt>
      <trkpt lat="47.441249" lon="8.049256">
        <ele>599.839981</ele>
        <time>2021-11-21T08:16:00.231Z</time>
      </trkpt>
      <trkpt lat="47.441263" lon="8.049374">
        <ele>600.545668</ele>
        <time>2021-11-21T08:16:04.526Z</time>
      </trkpt>
      <trkpt lat="47.441292" lon="8.049633">
        <ele>602.092060</ele>
        <time>2021-11-21T08:16:15.081Z</time>
      </trkpt>
      <trkpt lat="47.441325" lon="8.049981">
        <ele>604.161986</ele>
        <time>2021-11-21T08:16:25.457Z</time>
      </trkpt>
      <trkpt lat="47.441337" lon="8.050223">
        <ele>605.452363</ele>
        <time>2021-11-21T08:16:31.889Z</time>
      </trkpt>
      <trkpt lat="47.441344" lon="8.050444">
        <ele>606.299708</ele>
        <time>2021-11-21T08:16:38.911Z</time>
      </trkpt>
      <trkpt lat="47.441203" lon="8.051883">
        <ele>611.868538</ele>
        <time>2021-11-21T08:17:17.638Z</time>
      </trkpt>
      <trkpt lat="47.441147" lon="8.052030">
        <ele>612.514705</ele>
        <time>2021-11-21T08:17:22.858Z</time>
      </trkpt>
      <trkpt lat="47.440363" lon="8.052886">
        <ele>618.473397</ele>
        <time>2021-11-21T08:18:06.523Z</time>
      </trkpt>
      <trkpt lat="47.440104" lon="8.052955">
        <ele>620.210590</ele>
        <time>2021-11-21T08:18:19.471Z</time>
      </trkpt>
      <trkpt lat="47.440048" lon="8.052946">
        <ele>620.582424</ele>
        <time>2021-11-21T08:18:21.470Z</time>
      </trkpt>
      <trkpt lat="47.439973" lon="8.052886">
        <ele>621.145327</ele>
        <time>2021-11-21T08:18:27.208Z</time>
      </trkpt>
      <trkpt lat="47.439655" lon="8.052611">
        <ele>623.577151</ele>
        <time>2021-11-21T08:18:44.857Z</time>
      </trkpt>
      <trkpt lat="47.439496" lon="8.052532">
        <ele>624.684392</ele>
        <time>2021-11-21T08:18:52.802Z</time>
      </trkpt>
      <trkpt lat="47.439347" lon="8.052576">
        <ele>625.687369</ele>
        <time>2021-11-21T08:18:59.388Z</time>
      </trkpt>
      <trkpt lat="47.439310" lon="8.052587">
        <ele>625.936495</ele>
        <time>2021-11-21T08:19:01.933Z</time>
      </trkpt>
      <trkpt lat="47.438819" lon="8.052811">
        <ele>627.899730</ele>
        <time>2021-11-21T08:19:25.866Z</time>
      </trkpt>
      <trkpt lat="47.437993" lon="8.053212">
        <ele>629.689664</ele>
        <time>2021-11-21T08:19:55.041Z</time>
      </trkpt>
      <trkpt lat="47.437337" lon="8.053510">
        <ele>630.612453</ele>
        <time>2021-11-21T08:20:06.192Z</time>
      </trkpt>
      <trkpt lat="47.437239" lon="8.053622">
        <ele>630.018939</ele>
        <time>2021-11-21T08:20:07.941Z</time>
      </trkpt>
      <trkpt lat="47.437198" lon="8.053711">
        <ele>629.669946</ele>
        <time>2021-11-21T08:20:09.880Z</time>
      </trkpt>
      <trkpt lat="47.437088" lon="8.053781">
        <ele>629.096124</ele>
        <time>2021-11-21T08:20:13.561Z</time>
      </trkpt>
      <trkpt lat="47.436404" lon="8.053907">
        <ele>625.793368</ele>
        <time>2021-11-21T08:20:32.474Z</time>
      </trkpt>
      <trkpt lat="47.436048" lon="8.054058">
        <ele>624.018764</ele>
        <time>2021-11-21T08:20:42.303Z</time>
      </trkpt>
      <trkpt lat="47.435779" lon="8.054244">
        <ele>622.595830</ele>
        <time>2021-11-21T08:20:49.917Z</time>
      </trkpt>
      <trkpt lat="47.435567" lon="8.054391">
        <ele>621.628875</ele>
        <time>2021-11-21T08:20:56.313Z</time>
      </trkpt>
      <trkpt lat="47.435439" lon="8.054480">
        <ele>621.072842</ele>
        <time>2021-11-21T08:21:00.118Z</time>
      </trkpt>
      <trkpt lat="47.434981" lon="8.054775">
        <ele>619.109018</ele>
        <time>2021-11-21T08:21:14.012Z</time>
      </trkpt>
      <trkpt lat="47.434901" lon="8.054857">
        <ele>618.726350</ele>
        <time>2021-11-21T08:21:16.520Z</time>
      </trkpt>
      <trkpt lat="47.434756" lon="8.055006">
        <ele>618.032196</ele>
        <time>2021-11-21T08:21:21.535Z</time>
      </trkpt>
      <trkpt lat="47.434702" lon="8.055133">
        <ele>617.633328</ele>
        <time>2021-11-21T08:21:24.533Z</time>
      </trkpt>
      <trkpt lat="47.434642" lon="8.055248">
        <ele>617.247151</ele>
        <time>2021-11-21T08:21:27.144Z</time>
      </trkpt>
      <trkpt lat="47.433901" lon="8.057503">
        <ele>616.434770</ele>
        <time>2021-11-21T08:22:25.125Z</time>
      </trkpt>
      <trkpt lat="47.433702" lon="8.058613">
        <ele>618.353566</ele>
        <time>2021-11-21T08:23:07.024Z</time>
      </trkpt>
      <trkpt lat="47.433695" lon="8.058973">
        <ele>620.249937</ele>
        <time>2021-11-21T08:23:18.805Z</time>
      </trkpt>
      <trkpt lat="47.433610" lon="8.059053">
        <ele>621.034301</ele>
        <time>2021-11-21T08:23:28.864Z</time>
      </trkpt>
      <trkpt lat="47.433732" lon="8.059869">
        <ele>625.434667</ele>
        <time>2021-11-21T08:23:51.990Z</time>
      </trkpt>
      <trkpt lat="47.433818" lon="8.060443">
        <ele>628.530322</ele>
        <time>2021-11-21T08:24:13.902Z</time>
      </trkpt>
      <trkpt lat="47.433730" lon="8.060519">
        <ele>629.323653</ele>
        <time>2021-11-21T08:24:23.529Z</time>
      </trkpt>
      <trkpt lat="47.433691" lon="8.060591">
        <ele>629.809340</ele>
        <time>2021-11-21T08:24:25.889Z</time>
      </trkpt>
      <trkpt lat="47.433563" lon="8.061773">
        <ele>636.779200</ele>
        <time>2021-11-21T08:25:10.018Z</time>
      </trkpt>
      <trkpt lat="47.433539" lon="8.061973">
        <ele>637.989066</ele>
        <time>2021-11-21T08:25:18.976Z</time>
      </trkpt>
      <trkpt lat="47.433432" lon="8.063843">
        <ele>647.804930</ele>
        <time>2021-11-21T08:26:17.761Z</time>
      </trkpt>
      <trkpt lat="47.433334" lon="8.064796">
        <ele>650.144932</ele>
        <time>2021-11-21T08:26:37.080Z</time>
      </trkpt>
      <trkpt lat="47.433334" lon="8.064968">
        <ele>650.562465</ele>
        <time>2021-11-21T08:26:39.542Z</time>
      </trkpt>
      <trkpt lat="47.433401" lon="8.065135">
        <ele>651.033799</ele>
        <time>2021-11-21T08:26:41.275Z</time>
      </trkpt>
      <trkpt lat="47.433554" lon="8.065256">
        <ele>651.656490</ele>
        <time>2021-11-21T08:26:46.345Z</time>
      </trkpt>
      <trkpt lat="47.433766" lon="8.065315">
        <ele>652.430643</ele>
        <time>2021-11-21T08:26:50.126Z</time>
      </trkpt>
      <trkpt lat="47.434017" lon="8.065303">
        <ele>653.323871</ele>
        <time>2021-11-21T08:26:56.207Z</time>
      </trkpt>
      <trkpt lat="47.434745" lon="8.065087">
        <ele>653.720067</ele>
        <time>2021-11-21T08:27:13.137Z</time>
      </trkpt>
      <trkpt lat="47.434794" lon="8.065101">
        <ele>653.746697</ele>
        <time>2021-11-21T08:27:13.630Z</time>
      </trkpt>
      <trkpt lat="47.434850" lon="8.065142">
        <ele>653.780041</ele>
        <time>2021-11-21T08:27:16.519Z</time>
      </trkpt>
      <trkpt lat="47.435011" lon="8.065633">
        <ele>653.976983</ele>
        <time>2021-11-21T08:27:23.389Z</time>
      </trkpt>
      <trkpt lat="47.435134" lon="8.066208">
        <ele>654.194649</ele>
        <time>2021-11-21T08:27:28.245Z</time>
      </trkpt>
      <trkpt lat="47.435171" lon="8.066354">
        <ele>654.250921</ele>
        <time>2021-11-21T08:27:29.293Z</time>
      </trkpt>
      <trkpt lat="47.435246" lon="8.066744">
        <ele>653.357587</ele>
        <time>2021-11-21T08:27:32.520Z</time>
      </trkpt>
      <trkpt lat="47.435269" lon="8.066847">
        <ele>653.042976</ele>
        <time>2021-11-21T08:27:33.213Z</time>
      </trkpt>
      <trkpt lat="47.435328" lon="8.067121">
        <ele>652.208942</ele>
        <time>2021-11-21T08:27:35.382Z</time>
      </trkpt>
      <trkpt lat="47.435431" lon="8.067627">
        <ele>650.676273</ele>
        <time>2021-11-21T08:27:39.012Z</time>
      </trkpt>
      <trkpt lat="47.435503" lon="8.067966">
        <ele>649.645674</ele>
        <time>2021-11-21T08:27:41.259Z</time>
      </trkpt>
      <trkpt lat="47.435676" lon="8.068459">
        <ele>648.034763</ele>
        <time>2021-11-21T08:27:44.730Z</time>
      </trkpt>
      <trkpt lat="47.436622" lon="8.069777">
        <ele>640.451322</ele>
        <time>2021-11-21T08:27:56.489Z</time>
      </trkpt>
      <trkpt lat="47.436652" lon="8.069782">
        <ele>640.258554</ele>
        <time>2021-11-21T08:27:56.738Z</time>
      </trkpt>
      <trkpt lat="47.436686" lon="8.069773">
        <ele>640.038005</ele>
        <time>2021-11-21T08:27:58.645Z</time>
      </trkpt>
      <trkpt lat="47.437121" lon="8.068991">
        <ele>635.665162</ele>
        <time>2021-11-21T08:28:04.866Z</time>
      </trkpt>
      <trkpt lat="47.437380" lon="8.068624">
        <ele>632.935791</ele>
        <time>2021-11-21T08:28:08.147Z</time>
      </trkpt>
      <trkpt lat="47.437549" lon="8.068492">
        <ele>631.402364</ele>
        <time>2021-11-21T08:28:10.041Z</time>
      </trkpt>
      <trkpt lat="47.437876" lon="8.068472">
        <ele>628.776684</ele>
        <time>2021-11-21T08:28:12.997Z</time>
      </trkpt>
      <trkpt lat="47.438250" lon="8.068552">
        <ele>625.744937</ele>
        <time>2021-11-21T08:28:16.270Z</time>
      </trkpt>
      <trkpt lat="47.438419" lon="8.068754">
        <ele>624.001424</ele>
        <time>2021-11-21T08:28:18.131Z</time>
      </trkpt>
      <trkpt lat="47.438641" lon="8.069393">
        <ele>620.034065</ele>
        <time>2021-11-21T08:28:22.349Z</time>
      </trkpt>
      <trkpt lat="47.438715" lon="8.070016">
        <ele>616.171061</ele>
        <time>2021-11-21T08:28:26.072Z</time>
      </trkpt>
      <trkpt lat="47.438717" lon="8.070139">
        <ele>615.419660</ele>
        <time>2021-11-21T08:28:26.757Z</time>
      </trkpt>
      <trkpt lat="47.438717" lon="8.070261">
        <ele>614.674584</ele>
        <time>2021-11-21T08:28:27.504Z</time>
      </trkpt>
      <trkpt lat="47.438717" lon="8.070432">
        <ele>613.630255</ele>
        <time>2021-11-21T08:28:28.533Z</time>
      </trkpt>
      <trkpt lat="47.438733" lon="8.071591">
        <ele>606.550552</ele>
        <time>2021-11-21T08:28:35.352Z</time>
      </trkpt>
      <trkpt lat="47.438761" lon="8.072680">
        <ele>600.951623</ele>
        <time>2021-11-21T08:28:41.845Z</time>
      </trkpt>
      <trkpt lat="47.438769" lon="8.073159">
        <ele>598.709507</ele>
        <time>2021-11-21T08:28:44.847Z</time>
      </trkpt>
      <trkpt lat="47.438802" lon="8.076162">
        <ele>585.617118</ele>
        <time>2021-11-21T08:29:03.299Z</time>
      </trkpt>
      <trkpt lat="47.438808" lon="8.076440">
        <ele>584.486684</ele>
        <time>2021-11-21T08:29:05.023Z</time>
      </trkpt>
      <trkpt lat="47.438854" lon="8.077729">
        <ele>579.478368</ele>
        <time>2021-11-21T08:29:13.210Z</time>
      </trkpt>
      <trkpt lat="47.438862" lon="8.078789">
        <ele>575.702847</ele>
        <time>2021-11-21T08:29:19.905Z</time>
      </trkpt>
      <trkpt lat="47.438840" lon="8.079017">
        <ele>574.882583</ele>
        <time>2021-11-21T08:29:21.411Z</time>
      </trkpt>
      <trkpt lat="47.438811" lon="8.079350">
        <ele>573.686783</ele>
        <time>2021-11-21T08:29:23.545Z</time>
      </trkpt>
      <trkpt lat="47.438733" lon="8.079954">
        <ele>571.445339</ele>
        <time>2021-11-21T08:29:27.465Z</time>
      </trkpt>
      <trkpt lat="47.438632" lon="8.080671">
        <ele>568.150745</ele>
        <time>2021-11-21T08:29:32.000Z</time>
      </trkpt>
      <trkpt lat="47.438547" lon="8.081275">
        <ele>565.375490</ele>
        <time>2021-11-21T08:29:35.787Z</time>
      </trkpt>
      <trkpt lat="47.438436" lon="8.082004">
        <ele>562.014042</ele>
        <time>2021-11-21T08:29:40.296Z</time>
      </trkpt>
      <trkpt lat="47.438326" lon="8.082717">
        <ele>558.715808</ele>
        <time>2021-11-21T08:29:44.676Z</time>
      </trkpt>
      <trkpt lat="47.438164" lon="8.083842">
        <ele>553.498128</ele>
        <time>2021-11-21T08:29:51.697Z</time>
      </trkpt>
      <trkpt lat="47.438112" lon="8.083945">
        <ele>552.915089</ele>
        <time>2021-11-21T08:29:52.456Z</time>
      </trkpt>
      <trkpt lat="47.438031" lon="8.083992">
        <ele>552.331510</ele>
        <time>2021-11-21T08:29:53.237Z</time>
      </trkpt>
      <trkpt lat="47.437975" lon="8.083964">
        <ele>551.935041</ele>
        <time>2021-11-21T08:29:53.773Z</time>
      </trkpt>
      <trkpt lat="47.437860" lon="8.083715">
        <ele>550.567302</ele>
        <time>2021-11-21T08:29:55.653Z</time>
      </trkpt>
      <trkpt lat="47.437557" lon="8.082140">
        <ele>543.721344</ele>
        <time>2021-11-21T08:30:05.851Z</time>
      </trkpt>
      <trkpt lat="47.437503" lon="8.081856">
        <ele>542.555151</ele>
        <time>2021-11-21T08:30:07.622Z</time>
      </trkpt>
      <trkpt lat="47.437387" lon="8.081264">
        <ele>540.118696</ele>
        <time>2021-11-21T08:30:11.604Z</time>
      </trkpt>
      <trkpt lat="47.437258" lon="8.080640">
        <ele>537.539316</ele>
        <time>2021-11-21T08:30:15.742Z</time>
      </trkpt>
      <trkpt lat="47.437232" lon="8.080595">
        <ele>537.305361</ele>
        <time>2021-11-21T08:30:16.099Z</time>
      </trkpt>
      <trkpt lat="47.437191" lon="8.080569">
        <ele>537.021421</ele>
        <time>2021-11-21T08:30:16.506Z</time>
      </trkpt>
      <trkpt lat="47.437125" lon="8.080553">
        <ele>536.548257</ele>
        <time>2021-11-21T08:30:17.122Z</time>
      </trkpt>
      <trkpt lat="47.437072" lon="8.080572">
        <ele>536.162433</ele>
        <time>2021-11-21T08:30:17.582Z</time>
      </trkpt>
      <trkpt lat="47.436847" lon="8.080902">
        <ele>533.920210</ele>
        <time>2021-11-21T08:30:20.505Z</time>
      </trkpt>
      <trkpt lat="47.436780" lon="8.081213">
        <ele>532.358310</ele>
        <time>2021-11-21T08:30:22.499Z</time>
      </trkpt>
      <trkpt lat="47.436742" lon="8.083751">
        <ele>519.624893</ele>
        <time>2021-11-21T08:30:37.758Z</time>
      </trkpt>
      <trkpt lat="47.436840" lon="8.084846">
        <ele>513.606222</ele>
        <time>2021-11-21T08:30:44.322Z</time>
      </trkpt>
      <trkpt lat="47.436921" lon="8.085388">
        <ele>510.581636</ele>
        <time>2021-11-21T08:30:47.625Z</time>
      </trkpt>
      <trkpt lat="47.437083" lon="8.086303">
        <ele>505.842552</ele>
        <time>2021-11-21T08:30:53.280Z</time>
      </trkpt>
      <trkpt lat="47.437206" lon="8.087000">
        <ele>502.278204</ele>
        <time>2021-11-21T08:30:57.610Z</time>
      </trkpt>
      <trkpt lat="47.437526" lon="8.088839">
        <ele>493.212833</ele>
        <time>2021-11-21T08:31:09.244Z</time>
      </trkpt>
      <trkpt lat="47.437566" lon="8.089464">
        <ele>490.369758</ele>
        <time>2021-11-21T08:31:13.089Z</time>
      </trkpt>
      <trkpt lat="47.437543" lon="8.090167">
        <ele>487.182365</ele>
        <time>2021-11-21T08:31:17.419Z</time>
      </trkpt>
      <trkpt lat="47.437512" lon="8.090475">
        <ele>485.772169</ele>
        <time>2021-11-21T08:31:19.302Z</time>
      </trkpt>
      <trkpt lat="47.437449" lon="8.091081">
        <ele>482.972708</ele>
        <time>2021-11-21T08:31:23.042Z</time>
      </trkpt>
      <trkpt lat="47.437327" lon="8.092095">
        <ele>478.247435</ele>
        <time>2021-11-21T08:31:29.255Z</time>
      </trkpt>
      <trkpt lat="47.436956" lon="8.093402">
        <ele>471.895806</ele>
        <time>2021-11-21T08:31:37.949Z</time>
      </trkpt>
      <trkpt lat="47.436880" lon="8.093951">
        <ele>469.814701</ele>
        <time>2021-11-21T08:31:41.457Z</time>
      </trkpt>
      <trkpt lat="47.436840" lon="8.094305">
        <ele>468.481818</ele>
        <time>2021-11-21T08:31:43.708Z</time>
      </trkpt>
      <trkpt lat="47.436605" lon="8.095337">
        <ele>464.437870</ele>
        <time>2021-11-21T08:31:50.587Z</time>
      </trkpt>
      <trkpt lat="47.436535" lon="8.095602">
        <ele>463.381340</ele>
        <time>2021-11-21T08:31:52.372Z</time>
      </trkpt>
      <trkpt lat="47.436422" lon="8.096087">
        <ele>461.664043</ele>
        <time>2021-11-21T08:31:55.682Z</time>
      </trkpt>
      <trkpt lat="47.436349" lon="8.096291">
        <ele>460.942397</ele>
        <time>2021-11-21T08:31:57.234Z</time>
      </trkpt>
      <trkpt lat="47.436266" lon="8.096607">
        <ele>459.882423</ele>
        <time>2021-11-21T08:31:59.369Z</time>
      </trkpt>
      <trkpt lat="47.436208" lon="8.096829">
        <ele>459.138275</ele>
        <time>2021-11-21T08:32:00.999Z</time>
      </trkpt>
      <trkpt lat="47.436163" lon="8.097026">
        <ele>458.488102</ele>
        <time>2021-11-21T08:32:02.268Z</time>
      </trkpt>
      <trkpt lat="47.436091" lon="8.097832">
        <ele>455.945947</ele>
        <time>2021-11-21T08:32:07.550Z</time>
      </trkpt>
      <trkpt lat="47.436131" lon="8.098445">
        <ele>454.098198</ele>
        <time>2021-11-21T08:32:11.621Z</time>
      </trkpt>
      <trkpt lat="47.436142" lon="8.098546">
        <ele>453.854015</ele>
        <time>2021-11-21T08:32:12.239Z</time>
      </trkpt>
      <trkpt lat="47.436150" lon="8.098616">
        <ele>453.684563</ele>
        <time>2021-11-21T08:32:12.678Z</time>
      </trkpt>
      <trkpt lat="47.436248" lon="8.099120">
        <ele>452.432841</ele>
        <time>2021-11-21T08:32:16.152Z</time>
      </trkpt>
      <trkpt lat="47.436315" lon="8.099419">
        <ele>451.681014</ele>
        <time>2021-11-21T08:32:18.455Z</time>
      </trkpt>
      <trkpt lat="47.436383" lon="8.099657">
        <ele>451.064331</ele>
        <time>2021-11-21T08:32:20.124Z</time>
      </trkpt>
      <trkpt lat="47.436476" lon="8.099978">
        <ele>450.230812</ele>
        <time>2021-11-21T08:32:22.652Z</time>
      </trkpt>
      <trkpt lat="47.436585" lon="8.100263">
        <ele>449.449335</ele>
        <time>2021-11-21T08:32:24.833Z</time>
      </trkpt>
      <trkpt lat="47.436647" lon="8.100422">
        <ele>449.011272</ele>
        <time>2021-11-21T08:32:26.181Z</time>
      </trkpt>
      <trkpt lat="47.436711" lon="8.100563">
        <ele>448.605968</ele>
        <time>2021-11-21T08:32:27.238Z</time>
      </trkpt>
      <trkpt lat="47.437205" lon="8.101657">
        <ele>445.823249</ele>
        <time>2021-11-21T08:32:36.496Z</time>
      </trkpt>
      <trkpt lat="47.437641" lon="8.102393">
        <ele>443.816678</ele>
        <time>2021-11-21T08:32:43.281Z</time>
      </trkpt>
      <trkpt lat="47.437770" lon="8.102600">
        <ele>443.239412</ele>
        <time>2021-11-21T08:32:45.178Z</time>
      </trkpt>
      <trkpt lat="47.437904" lon="8.102800">
        <ele>442.662055</ele>
        <time>2021-11-21T08:32:47.220Z</time>
      </trkpt>
      <trkpt lat="47.438112" lon="8.103073">
        <ele>441.783188</ele>
        <time>2021-11-21T08:32:49.993Z</time>
      </trkpt>
      <trkpt lat="47.438137" lon="8.103139">
        <ele>441.620502</ele>
        <time>2021-11-21T08:32:50.537Z</time>
      </trkpt>
      <trkpt lat="47.438152" lon="8.103203">
        <ele>441.474831</ele>
        <time>2021-11-21T08:32:51.010Z</time>
      </trkpt>
      <trkpt lat="47.438169" lon="8.103294">
        <ele>441.271793</ele>
        <time>2021-11-21T08:32:51.632Z</time>
      </trkpt>
      <trkpt lat="47.438182" lon="8.103370">
        <ele>441.103198</ele>
        <time>2021-11-21T08:32:52.168Z</time>
      </trkpt>
      <trkpt lat="47.438218" lon="8.103493">
        <ele>440.814964</ele>
        <time>2021-11-21T08:32:53.039Z</time>
      </trkpt>
      <trkpt lat="47.438319" lon="8.103594">
        <ele>440.427259</ele>
        <time>2021-11-21T08:32:54.356Z</time>
      </trkpt>
      <trkpt lat="47.438435" lon="8.103708">
        <ele>439.984369</ele>
        <time>2021-11-21T08:32:55.708Z</time>
      </trkpt>
      <trkpt lat="47.438510" lon="8.103795">
        <ele>439.681256</ele>
        <time>2021-11-21T08:32:56.618Z</time>
      </trkpt>
      <trkpt lat="47.438624" lon="8.103965">
        <ele>439.166416</ele>
        <time>2021-11-21T08:32:58.305Z</time>
      </trkpt>
      <trkpt lat="47.438636" lon="8.104004">
        <ele>439.074271</ele>
        <time>2021-11-21T08:32:58.582Z</time>
      </trkpt>
      <trkpt lat="47.438698" lon="8.104222">
        <ele>438.565672</ele>
        <time>2021-11-21T08:33:00.141Z</time>
      </trkpt>
      <trkpt lat="47.438764" lon="8.104599">
        <ele>437.728166</ele>
        <time>2021-11-21T08:33:02.901Z</time>
      </trkpt>
      <trkpt lat="47.438760" lon="8.104786">
        <ele>437.325797</ele>
        <time>2021-11-21T08:33:04.165Z</time>
      </trkpt>
      <trkpt lat="47.438736" lon="8.105033">
        <ele>436.796030</ele>
        <time>2021-11-21T08:33:05.968Z</time>
      </trkpt>
      <trkpt lat="47.438700" lon="8.105458">
        <ele>436.031252</ele>
        <time>2021-11-21T08:33:09.041Z</time>
      </trkpt>
      <trkpt lat="47.438707" lon="8.105651">
        <ele>435.686149</ele>
        <time>2021-11-21T08:33:10.464Z</time>
      </trkpt>
      <trkpt lat="47.438729" lon="8.105870">
        <ele>435.290829</ele>
        <time>2021-11-21T08:33:12.023Z</time>
      </trkpt>
      <trkpt lat="47.438752" lon="8.106005">
        <ele>435.042253</ele>
        <time>2021-11-21T08:33:13.088Z</time>
      </trkpt>
      <trkpt lat="47.438818" lon="8.106296">
        <ele>434.494231</ele>
        <time>2021-11-21T08:33:15.189Z</time>
      </trkpt>
      <trkpt lat="47.438874" lon="8.106523">
        <ele>434.062798</ele>
        <time>2021-11-21T08:33:16.956Z</time>
      </trkpt>
      <trkpt lat="47.438899" lon="8.106626">
        <ele>433.867406</ele>
        <time>2021-11-21T08:33:17.755Z</time>
      </trkpt>
      <trkpt lat="47.438974" lon="8.106907">
        <ele>433.328023</ele>
        <time>2021-11-21T08:33:19.843Z</time>
      </trkpt>
      <trkpt lat="47.439207" lon="8.107635">
        <ele>431.863018</ele>
        <time>2021-11-21T08:33:25.564Z</time>
      </trkpt>
      <trkpt lat="47.439314" lon="8.107942">
        <ele>431.159588</ele>
        <time>2021-11-21T08:33:27.992Z</time>
      </trkpt>
      <trkpt lat="47.439446" lon="8.108296">
        <ele>430.336257</ele>
        <time>2021-11-21T08:33:30.861Z</time>
      </trkpt>
      <trkpt lat="47.439529" lon="8.108595">
        <ele>429.677966</ele>
        <time>2021-11-21T08:33:33.191Z</time>
      </trkpt>
      <trkpt lat="47.439627" lon="8.109005">
        <ele>428.792278</ele>
        <time>2021-11-21T08:33:36.158Z</time>
      </trkpt>
      <trkpt lat="47.439736" lon="8.109646">
        <ele>427.446080</ele>
        <time>2021-11-21T08:33:40.679Z</time>
      </trkpt>
      <trkpt lat="47.439783" lon="8.110028">
        <ele>426.654363</ele>
        <time>2021-11-21T08:33:43.276Z</time>
      </trkpt>
      <trkpt lat="47.439797" lon="8.110143">
        <ele>426.394895</ele>
        <time>2021-11-21T08:33:44.073Z</time>
      </trkpt>
      <trkpt lat="47.439868" lon="8.110864">
        <ele>424.776986</ele>
        <time>2021-11-21T08:33:49.024Z</time>
      </trkpt>
      <trkpt lat="47.439893" lon="8.111132">
        <ele>424.176241</ele>
        <time>2021-11-21T08:33:50.842Z</time>
      </trkpt>
      <trkpt lat="47.440053" lon="8.112608">
        <ele>420.856865</ele>
        <time>2021-11-21T08:34:01.063Z</time>
      </trkpt>
      <trkpt lat="47.440229" lon="8.113672">
        <ele>419.110806</ele>
        <time>2021-11-21T08:34:08.668Z</time>
      </trkpt>
      <trkpt lat="47.440342" lon="8.114157">
        <ele>418.306413</ele>
        <time>2021-11-21T08:34:12.448Z</time>
      </trkpt>
      <trkpt lat="47.440342" lon="8.114157">
        <ele>418.306413</ele>
        <time>2021-11-21T08:34:12.454Z</time>
      </trkpt>
      <trkpt lat="47.440417" lon="8.114455">
        <ele>417.807813</ele>
        <time>2021-11-21T08:34:14.829Z</time>
      </trkpt>
      <trkpt lat="47.440589" lon="8.115040">
        <ele>416.807545</ele>
        <time>2021-11-21T08:34:19.662Z</time>
      </trkpt>
      <trkpt lat="47.441002" lon="8.116649">
        <ele>415.477388</ele>
        <time>2021-11-21T08:34:33.599Z</time>
      </trkpt>
      <trkpt lat="47.441126" lon="8.117583">
        <ele>414.808056</ele>
        <time>2021-11-21T08:34:41.826Z</time>
      </trkpt>
      <trkpt lat="47.441143" lon="8.117969">
        <ele>414.588516</ele>
        <time>2021-11-21T08:34:45.107Z</time>
      </trkpt>
      <trkpt lat="47.441143" lon="8.117969">
        <ele>414.588516</ele>
        <time>2021-11-21T08:34:45.109Z</time>
      </trkpt>
      <trkpt lat="47.441143" lon="8.117969">
        <ele>414.588516</ele>
        <time>2021-11-21T08:34:45.129Z</time>
      </trkpt>
      <trkpt lat="47.441151" lon="8.118249">
        <ele>414.447657</ele>
        <time>2021-11-21T08:34:47.500Z</time>
      </trkpt>
      <trkpt lat="47.441160" lon="8.118632">
        <ele>414.255039</ele>
        <time>2021-11-21T08:34:50.957Z</time>
      </trkpt>
      <trkpt lat="47.441161" lon="8.118889">
        <ele>414.125864</ele>
        <time>2021-11-21T08:34:53.205Z</time>
      </trkpt>
      <trkpt lat="47.441148" lon="8.119325">
        <ele>413.906510</ele>
        <time>2021-11-21T08:34:57.101Z</time>
      </trkpt>
      <trkpt lat="47.441139" lon="8.120050">
        <ele>413.542051</ele>
        <time>2021-11-21T08:35:03.340Z</time>
      </trkpt>
      <trkpt lat="47.441147" lon="8.120369">
        <ele>413.381316</ele>
        <time>2021-11-21T08:35:06.012Z</time>
      </trkpt>
      <trkpt lat="47.441158" lon="8.120592">
        <ele>413.250372</ele>
        <time>2021-11-21T08:35:07.833Z</time>
      </trkpt>
      <trkpt lat="47.441185" lon="8.120992">
        <ele>413.014953</ele>
        <time>2021-11-21T08:35:10.999Z</time>
      </trkpt>
      <trkpt lat="47.441242" lon="8.121608">
        <ele>412.650839</ele>
        <time>2021-11-21T08:35:16.198Z</time>
      </trkpt>
      <trkpt lat="47.441260" lon="8.121851">
        <ele>412.507678</ele>
        <time>2021-11-21T08:35:18.662Z</time>
      </trkpt>
      <trkpt lat="47.441259" lon="8.122119">
        <ele>412.350725</ele>
        <time>2021-11-21T08:35:20.826Z</time>
      </trkpt>
      <trkpt lat="47.441253" lon="8.122860">
        <ele>411.916737</ele>
        <time>2021-11-21T08:35:27.872Z</time>
      </trkpt>
      <trkpt lat="47.441230" lon="8.123139">
        <ele>411.683754</ele>
        <time>2021-11-21T08:35:30.145Z</time>
      </trkpt>
      <trkpt lat="47.441181" lon="8.123600">
        <ele>411.157276</ele>
        <time>2021-11-21T08:35:33.761Z</time>
      </trkpt>
      <trkpt lat="47.441073" lon="8.124657">
        <ele>409.951250</ele>
        <time>2021-11-21T08:35:41.617Z</time>
      </trkpt>
      <trkpt lat="47.441063" lon="8.124846">
        <ele>409.737370</ele>
        <time>2021-11-21T08:35:43.245Z</time>
      </trkpt>
      <trkpt lat="47.441067" lon="8.125024">
        <ele>409.536442</ele>
        <time>2021-11-21T08:35:44.394Z</time>
      </trkpt>
      <trkpt lat="47.441081" lon="8.125303">
        <ele>409.220812</ele>
        <time>2021-11-21T08:35:46.650Z</time>
      </trkpt>
      <trkpt lat="47.441091" lon="8.125443">
        <ele>409.061987</ele>
        <time>2021-11-21T08:35:47.887Z</time>
      </trkpt>
      <trkpt lat="47.441104" lon="8.125606">
        <ele>408.876818</ele>
        <time>2021-11-21T08:35:48.960Z</time>
      </trkpt>
      <trkpt lat="47.441214" lon="8.126456">
        <ele>408.211456</ele>
        <time>2021-11-21T08:35:56.676Z</time>
      </trkpt>
      <trkpt lat="47.441238" lon="8.126576">
        <ele>408.117731</ele>
        <time>2021-11-21T08:35:57.472Z</time>
      </trkpt>
      <trkpt lat="47.441266" lon="8.126867">
        <ele>407.897585</ele>
        <time>2021-11-21T08:36:00.037Z</time>
      </trkpt>
      <trkpt lat="47.441277" lon="8.127183">
        <ele>407.660595</ele>
        <time>2021-11-21T08:36:02.226Z</time>
      </trkpt>
      <trkpt lat="47.441262" lon="8.127516">
        <ele>407.410633</ele>
        <time>2021-11-21T08:36:05.165Z</time>
      </trkpt>
      <trkpt lat="47.441146" lon="8.128500">
        <ele>406.738508</ele>
        <time>2021-11-21T08:36:14.117Z</time>
      </trkpt>
      <trkpt lat="47.440994" lon="8.129640">
        <ele>406.254070</ele>
        <time>2021-11-21T08:36:27.506Z</time>
      </trkpt>
      <trkpt lat="47.440963" lon="8.129769">
        <ele>406.196993</ele>
        <time>2021-11-21T08:36:29.537Z</time>
      </trkpt>
      <trkpt lat="47.440893" lon="8.130143">
        <ele>406.035203</ele>
        <time>2021-11-21T08:36:32.674Z</time>
      </trkpt>
      <trkpt lat="47.440840" lon="8.130427">
        <ele>405.912372</ele>
        <time>2021-11-21T08:36:35.137Z</time>
      </trkpt>
      <trkpt lat="47.440840" lon="8.130492">
        <ele>405.885272</ele>
        <time>2021-11-21T08:36:36.160Z</time>
      </trkpt>
      <trkpt lat="47.440891" lon="8.130708">
        <ele>405.789887</ele>
        <time>2021-11-21T08:36:37.746Z</time>
      </trkpt>
      <trkpt lat="47.440943" lon="8.130809">
        <ele>405.736965</ele>
        <time>2021-11-21T08:36:38.676Z</time>
      </trkpt>
      <trkpt lat="47.440978" lon="8.130862">
        <ele>405.591201</ele>
        <time>2021-11-21T08:36:39.192Z</time>
      </trkpt>
      <trkpt lat="47.441000" lon="8.130897">
        <ele>405.451360</ele>
        <time>2021-11-21T08:36:39.514Z</time>
      </trkpt>
      <trkpt lat="47.441024" lon="8.130926">
        <ele>405.317237</ele>
        <time>2021-11-21T08:36:40.110Z</time>
      </trkpt>
      <trkpt lat="47.441088" lon="8.130997">
        <ele>404.971009</ele>
        <time>2021-11-21T08:36:40.860Z</time>
      </trkpt>
      <trkpt lat="47.441375" lon="8.131552">
        <ele>402.926335</ele>
        <time>2021-11-21T08:36:45.797Z</time>
      </trkpt>
      <trkpt lat="47.441442" lon="8.131718">
        <ele>402.360578</ele>
        <time>2021-11-21T08:36:47.072Z</time>
      </trkpt>
      <trkpt lat="47.441650" lon="8.132354">
        <ele>400.293033</ele>
        <time>2021-11-21T08:36:51.628Z</time>
      </trkpt>
      <trkpt lat="47.441777" lon="8.132790">
        <ele>398.903705</ele>
        <time>2021-11-21T08:36:54.584Z</time>
      </trkpt>
      <trkpt lat="47.442022" lon="8.133657">
        <ele>395.673044</ele>
        <time>2021-11-21T08:37:00.330Z</time>
      </trkpt>
      <trkpt lat="47.442150" lon="8.134033">
        <ele>394.109963</ele>
        <time>2021-11-21T08:37:02.910Z</time>
      </trkpt>
      <trkpt lat="47.442233" lon="8.134253">
        <ele>393.174540</ele>
        <time>2021-11-21T08:37:04.505Z</time>
      </trkpt>
      <trkpt lat="47.442302" lon="8.134411">
        <ele>392.476168</ele>
        <time>2021-11-21T08:37:05.656Z</time>
      </trkpt>
      <trkpt lat="47.442543" lon="8.134882">
        <ele>390.283098</ele>
        <time>2021-11-21T08:37:09.374Z</time>
      </trkpt>
      <trkpt lat="47.442659" lon="8.135081">
        <ele>389.307581</ele>
        <time>2021-11-21T08:37:11.109Z</time>
      </trkpt>
      <trkpt lat="47.442771" lon="8.135257">
        <ele>388.410242</ele>
        <time>2021-11-21T08:37:12.634Z</time>
      </trkpt>
      <trkpt lat="47.443330" lon="8.135975">
        <ele>386.369571</ele>
        <time>2021-11-21T08:37:20.126Z</time>
      </trkpt>
      <trkpt lat="47.443600" lon="8.136309">
        <ele>385.488155</ele>
        <time>2021-11-21T08:37:23.951Z</time>
      </trkpt>
      <trkpt lat="47.443990" lon="8.137008">
        <ele>383.953701</ele>
        <time>2021-11-21T08:37:30.737Z</time>
      </trkpt>
      <trkpt lat="47.444358" lon="8.137486">
        <ele>383.438707</ele>
        <time>2021-11-21T08:37:36.562Z</time>
      </trkpt>
      <trkpt lat="47.444534" lon="8.137663">
        <ele>383.359129</ele>
        <time>2021-11-21T08:37:39.202Z</time>
      </trkpt>
      <trkpt lat="47.444695" lon="8.137798">
        <ele>383.289931</ele>
        <time>2021-11-21T08:37:41.527Z</time>
      </trkpt>
      <trkpt lat="47.444780" lon="8.137842">
        <ele>383.256261</ele>
        <time>2021-11-21T08:37:42.915Z</time>
      </trkpt>
      <trkpt lat="47.444873" lon="8.137885">
        <ele>383.219832</ele>
        <time>2021-11-21T08:37:44.103Z</time>
      </trkpt>
      <trkpt lat="47.445201" lon="8.137885">
        <ele>383.097203</ele>
        <time>2021-11-21T08:37:48.703Z</time>
      </trkpt>
      <trkpt lat="47.445264" lon="8.137860">
        <ele>383.072816</ele>
        <time>2021-11-21T08:37:49.433Z</time>
      </trkpt>
      <trkpt lat="47.445320" lon="8.137827">
        <ele>383.050278</ele>
        <time>2021-11-21T08:37:50.245Z</time>
      </trkpt>
      <trkpt lat="47.445372" lon="8.137789">
        <ele>383.028592</ele>
        <time>2021-11-21T08:37:51.114Z</time>
      </trkpt>
      <trkpt lat="47.445434" lon="8.137740">
        <ele>383.002309</ele>
        <time>2021-11-21T08:37:52.127Z</time>
      </trkpt>
      <trkpt lat="47.445479" lon="8.137706">
        <ele>382.983416</ele>
        <time>2021-11-21T08:37:53.263Z</time>
      </trkpt>
      <trkpt lat="47.445490" lon="8.137703">
        <ele>382.979234</ele>
        <time>2021-11-21T08:37:53.591Z</time>
      </trkpt>
      <trkpt lat="47.445854" lon="8.138048">
        <ele>382.905046</ele>
        <time>2021-11-21T08:38:02.295Z</time>
      </trkpt>
      <trkpt lat="47.446288" lon="8.139006">
        <ele>382.960207</ele>
        <time>2021-11-21T08:38:16.026Z</time>
      </trkpt>
      <trkpt lat="47.446353" lon="8.139246">
        <ele>382.972574</ele>
        <time>2021-11-21T08:38:18.834Z</time>
      </trkpt>
      <trkpt lat="47.446467" lon="8.139635">
        <ele>382.992855</ele>
        <time>2021-11-21T08:38:23.019Z</time>
      </trkpt>
      <trkpt lat="47.446649" lon="8.140082">
        <ele>383.017815</ele>
        <time>2021-11-21T08:38:27.366Z</time>
      </trkpt>
      <trkpt lat="47.446741" lon="8.140284">
        <ele>382.749261</ele>
        <time>2021-11-21T08:38:28.886Z</time>
      </trkpt>
      <trkpt lat="47.446786" lon="8.140421">
        <ele>382.572692</ele>
        <time>2021-11-21T08:38:32.085Z</time>
      </trkpt>
      <trkpt lat="47.446968" lon="8.141232">
        <ele>381.582079</ele>
        <time>2021-11-21T08:38:38.764Z</time>
      </trkpt>
      <trkpt lat="47.446964" lon="8.141309">
        <ele>381.492549</ele>
        <time>2021-11-21T08:38:39.204Z</time>
      </trkpt>
      <trkpt lat="47.447002" lon="8.141359">
        <ele>381.405351</ele>
        <time>2021-11-21T08:38:41.024Z</time>
      </trkpt>
      <trkpt lat="47.447019" lon="8.141408">
        <ele>381.341506</ele>
        <time>2021-11-21T08:38:42.756Z</time>
      </trkpt>
      <trkpt lat="47.447036" lon="8.141500">
        <ele>381.230941</ele>
        <time>2021-11-21T08:38:44.533Z</time>
      </trkpt>
      <trkpt lat="47.447146" lon="8.142030">
        <ele>380.588225</ele>
        <time>2021-11-21T08:38:48.561Z</time>
      </trkpt>
      <trkpt lat="47.447326" lon="8.142499">
        <ele>379.963056</ele>
        <time>2021-11-21T08:38:52.346Z</time>
      </trkpt>
      <trkpt lat="47.447487" lon="8.142754">
        <ele>379.480845</ele>
        <time>2021-11-21T08:38:54.714Z</time>
      </trkpt>
      <trkpt lat="47.447685" lon="8.143057">
        <ele>378.891445</ele>
        <time>2021-11-21T08:38:57.663Z</time>
      </trkpt>
      <trkpt lat="47.447749" lon="8.143138">
        <ele>378.717192</ele>
        <time>2021-11-21T08:38:58.441Z</time>
      </trkpt>
      <trkpt lat="47.447844" lon="8.143229">
        <ele>378.483057</ele>
        <time>2021-11-21T08:39:00.181Z</time>
      </trkpt>
      <trkpt lat="47.448758" lon="8.144072">
        <ele>376.254841</ele>
        <time>2021-11-21T08:39:12.524Z</time>
      </trkpt>
      <trkpt lat="47.448825" lon="8.144132">
        <ele>376.081854</ele>
        <time>2021-11-21T08:39:13.240Z</time>
      </trkpt>
      <trkpt lat="47.448865" lon="8.144173">
        <ele>375.972111</ele>
        <time>2021-11-21T08:39:13.847Z</time>
      </trkpt>
      <trkpt lat="47.449158" lon="8.144473">
        <ele>375.168526</ele>
        <time>2021-11-21T08:39:17.970Z</time>
      </trkpt>
      <trkpt lat="47.449371" lon="8.144692">
        <ele>374.583558</ele>
        <time>2021-11-21T08:39:20.890Z</time>
      </trkpt>
      <trkpt lat="47.450088" lon="8.145488">
        <ele>372.561921</ele>
        <time>2021-11-21T08:39:30.130Z</time>
      </trkpt>
      <trkpt lat="47.450183" lon="8.145603">
        <ele>372.285091</ele>
        <time>2021-11-21T08:39:31.522Z</time>
      </trkpt>
      <trkpt lat="47.450458" lon="8.145913">
        <ele>371.685572</ele>
        <time>2021-11-21T08:39:35.395Z</time>
      </trkpt>
      <trkpt lat="47.450543" lon="8.146003">
        <ele>371.514845</ele>
        <time>2021-11-21T08:39:36.621Z</time>
      </trkpt>
      <trkpt lat="47.450606" lon="8.146053">
        <ele>371.398079</ele>
        <time>2021-11-21T08:39:37.371Z</time>
      </trkpt>
      <trkpt lat="47.450734" lon="8.146121">
        <ele>371.175962</ele>
        <time>2021-11-21T08:39:38.885Z</time>
      </trkpt>
      <trkpt lat="47.451190" lon="8.146311">
        <ele>370.402272</ele>
        <time>2021-11-21T08:39:44.232Z</time>
      </trkpt>
      <trkpt lat="47.451243" lon="8.146335">
        <ele>370.311751</ele>
        <time>2021-11-21T08:39:44.842Z</time>
      </trkpt>
      <trkpt lat="47.451634" lon="8.146522">
        <ele>369.640645</ele>
        <time>2021-11-21T08:39:49.497Z</time>
      </trkpt>
      <trkpt lat="47.451691" lon="8.146552">
        <ele>369.541838</ele>
        <time>2021-11-21T08:39:50.198Z</time>
      </trkpt>
      <trkpt lat="47.451884" lon="8.146651">
        <ele>369.219524</ele>
        <time>2021-11-21T08:39:52.794Z</time>
      </trkpt>
      <trkpt lat="47.452108" lon="8.146759">
        <ele>369.162684</ele>
        <time>2021-11-21T08:39:55.615Z</time>
      </trkpt>
      <trkpt lat="47.452355" lon="8.146865">
        <ele>369.100637</ele>
        <time>2021-11-21T08:39:59.149Z</time>
      </trkpt>
      <trkpt lat="47.452471" lon="8.146900">
        <ele>369.072076</ele>
        <time>2021-11-21T08:40:00.766Z</time>
      </trkpt>
      <trkpt lat="47.453891" lon="8.147120">
        <ele>368.737055</ele>
        <time>2021-11-21T08:40:30.133Z</time>
      </trkpt>
      <trkpt lat="47.454769" lon="8.147346">
        <ele>368.555875</ele>
        <time>2021-11-21T08:40:48.654Z</time>
      </trkpt>
      <trkpt lat="47.455324" lon="8.147772">
        <ele>368.428752</ele>
        <time>2021-11-21T08:41:00.202Z</time>
      </trkpt>
      <trkpt lat="47.455490" lon="8.147964">
        <ele>368.184451</ele>
        <time>2021-11-21T08:41:03.854Z</time>
      </trkpt>
      <trkpt lat="47.455738" lon="8.148275">
        <ele>367.748304</ele>
        <time>2021-11-21T08:41:09.437Z</time>
      </trkpt>
      <trkpt lat="47.455947" lon="8.148517">
        <ele>367.392259</ele>
        <time>2021-11-21T08:41:13.898Z</time>
      </trkpt>
      <trkpt lat="47.457506" lon="8.150399">
        <ele>364.546687</ele>
        <time>2021-11-21T08:41:46.559Z</time>
      </trkpt>
      <trkpt lat="47.457836" lon="8.150781">
        <ele>363.922142</ele>
        <time>2021-11-21T08:41:53.505Z</time>
      </trkpt>
      <trkpt lat="47.458407" lon="8.151402">
        <ele>362.991123</ele>
        <time>2021-11-21T08:42:05.521Z</time>
      </trkpt>
      <trkpt lat="47.458656" lon="8.151660">
        <ele>362.660673</ele>
        <time>2021-11-21T08:42:10.698Z</time>
      </trkpt>
      <trkpt lat="47.459084" lon="8.152051">
        <ele>362.113883</ele>
        <time>2021-11-21T08:42:19.239Z</time>
      </trkpt>
      <trkpt lat="47.459515" lon="8.152425">
        <ele>361.570745</ele>
        <time>2021-11-21T08:42:27.981Z</time>
      </trkpt>
      <trkpt lat="47.459675" lon="8.152551">
        <ele>361.373723</ele>
        <time>2021-11-21T08:42:31.137Z</time>
      </trkpt>
      <trkpt lat="47.459982" lon="8.152791">
        <ele>361.241739</ele>
        <time>2021-11-21T08:42:37.261Z</time>
      </trkpt>
      <trkpt lat="47.460121" lon="8.152908">
        <ele>361.180968</ele>
        <time>2021-11-21T08:42:40.102Z</time>
      </trkpt>
      <trkpt lat="47.460799" lon="8.153695">
        <ele>360.853476</ele>
        <time>2021-11-21T08:42:56.497Z</time>
      </trkpt>
      <trkpt lat="47.460950" lon="8.153828">
        <ele>360.786696</ele>
        <time>2021-11-21T08:42:59.863Z</time>
      </trkpt>
      <trkpt lat="47.461918" lon="8.154537">
        <ele>360.567785</ele>
        <time>2021-11-21T08:43:22.766Z</time>
      </trkpt>
      <trkpt lat="47.462115" lon="8.154655">
        <ele>360.536293</ele>
        <time>2021-11-21T08:43:27.476Z</time>
      </trkpt>
      <trkpt lat="47.462631" lon="8.155072">
        <ele>360.449170</ele>
        <time>2021-11-21T08:43:39.022Z</time>
      </trkpt>
      <trkpt lat="47.462726" lon="8.155178">
        <ele>360.431538</ele>
        <time>2021-11-21T08:43:41.224Z</time>
      </trkpt>
      <trkpt lat="47.462758" lon="8.155215">
        <ele>360.425520</ele>
        <time>2021-11-21T08:43:41.964Z</time>
      </trkpt>
      <trkpt lat="47.462875" lon="8.155357">
        <ele>360.094712</ele>
        <time>2021-11-21T08:43:43.731Z</time>
      </trkpt>
      <trkpt lat="47.463046" lon="8.155599">
        <ele>359.535063</ele>
        <time>2021-11-21T08:43:46.523Z</time>
      </trkpt>
      <trkpt lat="47.463046" lon="8.155599">
        <ele>359.535063</ele>
        <time>2021-11-21T08:43:46.526Z</time>
      </trkpt>
      <trkpt lat="47.463208" lon="8.155947">
        <ele>358.859567</ele>
        <time>2021-11-21T08:43:49.743Z</time>
      </trkpt>
      <trkpt lat="47.463331" lon="8.156255">
        <ele>358.287666</ele>
        <time>2021-11-21T08:43:52.246Z</time>
      </trkpt>
      <trkpt lat="47.463358" lon="8.156322">
        <ele>358.162966</ele>
        <time>2021-11-21T08:43:52.790Z</time>
      </trkpt>
      <trkpt lat="47.463374" lon="8.156375">
        <ele>358.070169</ele>
        <time>2021-11-21T08:43:53.209Z</time>
      </trkpt>
      <trkpt lat="47.463406" lon="8.156485">
        <ele>357.878719</ele>
        <time>2021-11-21T08:43:54.046Z</time>
      </trkpt>
      <trkpt lat="47.463437" lon="8.156620">
        <ele>357.650781</ele>
        <time>2021-11-21T08:43:54.981Z</time>
      </trkpt>
      <trkpt lat="47.463451" lon="8.156786">
        <ele>357.383336</ele>
        <time>2021-11-21T08:43:56.153Z</time>
      </trkpt>
      <trkpt lat="47.463453" lon="8.156994">
        <ele>357.050768</ele>
        <time>2021-11-21T08:43:57.587Z</time>
      </trkpt>
      <trkpt lat="47.463449" lon="8.157173">
        <ele>356.764439</ele>
        <time>2021-11-21T08:43:58.755Z</time>
      </trkpt>
      <trkpt lat="47.463437" lon="8.157404">
        <ele>356.394045</ele>
        <time>2021-11-21T08:44:00.350Z</time>
      </trkpt>
      <trkpt lat="47.463435" lon="8.157494">
        <ele>356.250082</ele>
        <time>2021-11-21T08:44:00.969Z</time>
      </trkpt>
      <trkpt lat="47.463431" lon="8.157928">
        <ele>355.683799</ele>
        <time>2021-11-21T08:44:03.938Z</time>
      </trkpt>
      <trkpt lat="47.463441" lon="8.158126">
        <ele>355.432334</ele>
        <time>2021-11-21T08:44:05.333Z</time>
      </trkpt>
      <trkpt lat="47.463459" lon="8.158318">
        <ele>355.186839</ele>
        <time>2021-11-21T08:44:06.668Z</time>
      </trkpt>
      <trkpt lat="47.463494" lon="8.158650">
        <ele>354.761281</ele>
        <time>2021-11-21T08:44:09.105Z</time>
      </trkpt>
      <trkpt lat="47.463576" lon="8.159259">
        <ele>353.974836</ele>
        <time>2021-11-21T08:44:13.712Z</time>
      </trkpt>
      <trkpt lat="47.463575" lon="8.159344">
        <ele>353.867168</ele>
        <time>2021-11-21T08:44:14.349Z</time>
      </trkpt>
      <trkpt lat="47.463535" lon="8.159478">
        <ele>353.681650</ele>
        <time>2021-11-21T08:44:15.539Z</time>
      </trkpt>
      <trkpt lat="47.463727" lon="8.159750">
        <ele>353.183611</ele>
        <time>2021-11-21T08:44:18.752Z</time>
      </trkpt>
      <trkpt lat="47.464091" lon="8.160172">
        <ele>352.999875</ele>
        <time>2021-11-21T08:44:25.127Z</time>
      </trkpt>
      <trkpt lat="47.464241" lon="8.160297">
        <ele>353.132605</ele>
        <time>2021-11-21T08:44:28.099Z</time>
      </trkpt>
      <trkpt lat="47.464401" lon="8.160419">
        <ele>353.271379</ele>
        <time>2021-11-21T08:44:31.244Z</time>
      </trkpt>
      <trkpt lat="47.464571" lon="8.160519">
        <ele>353.412422</ele>
        <time>2021-11-21T08:44:34.847Z</time>
      </trkpt>
      <trkpt lat="47.464837" lon="8.160646">
        <ele>353.627909</ele>
        <time>2021-11-21T08:44:40.398Z</time>
      </trkpt>
      <trkpt lat="47.464997" lon="8.160739">
        <ele>353.760440</ele>
        <time>2021-11-21T08:44:43.979Z</time>
      </trkpt>
      <trkpt lat="47.465263" lon="8.160874">
        <ele>353.977245</ele>
        <time>2021-11-21T08:44:49.518Z</time>
      </trkpt>
      <trkpt lat="47.465513" lon="8.161012">
        <ele>354.182962</ele>
        <time>2021-11-21T08:44:54.846Z</time>
      </trkpt>
      <trkpt lat="47.465742" lon="8.161135">
        <ele>354.411872</ele>
        <time>2021-11-21T08:44:59.806Z</time>
      </trkpt>
      <trkpt lat="47.466049" lon="8.161288">
        <ele>354.717606</ele>
        <time>2021-11-21T08:45:05.871Z</time>
      </trkpt>
      <trkpt lat="47.466606" lon="8.161586">
        <ele>355.276601</ele>
        <time>2021-11-21T08:45:16.422Z</time>
      </trkpt>
      <trkpt lat="47.466809" lon="8.161700">
        <ele>355.481524</ele>
        <time>2021-11-21T08:45:20.217Z</time>
      </trkpt>
      <trkpt lat="47.466897" lon="8.161739">
        <ele>355.568221</ele>
        <time>2021-11-21T08:45:22.039Z</time>
      </trkpt>
      <trkpt lat="47.467007" lon="8.161797">
        <ele>355.678432</ele>
        <time>2021-11-21T08:45:24.164Z</time>
      </trkpt>
      <trkpt lat="47.467139" lon="8.161863">
        <ele>355.809931</ele>
        <time>2021-11-21T08:45:26.663Z</time>
      </trkpt>
      <trkpt lat="47.467266" lon="8.161918">
        <ele>355.918860</ele>
        <time>2021-11-21T08:45:29.281Z</time>
      </trkpt>
      <trkpt lat="47.467403" lon="8.161980">
        <ele>356.010791</ele>
        <time>2021-11-21T08:45:31.936Z</time>
      </trkpt>
      <trkpt lat="47.468105" lon="8.162227">
        <ele>356.473807</ele>
        <time>2021-11-21T08:45:45.254Z</time>
      </trkpt>
      <trkpt lat="47.468199" lon="8.162263">
        <ele>356.536112</ele>
        <time>2021-11-21T08:45:46.858Z</time>
      </trkpt>
      <trkpt lat="47.468278" lon="8.162300">
        <ele>356.589284</ele>
        <time>2021-11-21T08:45:48.431Z</time>
      </trkpt>
      <trkpt lat="47.468573" lon="8.162469">
        <ele>356.792274</ele>
        <time>2021-11-21T08:45:53.852Z</time>
      </trkpt>
      <trkpt lat="47.468812" lon="8.162640">
        <ele>356.962628</ele>
        <time>2021-11-21T08:45:58.320Z</time>
      </trkpt>
      <trkpt lat="47.468949" lon="8.162736">
        <ele>357.023639</ele>
        <time>2021-11-21T08:46:00.331Z</time>
      </trkpt>
      <trkpt lat="47.469024" lon="8.162801">
        <ele>356.982215</ele>
        <time>2021-11-21T08:46:01.727Z</time>
      </trkpt>
      <trkpt lat="47.469218" lon="8.163000">
        <ele>356.869711</ele>
        <time>2021-11-21T08:46:05.024Z</time>
      </trkpt>
      <trkpt lat="47.469385" lon="8.163184">
        <ele>356.770478</ele>
        <time>2021-11-21T08:46:08.523Z</time>
      </trkpt>
      <trkpt lat="47.469504" lon="8.163311">
        <ele>356.700550</ele>
        <time>2021-11-21T08:46:10.446Z</time>
      </trkpt>
      <trkpt lat="47.470057" lon="8.163889">
        <ele>356.377872</ele>
        <time>2021-11-21T08:46:19.839Z</time>
      </trkpt>
      <trkpt lat="47.470101" lon="8.163935">
        <ele>356.352196</ele>
        <time>2021-11-21T08:46:20.389Z</time>
      </trkpt>
      <trkpt lat="47.470281" lon="8.164129">
        <ele>356.246064</ele>
        <time>2021-11-21T08:46:23.312Z</time>
      </trkpt>
      <trkpt lat="47.470384" lon="8.164260">
        <ele>356.179234</ele>
        <time>2021-11-21T08:46:24.769Z</time>
      </trkpt>
      <trkpt lat="47.470426" lon="8.164313">
        <ele>356.061486</ele>
        <time>2021-11-21T08:46:25.447Z</time>
      </trkpt>
      <trkpt lat="47.470550" lon="8.164436">
        <ele>355.743050</ele>
        <time>2021-11-21T08:46:27.283Z</time>
      </trkpt>
      <trkpt lat="47.471054" lon="8.164977">
        <ele>354.414879</ele>
        <time>2021-11-21T08:46:34.105Z</time>
      </trkpt>
      <trkpt lat="47.471193" lon="8.165194">
        <ele>353.983852</ele>
        <time>2021-11-21T08:46:36.299Z</time>
      </trkpt>
      <trkpt lat="47.471273" lon="8.165343">
        <ele>353.709505</ele>
        <time>2021-11-21T08:46:37.635Z</time>
      </trkpt>
      <trkpt lat="47.471314" lon="8.165430">
        <ele>353.556595</ele>
        <time>2021-11-21T08:46:38.454Z</time>
      </trkpt>
      <trkpt lat="47.471485" lon="8.165795">
        <ele>352.916309</ele>
        <time>2021-11-21T08:46:41.605Z</time>
      </trkpt>
      <trkpt lat="47.471637" lon="8.166140">
        <ele>352.317836</ele>
        <time>2021-11-21T08:46:44.498Z</time>
      </trkpt>
      <trkpt lat="47.471637" lon="8.166140">
        <ele>352.317836</ele>
        <time>2021-11-21T08:46:44.501Z</time>
      </trkpt>
      <trkpt lat="47.471695" lon="8.166254">
        <ele>352.069744</ele>
        <time>2021-11-21T08:46:45.566Z</time>
      </trkpt>
      <trkpt lat="47.471739" lon="8.166341">
        <ele>351.880817</ele>
        <time>2021-11-21T08:46:46.324Z</time>
      </trkpt>
      <trkpt lat="47.471800" lon="8.166447">
        <ele>351.638761</ele>
        <time>2021-11-21T08:46:47.266Z</time>
      </trkpt>
      <trkpt lat="47.472023" lon="8.166799">
        <ele>350.799927</ele>
        <time>2021-11-21T08:46:50.611Z</time>
      </trkpt>
      <trkpt lat="47.472230" lon="8.167059">
        <ele>350.101433</ele>
        <time>2021-11-21T08:46:53.427Z</time>
      </trkpt>
      <trkpt lat="47.472348" lon="8.167193">
        <ele>349.718787</ele>
        <time>2021-11-21T08:46:54.919Z</time>
      </trkpt>
      <trkpt lat="47.472433" lon="8.167289">
        <ele>349.443709</ele>
        <time>2021-11-21T08:46:56.028Z</time>
      </trkpt>
      <trkpt lat="47.472552" lon="8.167429">
        <ele>349.052614</ele>
        <time>2021-11-21T08:46:57.645Z</time>
      </trkpt>
      <trkpt lat="47.472685" lon="8.167581">
        <ele>348.620303</ele>
        <time>2021-11-21T08:46:59.413Z</time>
      </trkpt>
      <trkpt lat="47.472797" lon="8.167699">
        <ele>348.266614</ele>
        <time>2021-11-21T08:47:00.923Z</time>
      </trkpt>
      <trkpt lat="47.472952" lon="8.167862">
        <ele>347.777441</ele>
        <time>2021-11-21T08:47:02.988Z</time>
      </trkpt>
      <trkpt lat="47.473055" lon="8.167983">
        <ele>347.573746</ele>
        <time>2021-11-21T08:47:04.466Z</time>
      </trkpt>
      <trkpt lat="47.473210" lon="8.168234">
        <ele>347.267084</ele>
        <time>2021-11-21T08:47:07.090Z</time>
      </trkpt>
      <trkpt lat="47.473388" lon="8.168547">
        <ele>346.898126</ele>
        <time>2021-11-21T08:47:10.261Z</time>
      </trkpt>
      <trkpt lat="47.473598" lon="8.168948">
        <ele>346.440567</ele>
        <time>2021-11-21T08:47:14.260Z</time>
      </trkpt>
      <trkpt lat="47.473741" lon="8.169275">
        <ele>346.089266</ele>
        <time>2021-11-21T08:47:17.417Z</time>
      </trkpt>
      <trkpt lat="47.473760" lon="8.169319">
        <ele>346.042171</ele>
        <time>2021-11-21T08:47:17.872Z</time>
      </trkpt>
      <trkpt lat="47.473812" lon="8.169458">
        <ele>345.898872</ele>
        <time>2021-11-21T08:47:19.201Z</time>
      </trkpt>
      <trkpt lat="47.473963" lon="8.169902">
        <ele>345.450551</ele>
        <time>2021-11-21T08:47:23.312Z</time>
      </trkpt>
      <trkpt lat="47.474103" lon="8.170305">
        <ele>345.146235</ele>
        <time>2021-11-21T08:47:27.171Z</time>
      </trkpt>
      <trkpt lat="47.474159" lon="8.170494">
        <ele>345.030288</ele>
        <time>2021-11-21T08:47:28.895Z</time>
      </trkpt>
      <trkpt lat="47.474555" lon="8.171867">
        <ele>344.191563</ele>
        <time>2021-11-21T08:47:41.567Z</time>
      </trkpt>
      <trkpt lat="47.474858" lon="8.173318">
        <ele>343.609985</ele>
        <time>2021-11-21T08:47:54.447Z</time>
      </trkpt>
      <trkpt lat="47.475028" lon="8.173788">
        <ele>343.478171</ele>
        <time>2021-11-21T08:47:59.272Z</time>
      </trkpt>
      <trkpt lat="47.475197" lon="8.174200">
        <ele>343.359002</ele>
        <time>2021-11-21T08:48:04.230Z</time>
      </trkpt>
      <trkpt lat="47.475270" lon="8.174390">
        <ele>343.304960</ele>
        <time>2021-11-21T08:48:06.621Z</time>
      </trkpt>
      <trkpt lat="47.475388" lon="8.174886">
        <ele>343.174937</ele>
        <time>2021-11-21T08:48:11.851Z</time>
      </trkpt>
      <trkpt lat="47.475502" lon="8.175765">
        <ele>343.048783</ele>
        <time>2021-11-21T08:48:20.492Z</time>
      </trkpt>
      <trkpt lat="47.475584" lon="8.176429">
        <ele>342.956828</ele>
        <time>2021-11-21T08:48:27.071Z</time>
      </trkpt>
      <trkpt lat="47.475655" lon="8.177003">
        <ele>342.877332</ele>
        <time>2021-11-21T08:48:32.573Z</time>
      </trkpt>
      <trkpt lat="47.475922" lon="8.178214">
        <ele>342.543081</ele>
        <time>2021-11-21T08:48:44.130Z</time>
      </trkpt>
      <trkpt lat="47.476124" lon="8.178846">
        <ele>342.293557</ele>
        <time>2021-11-21T08:48:50.290Z</time>
      </trkpt>
      <trkpt lat="47.476443" lon="8.179607">
        <ele>341.973944</ele>
        <time>2021-11-21T08:48:58.175Z</time>
      </trkpt>
      <trkpt lat="47.476476" lon="8.179668">
        <ele>341.946057</ele>
        <time>2021-11-21T08:48:58.789Z</time>
      </trkpt>
      <trkpt lat="47.476476" lon="8.179668">
        <ele>341.946057</ele>
        <time>2021-11-21T08:48:58.790Z</time>
      </trkpt>
      <trkpt lat="47.476571" lon="8.179863">
        <ele>341.860262</ele>
        <time>2021-11-21T08:49:00.997Z</time>
      </trkpt>
      <trkpt lat="47.476841" lon="8.180324">
        <ele>341.738939</ele>
        <time>2021-11-21T08:49:06.402Z</time>
      </trkpt>
      <trkpt lat="47.476889" lon="8.180405">
        <ele>341.718085</ele>
        <time>2021-11-21T08:49:07.639Z</time>
      </trkpt>
      <trkpt lat="47.477144" lon="8.180789">
        <ele>341.613868</ele>
        <time>2021-11-21T08:49:12.534Z</time>
      </trkpt>
      <trkpt lat="47.478305" lon="8.182470">
        <ele>341.911225</ele>
        <time>2021-11-21T08:49:35.639Z</time>
      </trkpt>
      <trkpt lat="47.478393" lon="8.182635">
        <ele>342.034347</ele>
        <time>2021-11-21T08:49:37.990Z</time>
      </trkpt>
      <trkpt lat="47.479079" lon="8.183920">
        <ele>343.094685</ele>
        <time>2021-11-21T08:50:01.008Z</time>
      </trkpt>
      <trkpt lat="47.479231" lon="8.184261">
        <ele>343.584332</ele>
        <time>2021-11-21T08:50:07.935Z</time>
      </trkpt>
      <trkpt lat="47.479253" lon="8.184307">
        <ele>343.651880</ele>
        <time>2021-11-21T08:50:08.784Z</time>
      </trkpt>
      <trkpt lat="47.479284" lon="8.184375">
        <ele>343.750200</ele>
        <time>2021-11-21T08:50:09.999Z</time>
      </trkpt>
      <trkpt lat="47.479494" lon="8.184925">
        <ele>344.507408</ele>
        <time>2021-11-21T08:50:19.745Z</time>
      </trkpt>
      <trkpt lat="47.479670" lon="8.185370">
        <ele>345.125441</ele>
        <time>2021-11-21T08:50:27.083Z</time>
      </trkpt>
      <trkpt lat="47.479853" lon="8.185790">
        <ele>345.724438</ele>
        <time>2021-11-21T08:50:34.319Z</time>
      </trkpt>
      <trkpt lat="47.479942" lon="8.185960">
        <ele>345.982197</ele>
        <time>2021-11-21T08:50:37.711Z</time>
      </trkpt>
      <trkpt lat="47.480028" lon="8.186146">
        <ele>346.196059</ele>
        <time>2021-11-21T08:50:40.580Z</time>
      </trkpt>
      <trkpt lat="47.480145" lon="8.186350">
        <ele>346.407651</ele>
        <time>2021-11-21T08:50:44.682Z</time>
      </trkpt>
      <trkpt lat="47.480217" lon="8.186474">
        <ele>346.536937</ele>
        <time>2021-11-21T08:50:46.736Z</time>
      </trkpt>
      <trkpt lat="47.480420" lon="8.186745">
        <ele>346.856869</ele>
        <time>2021-11-21T08:50:52.595Z</time>
      </trkpt>
      <trkpt lat="47.480560" lon="8.186929">
        <ele>347.075983</ele>
        <time>2021-11-21T08:50:56.090Z</time>
      </trkpt>
      <trkpt lat="47.480690" lon="8.187084">
        <ele>347.271344</ele>
        <time>2021-11-21T08:50:59.380Z</time>
      </trkpt>
      <trkpt lat="47.480780" lon="8.187172">
        <ele>347.397574</ele>
        <time>2021-11-21T08:51:00.999Z</time>
      </trkpt>
      <trkpt lat="47.480852" lon="8.187252">
        <ele>347.502934</ele>
        <time>2021-11-21T08:51:02.885Z</time>
      </trkpt>
      <trkpt lat="47.481193" lon="8.187591">
        <ele>347.983651</ele>
        <time>2021-11-21T08:51:09.888Z</time>
      </trkpt>
      <trkpt lat="47.481292" lon="8.187686">
        <ele>348.121724</ele>
        <time>2021-11-21T08:51:12.332Z</time>
      </trkpt>
      <trkpt lat="47.481382" lon="8.187787">
        <ele>348.286292</ele>
        <time>2021-11-21T08:51:13.931Z</time>
      </trkpt>
      <trkpt lat="47.481424" lon="8.187833">
        <ele>348.379235</ele>
        <time>2021-11-21T08:51:14.984Z</time>
      </trkpt>
      <trkpt lat="47.481651" lon="8.188249">
        <ele>349.021956</ele>
        <time>2021-11-21T08:51:22.499Z</time>
      </trkpt>
      <trkpt lat="47.481685" lon="8.188343">
        <ele>349.150117</ele>
        <time>2021-11-21T08:51:24.185Z</time>
      </trkpt>
      <trkpt lat="47.481788" lon="8.188778">
        <ele>349.704186</ele>
        <time>2021-11-21T08:51:30.505Z</time>
      </trkpt>
      <trkpt lat="47.481812" lon="8.188865">
        <ele>349.817144</ele>
        <time>2021-11-21T08:51:32.059Z</time>
      </trkpt>
      <trkpt lat="47.481839" lon="8.188968">
        <ele>349.949945</ele>
        <time>2021-11-21T08:51:33.927Z</time>
      </trkpt>
      <trkpt lat="47.481979" lon="8.189239">
        <ele>350.359982</ele>
        <time>2021-11-21T08:51:38.359Z</time>
      </trkpt>
      <trkpt lat="47.482019" lon="8.189306">
        <ele>350.467446</ele>
        <time>2021-11-21T08:51:40.133Z</time>
      </trkpt>
      <trkpt lat="47.482064" lon="8.189374">
        <ele>350.581849</ele>
        <time>2021-11-21T08:51:41.974Z</time>
      </trkpt>
      <trkpt lat="47.482198" lon="8.189576">
        <ele>350.922097</ele>
        <time>2021-11-21T08:51:46.443Z</time>
      </trkpt>
      <trkpt lat="47.482387" lon="8.189878">
        <ele>351.440252</ele>
        <time>2021-11-21T08:51:52.721Z</time>
      </trkpt>
      <trkpt lat="47.482486" lon="8.190057">
        <ele>351.968021</ele>
        <time>2021-11-21T08:51:57.232Z</time>
      </trkpt>
      <trkpt lat="47.482572" lon="8.190217">
        <ele>352.434488</ele>
        <time>2021-11-21T08:52:00.684Z</time>
      </trkpt>
      <trkpt lat="47.482607" lon="8.190286">
        <ele>352.631341</ele>
        <time>2021-11-21T08:52:01.956Z</time>
      </trkpt>
      <trkpt lat="47.482743" lon="8.190529">
        <ele>353.351249</ele>
        <time>2021-11-21T08:52:07.878Z</time>
      </trkpt>
      <trkpt lat="47.482845" lon="8.190599">
        <ele>353.730865</ele>
        <time>2021-11-21T08:52:10.731Z</time>
      </trkpt>
      <trkpt lat="47.482867" lon="8.190600">
        <ele>353.805178</ele>
        <time>2021-11-21T08:52:11.115Z</time>
      </trkpt>
      <trkpt lat="47.482872" lon="8.190636">
        <ele>353.889037</ele>
        <time>2021-11-21T08:52:11.942Z</time>
      </trkpt>
      <trkpt lat="47.482949" lon="8.190712">
        <ele>354.201539</ele>
        <time>2021-11-21T08:52:14.804Z</time>
      </trkpt>
      <trkpt lat="47.482973" lon="8.190705">
        <ele>354.284129</ele>
        <time>2021-11-21T08:52:15.418Z</time>
      </trkpt>
      <trkpt lat="47.482993" lon="8.190689">
        <ele>354.360891</ele>
        <time>2021-11-21T08:52:16.286Z</time>
      </trkpt>
      <trkpt lat="47.483025" lon="8.190604">
        <ele>354.582900</ele>
        <time>2021-11-21T08:52:17.936Z</time>
      </trkpt>
      <trkpt lat="47.483023" lon="8.190571">
        <ele>354.658499</ele>
        <time>2021-11-21T08:52:18.695Z</time>
      </trkpt>
      <trkpt lat="47.483016" lon="8.190541">
        <ele>354.730916</ele>
        <time>2021-11-21T08:52:19.128Z</time>
      </trkpt>
      <trkpt lat="47.482967" lon="8.190482">
        <ele>354.944205</ele>
        <time>2021-11-21T08:52:20.710Z</time>
      </trkpt>
      <trkpt lat="47.482945" lon="8.190478">
        <ele>355.019042</ele>
        <time>2021-11-21T08:52:21.126Z</time>
      </trkpt>
      <trkpt lat="47.482944" lon="8.190385">
        <ele>355.231269</ele>
        <time>2021-11-21T08:52:23.528Z</time>
      </trkpt>
      <trkpt lat="47.482944" lon="8.190358">
        <ele>355.292875</ele>
        <time>2021-11-21T08:52:24.215Z</time>
      </trkpt>
      <trkpt lat="47.482930" lon="8.189498">
        <ele>357.255724</ele>
        <time>2021-11-21T08:52:40.790Z</time>
      </trkpt>
      <trkpt lat="47.482931" lon="8.189437">
        <ele>357.394950</ele>
        <time>2021-11-21T08:52:42.125Z</time>
      </trkpt>
      <trkpt lat="47.482934" lon="8.189340">
        <ele>357.712849</ele>
        <time>2021-11-21T08:52:44.522Z</time>
      </trkpt>
      <trkpt lat="47.482943" lon="8.188839">
        <ele>359.576640</ele>
        <time>2021-11-21T08:52:56.021Z</time>
      </trkpt>
      <trkpt lat="47.482956" lon="8.187807">
        <ele>363.415137</ele>
        <time>2021-11-21T08:53:21.162Z</time>
      </trkpt>
      <trkpt lat="47.482953" lon="8.187593">
        <ele>364.211137</ele>
        <time>2021-11-21T08:53:27.400Z</time>
      </trkpt>
      <trkpt lat="47.482951" lon="8.187188">
        <ele>365.717302</ele>
        <time>2021-11-21T08:53:38.539Z</time>
      </trkpt>
      <trkpt lat="47.482934" lon="8.186840">
        <ele>367.014831</ele>
        <time>2021-11-21T08:53:47.906Z</time>
      </trkpt>
      <trkpt lat="47.482902" lon="8.186578">
        <ele>368.054860</ele>
        <time>2021-11-21T08:53:55.723Z</time>
      </trkpt>
      <trkpt lat="47.482854" lon="8.186196">
        <ele>369.611810</ele>
        <time>2021-11-21T08:54:05.379Z</time>
      </trkpt>
      <trkpt lat="47.482841" lon="8.186124">
        <ele>369.910441</ele>
        <time>2021-11-21T08:54:08.117Z</time>
      </trkpt>
      <trkpt lat="47.482827" lon="8.186042">
        <ele>370.249348</ele>
        <time>2021-11-21T08:54:10.554Z</time>
      </trkpt>
      <trkpt lat="47.482775" lon="8.185779">
        <ele>371.347395</ele>
        <time>2021-11-21T08:54:17.027Z</time>
      </trkpt>
      <trkpt lat="47.482766" lon="8.185743">
        <ele>371.501205</ele>
        <time>2021-11-21T08:54:18.141Z</time>
      </trkpt>
      <trkpt lat="47.482705" lon="8.185476">
        <ele>372.630589</ele>
        <time>2021-11-21T08:54:25.590Z</time>
      </trkpt>
      <trkpt lat="47.482596" lon="8.185042">
        <ele>374.485890</ele>
        <time>2021-11-21T08:54:36.675Z</time>
      </trkpt>
      <trkpt lat="47.482617" lon="8.185031">
        <ele>374.617978</ele>
        <time>2021-11-21T08:54:37.637Z</time>
      </trkpt>
      <trkpt lat="47.482657" lon="8.184949">
        <ele>375.023217</ele>
        <time>2021-11-21T08:54:39.367Z</time>
      </trkpt>
      <trkpt lat="47.482658" lon="8.184915">
        <ele>375.159589</ele>
        <time>2021-11-21T08:54:40.327Z</time>
      </trkpt>
      <trkpt lat="47.482698" lon="8.184890">
        <ele>375.417051</ele>
        <time>2021-11-21T08:54:41.578Z</time>
      </trkpt>
      <trkpt lat="47.482741" lon="8.184879">
        <ele>375.675795</ele>
        <time>2021-11-21T08:54:43.005Z</time>
      </trkpt>
      <trkpt lat="47.482780" lon="8.184888">
        <ele>375.909834</ele>
        <time>2021-11-21T08:54:43.915Z</time>
      </trkpt>
      <trkpt lat="47.483305" lon="8.185862">
        <ele>380.792988</ele>
        <time>2021-11-21T08:55:19.137Z</time>
      </trkpt>
      <trkpt lat="47.483545" lon="8.186425">
        <ele>383.359088</ele>
        <time>2021-11-21T08:55:37.977Z</time>
      </trkpt>
      <trkpt lat="47.483714" lon="8.186627">
        <ele>384.598348</ele>
        <time>2021-11-21T08:55:45.401Z</time>
      </trkpt>
      <trkpt lat="47.483816" lon="8.186677">
        <ele>385.211290</ele>
        <time>2021-11-21T08:55:49.520Z</time>
      </trkpt>
      <trkpt lat="47.483906" lon="8.186674">
        <ele>385.724814</ele>
        <time>2021-11-21T08:55:52.775Z</time>
      </trkpt>
      <trkpt lat="47.484108" lon="8.186629">
        <ele>386.890083</ele>
        <time>2021-11-21T08:55:59.349Z</time>
      </trkpt>
      <trkpt lat="47.484330" lon="8.186531">
        <ele>388.211605</ele>
        <time>2021-11-21T08:56:07.746Z</time>
      </trkpt>
      <trkpt lat="47.484495" lon="8.186468">
        <ele>388.711876</ele>
        <time>2021-11-21T08:56:13.136Z</time>
      </trkpt>
      <trkpt lat="47.484801" lon="8.186390">
        <ele>389.552242</ele>
        <time>2021-11-21T08:56:23.223Z</time>
      </trkpt>
      <trkpt lat="47.484895" lon="8.186379">
        <ele>389.807441</ele>
        <time>2021-11-21T08:56:26.649Z</time>
      </trkpt>
      <trkpt lat="47.485127" lon="8.186353">
        <ele>390.437132</ele>
        <time>2021-11-21T08:56:33.737Z</time>
      </trkpt>
      <trkpt lat="47.485927" lon="8.186401">
        <ele>392.604057</ele>
        <time>2021-11-21T08:56:53.234Z</time>
      </trkpt>
      <trkpt lat="47.486547" lon="8.186524">
        <ele>392.805495</ele>
        <time>2021-11-21T08:57:01.012Z</time>
      </trkpt>
      <trkpt lat="47.486653" lon="8.186563">
        <ele>392.715406</ele>
        <time>2021-11-21T08:57:02.264Z</time>
      </trkpt>
      <trkpt lat="47.486930" lon="8.186675">
        <ele>392.478565</ele>
        <time>2021-11-21T08:57:05.721Z</time>
      </trkpt>
      <trkpt lat="47.488342" lon="8.187194">
        <ele>391.280872</ele>
        <time>2021-11-21T08:57:23.151Z</time>
      </trkpt>
      <trkpt lat="47.488450" lon="8.187222">
        <ele>391.190968</ele>
        <time>2021-11-21T08:57:24.558Z</time>
      </trkpt>
      <trkpt lat="47.488692" lon="8.187285">
        <ele>390.989491</ele>
        <time>2021-11-21T08:57:27.610Z</time>
      </trkpt>
      <trkpt lat="47.488896" lon="8.187332">
        <ele>390.820204</ele>
        <time>2021-11-21T08:57:30.220Z</time>
      </trkpt>
      <trkpt lat="47.489072" lon="8.187373">
        <ele>390.674114</ele>
        <time>2021-11-21T08:57:32.391Z</time>
      </trkpt>
      <trkpt lat="47.490084" lon="8.187497">
        <ele>390.506169</ele>
        <time>2021-11-21T08:57:45.861Z</time>
      </trkpt>
      <trkpt lat="47.490752" lon="8.187494">
        <ele>390.986634</ele>
        <time>2021-11-21T08:57:57.445Z</time>
      </trkpt>
      <trkpt lat="47.490871" lon="8.187485">
        <ele>391.072337</ele>
        <time>2021-11-21T08:57:59.711Z</time>
      </trkpt>
      <trkpt lat="47.491855" lon="8.187455">
        <ele>392.173202</ele>
        <time>2021-11-21T08:58:20.903Z</time>
      </trkpt>
      <trkpt lat="47.491946" lon="8.187452">
        <ele>392.327084</ele>
        <time>2021-11-21T08:58:22.928Z</time>
      </trkpt>
      <trkpt lat="47.492366" lon="8.187431">
        <ele>393.037538</ele>
        <time>2021-11-21T08:58:32.962Z</time>
      </trkpt>
      <trkpt lat="47.492518" lon="8.187437">
        <ele>393.294600</ele>
        <time>2021-11-21T08:58:36.877Z</time>
      </trkpt>
      <trkpt lat="47.492645" lon="8.187454">
        <ele>393.510182</ele>
        <time>2021-11-21T08:58:40.059Z</time>
      </trkpt>
      <trkpt lat="47.492740" lon="8.187474">
        <ele>393.672405</ele>
        <time>2021-11-21T08:58:42.291Z</time>
      </trkpt>
      <trkpt lat="47.492807" lon="8.187501">
        <ele>393.789799</ele>
        <time>2021-11-21T08:58:44.048Z</time>
      </trkpt>
      <trkpt lat="47.492888" lon="8.187533">
        <ele>393.931532</ele>
        <time>2021-11-21T08:58:46.047Z</time>
      </trkpt>
      <trkpt lat="47.493035" lon="8.187628">
        <ele>394.202709</ele>
        <time>2021-11-21T08:58:48.825Z</time>
      </trkpt>
      <trkpt lat="47.493158" lon="8.187708">
        <ele>394.429846</ele>
        <time>2021-11-21T08:58:51.735Z</time>
      </trkpt>
      <trkpt lat="47.493200" lon="8.187747">
        <ele>394.513670</ele>
        <time>2021-11-21T08:58:52.794Z</time>
      </trkpt>
      <trkpt lat="47.493257" lon="8.187795">
        <ele>394.428733</ele>
        <time>2021-11-21T08:58:54.173Z</time>
      </trkpt>
      <trkpt lat="47.493328" lon="8.187887">
        <ele>394.257759</ele>
        <time>2021-11-21T08:58:55.381Z</time>
      </trkpt>
      <trkpt lat="47.493564" lon="8.188192">
        <ele>393.690100</ele>
        <time>2021-11-21T08:58:59.600Z</time>
      </trkpt>
      <trkpt lat="47.493761" lon="8.188582">
        <ele>393.094002</ele>
        <time>2021-11-21T08:59:03.551Z</time>
      </trkpt>
      <trkpt lat="47.493907" lon="8.188904">
        <ele>392.619289</ele>
        <time>2021-11-21T08:59:06.431Z</time>
      </trkpt>
      <trkpt lat="47.493941" lon="8.188998">
        <ele>392.488766</ele>
        <time>2021-11-21T08:59:07.147Z</time>
      </trkpt>
      <trkpt lat="47.494056" lon="8.188984">
        <ele>392.279706</ele>
        <time>2021-11-21T08:59:08.281Z</time>
      </trkpt>
      <trkpt lat="47.494332" lon="8.188863">
        <ele>391.758174</ele>
        <time>2021-11-21T08:59:11.201Z</time>
      </trkpt>
      <trkpt lat="47.494505" lon="8.188702">
        <ele>391.387919</ele>
        <time>2021-11-21T08:59:13.377Z</time>
      </trkpt>
      <trkpt lat="47.494597" lon="8.188575">
        <ele>391.011875</ele>
        <time>2021-11-21T08:59:14.566Z</time>
      </trkpt>
      <trkpt lat="47.494597" lon="8.188575">
        <ele>391.011875</ele>
        <time>2021-11-21T08:59:14.570Z</time>
      </trkpt>
      <trkpt lat="47.494597" lon="8.188575">
        <ele>391.011875</ele>
        <time>2021-11-21T08:59:14.627Z</time>
      </trkpt>
      <trkpt lat="47.494621" lon="8.188505">
        <ele>390.787879</ele>
        <time>2021-11-21T08:59:15.118Z</time>
      </trkpt>
      <trkpt lat="47.494636" lon="8.188277">
        <ele>390.134186</ele>
        <time>2021-11-21T08:59:16.734Z</time>
      </trkpt>
      <trkpt lat="47.494614" lon="8.188090">
        <ele>389.592538</ele>
        <time>2021-11-21T08:59:17.935Z</time>
      </trkpt>
      <trkpt lat="47.494602" lon="8.188014">
        <ele>389.369823</ele>
        <time>2021-11-21T08:59:18.423Z</time>
      </trkpt>
      <trkpt lat="47.494597" lon="8.187979">
        <ele>389.267740</ele>
        <time>2021-11-21T08:59:18.642Z</time>
      </trkpt>
      <trkpt lat="47.494578" lon="8.187776">
        <ele>388.682932</ele>
        <time>2021-11-21T08:59:20.060Z</time>
      </trkpt>
      <trkpt lat="47.494588" lon="8.187684">
        <ele>388.417027</ele>
        <time>2021-11-21T08:59:20.645Z</time>
      </trkpt>
      <trkpt lat="47.494612" lon="8.187571">
        <ele>388.079017</ele>
        <time>2021-11-21T08:59:21.382Z</time>
      </trkpt>
      <trkpt lat="47.494710" lon="8.187324">
        <ele>387.261645</ele>
        <time>2021-11-21T08:59:23.248Z</time>
      </trkpt>
      <trkpt lat="47.494780" lon="8.187222">
        <ele>386.846771</ele>
        <time>2021-11-21T08:59:24.165Z</time>
      </trkpt>
      <trkpt lat="47.494834" lon="8.187197">
        <ele>386.607810</ele>
        <time>2021-11-21T08:59:24.680Z</time>
      </trkpt>
      <trkpt lat="47.494878" lon="8.187200">
        <ele>386.421784</ele>
        <time>2021-11-21T08:59:25.095Z</time>
      </trkpt>
      <trkpt lat="47.495182" lon="8.187204">
        <ele>385.137820</ele>
        <time>2021-11-21T08:59:28.022Z</time>
      </trkpt>
      <trkpt lat="47.495508" lon="8.187218">
        <ele>383.760414</ele>
        <time>2021-11-21T08:59:31.188Z</time>
      </trkpt>
      <trkpt lat="47.496262" lon="8.187283">
        <ele>381.843210</ele>
        <time>2021-11-21T08:59:38.800Z</time>
      </trkpt>
      <trkpt lat="47.496928" lon="8.187750">
        <ele>380.006723</ele>
        <time>2021-11-21T08:59:46.920Z</time>
      </trkpt>
      <trkpt lat="47.497046" lon="8.187842">
        <ele>379.674368</ele>
        <time>2021-11-21T08:59:48.431Z</time>
      </trkpt>
      <trkpt lat="47.497109" lon="8.187884">
        <ele>379.502183</ele>
        <time>2021-11-21T08:59:49.240Z</time>
      </trkpt>
      <trkpt lat="47.497202" lon="8.187946">
        <ele>379.248005</ele>
        <time>2021-11-21T08:59:50.436Z</time>
      </trkpt>
      <trkpt lat="47.497264" lon="8.187976">
        <ele>379.131480</ele>
        <time>2021-11-21T08:59:51.222Z</time>
      </trkpt>
      <trkpt lat="47.497377" lon="8.188036">
        <ele>378.960710</ele>
        <time>2021-11-21T08:59:52.618Z</time>
      </trkpt>
      <trkpt lat="47.497612" lon="8.188079">
        <ele>378.623884</ele>
        <time>2021-11-21T08:59:55.464Z</time>
      </trkpt>
      <trkpt lat="47.497732" lon="8.188078">
        <ele>378.453184</ele>
        <time>2021-11-21T08:59:56.866Z</time>
      </trkpt>
      <trkpt lat="47.497899" lon="8.188076">
        <ele>378.215623</ele>
        <time>2021-11-21T08:59:58.742Z</time>
      </trkpt>
      <trkpt lat="47.498421" lon="8.188066">
        <ele>377.473029</ele>
        <time>2021-11-21T09:00:04.800Z</time>
      </trkpt>
      <trkpt lat="47.498646" lon="8.188062">
        <ele>377.152949</ele>
        <time>2021-11-21T09:00:07.378Z</time>
      </trkpt>
      <trkpt lat="47.499139" lon="8.188175">
        <ele>376.509712</ele>
        <time>2021-11-21T09:00:13.359Z</time>
      </trkpt>
      <trkpt lat="47.499254" lon="8.188217">
        <ele>376.399842</ele>
        <time>2021-11-21T09:00:14.688Z</time>
      </trkpt>
      <trkpt lat="47.499462" lon="8.188330">
        <ele>376.194321</ele>
        <time>2021-11-21T09:00:17.217Z</time>
      </trkpt>
      <trkpt lat="47.499641" lon="8.188439">
        <ele>376.014783</ele>
        <time>2021-11-21T09:00:19.506Z</time>
      </trkpt>
      <trkpt lat="47.499900" lon="8.188597">
        <ele>375.754937</ele>
        <time>2021-11-21T09:00:22.863Z</time>
      </trkpt>
      <trkpt lat="47.500502" lon="8.188984">
        <ele>375.146145</ele>
        <time>2021-11-21T09:00:30.900Z</time>
      </trkpt>
      <trkpt lat="47.500828" lon="8.189241">
        <ele>375.129504</ele>
        <time>2021-11-21T09:00:35.999Z</time>
      </trkpt>
      <trkpt lat="47.500835" lon="8.189246">
        <ele>375.136778</ele>
        <time>2021-11-21T09:00:36.276Z</time>
      </trkpt>
      <trkpt lat="47.501958" lon="8.189943">
        <ele>376.276540</ele>
        <time>2021-11-21T09:00:58.949Z</time>
      </trkpt>
      <trkpt lat="47.502214" lon="8.190083">
        <ele>376.531979</ele>
        <time>2021-11-21T09:01:05.222Z</time>
      </trkpt>
      <trkpt lat="47.502495" lon="8.190202">
        <ele>376.994070</ele>
        <time>2021-11-21T09:01:11.656Z</time>
      </trkpt>
      <trkpt lat="47.502729" lon="8.190281">
        <ele>377.489739</ele>
        <time>2021-11-21T09:01:16.875Z</time>
      </trkpt>
      <trkpt lat="47.502868" lon="8.190327">
        <ele>377.783890</ele>
        <time>2021-11-21T09:01:20.227Z</time>
      </trkpt>
      <trkpt lat="47.503092" lon="8.190403">
        <ele>378.258494</ele>
        <time>2021-11-21T09:01:25.496Z</time>
      </trkpt>
      <trkpt lat="47.504350" lon="8.190808">
        <ele>380.769761</ele>
        <time>2021-11-21T09:01:56.034Z</time>
      </trkpt>
      <trkpt lat="47.504683" lon="8.190975">
        <ele>381.302333</ele>
        <time>2021-11-21T09:02:04.083Z</time>
      </trkpt>
      <trkpt lat="47.505036" lon="8.191194">
        <ele>381.882099</ele>
        <time>2021-11-21T09:02:12.700Z</time>
      </trkpt>
      <trkpt lat="47.505302" lon="8.191353">
        <ele>382.316631</ele>
        <time>2021-11-21T09:02:18.395Z</time>
      </trkpt>
      <trkpt lat="47.505507" lon="8.191452">
        <ele>382.643261</ele>
        <time>2021-11-21T09:02:22.624Z</time>
      </trkpt>
      <trkpt lat="47.505769" lon="8.191564">
        <ele>383.056341</ele>
        <time>2021-11-21T09:02:27.686Z</time>
      </trkpt>
      <trkpt lat="47.506321" lon="8.191601">
        <ele>383.529214</ele>
        <time>2021-11-21T09:02:36.254Z</time>
      </trkpt>
      <trkpt lat="47.506441" lon="8.191565">
        <ele>383.630786</ele>
        <time>2021-11-21T09:02:37.956Z</time>
      </trkpt>
      <trkpt lat="47.506612" lon="8.191535">
        <ele>383.773635</ele>
        <time>2021-11-21T09:02:40.746Z</time>
      </trkpt>
      <trkpt lat="47.506794" lon="8.191494">
        <ele>383.926355</ele>
        <time>2021-11-21T09:02:43.622Z</time>
      </trkpt>
      <trkpt lat="47.507116" lon="8.191485">
        <ele>384.193524</ele>
        <time>2021-11-21T09:02:50.106Z</time>
      </trkpt>
      <trkpt lat="47.507384" lon="8.191478">
        <ele>384.415883</ele>
        <time>2021-11-21T09:02:55.684Z</time>
      </trkpt>
      <trkpt lat="47.507896" lon="8.191573">
        <ele>385.378826</ele>
        <time>2021-11-21T09:03:05.735Z</time>
      </trkpt>
      <trkpt lat="47.508340" lon="8.191647">
        <ele>386.501905</ele>
        <time>2021-11-21T09:03:15.934Z</time>
      </trkpt>
      <trkpt lat="47.508395" lon="8.191655">
        <ele>386.640817</ele>
        <time>2021-11-21T09:03:18.110Z</time>
      </trkpt>
      <trkpt lat="47.509230" lon="8.191783">
        <ele>388.750876</ele>
        <time>2021-11-21T09:03:39.836Z</time>
      </trkpt>
      <trkpt lat="47.509497" lon="8.191828">
        <ele>389.488357</ele>
        <time>2021-11-21T09:03:48.360Z</time>
      </trkpt>
      <trkpt lat="47.509885" lon="8.191884">
        <ele>390.655330</ele>
        <time>2021-11-21T09:04:00.018Z</time>
      </trkpt>
      <trkpt lat="47.510586" lon="8.191985">
        <ele>392.763667</ele>
        <time>2021-11-21T09:04:18.114Z</time>
      </trkpt>
      <trkpt lat="47.510696" lon="8.191960">
        <ele>393.096806</ele>
        <time>2021-11-21T09:04:21.277Z</time>
      </trkpt>
      <trkpt lat="47.510861" lon="8.191928">
        <ele>393.594949</ele>
        <time>2021-11-21T09:04:25.555Z</time>
      </trkpt>
      <trkpt lat="47.511365" lon="8.191770">
        <ele>394.827154</ele>
        <time>2021-11-21T09:04:38.069Z</time>
      </trkpt>
      <trkpt lat="47.511473" lon="8.191711">
        <ele>395.007793</ele>
        <time>2021-11-21T09:04:41.361Z</time>
      </trkpt>
      <trkpt lat="47.511548" lon="8.191673">
        <ele>395.132182</ele>
        <time>2021-11-21T09:04:43.350Z</time>
      </trkpt>
      <trkpt lat="47.511620" lon="8.191643">
        <ele>395.249551</ele>
        <time>2021-11-21T09:04:45.151Z</time>
      </trkpt>
      <trkpt lat="47.511975" lon="8.191570">
        <ele>395.811955</ele>
        <time>2021-11-21T09:04:54.324Z</time>
      </trkpt>
      <trkpt lat="47.512044" lon="8.191530">
        <ele>395.928232</ele>
        <time>2021-11-21T09:04:56.033Z</time>
      </trkpt>
      <trkpt lat="47.512152" lon="8.191459">
        <ele>396.113658</ele>
        <time>2021-11-21T09:04:59.379Z</time>
      </trkpt>
      <trkpt lat="47.512407" lon="8.191163">
        <ele>396.622119</ele>
        <time>2021-11-21T09:05:06.723Z</time>
      </trkpt>
      <trkpt lat="47.512539" lon="8.190806">
        <ele>397.053475</ele>
        <time>2021-11-21T09:05:11.565Z</time>
      </trkpt>
      <trkpt lat="47.512656" lon="8.190486">
        <ele>397.117603</ele>
        <time>2021-11-21T09:05:14.516Z</time>
      </trkpt>
      <trkpt lat="47.512675" lon="8.190433">
        <ele>397.025210</ele>
        <time>2021-11-21T09:05:15.010Z</time>
      </trkpt>
      <trkpt lat="47.513186" lon="8.189223">
        <ele>394.827811</ele>
        <time>2021-11-21T09:05:25.119Z</time>
      </trkpt>
      <trkpt lat="47.513282" lon="8.189089">
        <ele>394.527025</ele>
        <time>2021-11-21T09:05:26.704Z</time>
      </trkpt>
      <trkpt lat="47.513337" lon="8.189036">
        <ele>394.377418</ele>
        <time>2021-11-21T09:05:27.344Z</time>
      </trkpt>
      <trkpt lat="47.513414" lon="8.188995">
        <ele>394.190869</ele>
        <time>2021-11-21T09:05:28.191Z</time>
      </trkpt>
      <trkpt lat="47.513445" lon="8.188987">
        <ele>394.119130</ele>
        <time>2021-11-21T09:05:28.516Z</time>
      </trkpt>
      <trkpt lat="47.513495" lon="8.188975">
        <ele>394.003653</ele>
        <time>2021-11-21T09:05:29.001Z</time>
      </trkpt>
      <trkpt lat="47.513553" lon="8.188965">
        <ele>393.870533</ele>
        <time>2021-11-21T09:05:29.842Z</time>
      </trkpt>
      <trkpt lat="47.513790" lon="8.188940">
        <ele>393.328857</ele>
        <time>2021-11-21T09:05:32.219Z</time>
      </trkpt>
      <trkpt lat="47.514209" lon="8.188910">
        <ele>392.692425</ele>
        <time>2021-11-21T09:05:36.431Z</time>
      </trkpt>
      <trkpt lat="47.514583" lon="8.188913">
        <ele>392.166434</ele>
        <time>2021-11-21T09:05:40.239Z</time>
      </trkpt>
      <trkpt lat="47.514624" lon="8.188920">
        <ele>392.108391</ele>
        <time>2021-11-21T09:05:40.747Z</time>
      </trkpt>
      <trkpt lat="47.514668" lon="8.188944">
        <ele>392.042445</ele>
        <time>2021-11-21T09:05:41.263Z</time>
      </trkpt>
      <trkpt lat="47.514726" lon="8.189055">
        <ele>391.909140</ele>
        <time>2021-11-21T09:05:42.210Z</time>
      </trkpt>
      <trkpt lat="47.514763" lon="8.189216">
        <ele>391.747602</ele>
        <time>2021-11-21T09:05:43.368Z</time>
      </trkpt>
      <trkpt lat="47.514808" lon="8.189201">
        <ele>391.682731</ele>
        <time>2021-11-21T09:05:43.812Z</time>
      </trkpt>
      <trkpt lat="47.515385" lon="8.189286">
        <ele>390.867248</ele>
        <time>2021-11-21T09:05:53.205Z</time>
      </trkpt>
      <trkpt lat="47.515418" lon="8.189292">
        <ele>390.820489</ele>
        <time>2021-11-21T09:05:53.968Z</time>
      </trkpt>
      <trkpt lat="47.515505" lon="8.189300">
        <ele>390.697899</ele>
        <time>2021-11-21T09:05:55.975Z</time>
      </trkpt>
      <trkpt lat="47.515617" lon="8.189298">
        <ele>390.940056</ele>
        <time>2021-11-21T09:05:58.720Z</time>
      </trkpt>
      <trkpt lat="47.515726" lon="8.189285">
        <ele>391.232926</ele>
        <time>2021-11-21T09:06:01.097Z</time>
      </trkpt>
      <trkpt lat="47.515946" lon="8.189248">
        <ele>391.825919</ele>
        <time>2021-11-21T09:06:06.618Z</time>
      </trkpt>
      <trkpt lat="47.516213" lon="8.189152">
        <ele>392.561780</ele>
        <time>2021-11-21T09:06:13.475Z</time>
      </trkpt>
      <trkpt lat="47.516390" lon="8.189083">
        <ele>393.051976</ele>
        <time>2021-11-21T09:06:18.317Z</time>
      </trkpt>
      <trkpt lat="47.516551" lon="8.189020">
        <ele>393.497970</ele>
        <time>2021-11-21T09:06:22.678Z</time>
      </trkpt>
      <trkpt lat="47.516623" lon="8.188992">
        <ele>393.697340</ele>
        <time>2021-11-21T09:06:24.678Z</time>
      </trkpt>
      <trkpt lat="47.516826" lon="8.188896">
        <ele>394.268072</ele>
        <time>2021-11-21T09:06:30.586Z</time>
      </trkpt>
      <trkpt lat="47.516944" lon="8.188840">
        <ele>394.599936</ele>
        <time>2021-11-21T09:06:33.907Z</time>
      </trkpt>
      <trkpt lat="47.517117" lon="8.188760">
        <ele>395.085335</ele>
        <time>2021-11-21T09:06:39.029Z</time>
      </trkpt>
      <trkpt lat="47.517285" lon="8.188659">
        <ele>395.594317</ele>
        <time>2021-11-21T09:06:44.117Z</time>
      </trkpt>
      <trkpt lat="47.517536" lon="8.188495">
        <ele>396.555545</ele>
        <time>2021-11-21T09:06:52.199Z</time>
      </trkpt>
      <trkpt lat="47.517762" lon="8.188338">
        <ele>397.430184</ele>
        <time>2021-11-21T09:06:59.758Z</time>
      </trkpt>
      <trkpt lat="47.518144" lon="8.188042">
        <ele>398.940762</ele>
        <time>2021-11-21T09:07:12.895Z</time>
      </trkpt>
      <trkpt lat="47.518797" lon="8.187487">
        <ele>401.578746</ele>
        <time>2021-11-21T09:07:34.211Z</time>
      </trkpt>
      <trkpt lat="47.518919" lon="8.187383">
        <ele>402.066587</ele>
        <time>2021-11-21T09:07:38.008Z</time>
      </trkpt>
      <trkpt lat="47.519082" lon="8.187247">
        <ele>402.709289</ele>
        <time>2021-11-21T09:07:42.685Z</time>
      </trkpt>
      <trkpt lat="47.519270" lon="8.187089">
        <ele>403.451867</ele>
        <time>2021-11-21T09:07:48.861Z</time>
      </trkpt>
      <trkpt lat="47.519650" lon="8.186763">
        <ele>404.960482</ele>
        <time>2021-11-21T09:08:01.405Z</time>
      </trkpt>
      <trkpt lat="47.519919" lon="8.186523">
        <ele>406.039310</ele>
        <time>2021-11-21T09:08:10.538Z</time>
      </trkpt>
      <trkpt lat="47.520283" lon="8.186229">
        <ele>407.463620</ele>
        <time>2021-11-21T09:08:22.370Z</time>
      </trkpt>
      <trkpt lat="47.520432" lon="8.186093">
        <ele>408.095361</ele>
        <time>2021-11-21T09:08:27.488Z</time>
      </trkpt>
      <trkpt lat="47.520524" lon="8.186006">
        <ele>408.598220</ele>
        <time>2021-11-21T09:08:30.664Z</time>
      </trkpt>
      <trkpt lat="47.520676" lon="8.185836">
        <ele>409.475709</ele>
        <time>2021-11-21T09:08:36.282Z</time>
      </trkpt>
      <trkpt lat="47.521014" lon="8.185264">
        <ele>411.840209</ele>
        <time>2021-11-21T09:08:52.523Z</time>
      </trkpt>
      <trkpt lat="47.521136" lon="8.184787">
        <ele>413.426987</ele>
        <time>2021-11-21T09:09:04.383Z</time>
      </trkpt>
      <trkpt lat="47.521251" lon="8.183982">
        <ele>415.986706</ele>
        <time>2021-11-21T09:09:24.331Z</time>
      </trkpt>
      <trkpt lat="47.521367" lon="8.183213">
        <ele>418.927766</ele>
        <time>2021-11-21T09:09:44.234Z</time>
      </trkpt>
      <trkpt lat="47.521447" lon="8.182661">
        <ele>421.079289</ele>
        <time>2021-11-21T09:09:58.451Z</time>
      </trkpt>
      <trkpt lat="47.521560" lon="8.182094">
        <ele>423.332205</ele>
        <time>2021-11-21T09:10:13.212Z</time>
      </trkpt>
      <trkpt lat="47.521670" lon="8.181716">
        <ele>424.900781</ele>
        <time>2021-11-21T09:10:24.800Z</time>
      </trkpt>
      <trkpt lat="47.521736" lon="8.181541">
        <ele>425.664641</ele>
        <time>2021-11-21T09:10:30.043Z</time>
      </trkpt>
      <trkpt lat="47.521964" lon="8.181072">
        <ele>427.626754</ele>
        <time>2021-11-21T09:10:44.621Z</time>
      </trkpt>
      <trkpt lat="47.522489" lon="8.180212">
        <ele>431.315887</ele>
        <time>2021-11-21T09:11:10.555Z</time>
      </trkpt>
      <trkpt lat="47.522561" lon="8.180084">
        <ele>431.845999</ele>
        <time>2021-11-21T09:11:15.106Z</time>
      </trkpt>
      <trkpt lat="47.522604" lon="8.180007">
        <ele>432.163954</ele>
        <time>2021-11-21T09:11:17.168Z</time>
      </trkpt>
      <trkpt lat="47.522744" lon="8.179763">
        <ele>433.182821</ele>
        <time>2021-11-21T09:11:23.366Z</time>
      </trkpt>
      <trkpt lat="47.522960" lon="8.179132">
        <ele>435.514653</ele>
        <time>2021-11-21T09:11:38.135Z</time>
      </trkpt>
      <trkpt lat="47.523042" lon="8.178308">
        <ele>438.555730</ele>
        <time>2021-11-21T09:11:56.217Z</time>
      </trkpt>
      <trkpt lat="47.523061" lon="8.177323">
        <ele>442.153622</ele>
        <time>2021-11-21T09:12:20.446Z</time>
      </trkpt>
      <trkpt lat="47.523093" lon="8.176377">
        <ele>446.191318</ele>
        <time>2021-11-21T09:12:46.665Z</time>
      </trkpt>
      <trkpt lat="47.523138" lon="8.175042">
        <ele>453.898604</ele>
        <time>2021-11-21T09:13:30.663Z</time>
      </trkpt>
      <trkpt lat="47.523512" lon="8.172934">
        <ele>467.021750</ele>
        <time>2021-11-21T09:14:49.132Z</time>
      </trkpt>
      <trkpt lat="47.523811" lon="8.171359">
        <ele>477.142045</ele>
        <time>2021-11-21T09:15:46.413Z</time>
      </trkpt>
      <trkpt lat="47.523894" lon="8.170892">
        <ele>479.578682</ele>
        <time>2021-11-21T09:16:02.313Z</time>
      </trkpt>
      <trkpt lat="47.524251" lon="8.168070">
        <ele>493.811694</ele>
        <time>2021-11-21T09:17:25.066Z</time>
      </trkpt>
      <trkpt lat="47.524502" lon="8.166796">
        <ele>500.081268</ele>
        <time>2021-11-21T09:18:02.882Z</time>
      </trkpt>
      <trkpt lat="47.524572" lon="8.166545">
        <ele>501.364187</ele>
        <time>2021-11-21T09:18:10.982Z</time>
      </trkpt>
      <trkpt lat="47.524622" lon="8.166379">
        <ele>502.222879</ele>
        <time>2021-11-21T09:18:16.120Z</time>
      </trkpt>
      <trkpt lat="47.524789" lon="8.165884">
        <ele>505.172131</ele>
        <time>2021-11-21T09:18:32.521Z</time>
      </trkpt>
      <trkpt lat="47.525278" lon="8.164811">
        <ele>512.231088</ele>
        <time>2021-11-21T09:19:14.048Z</time>
      </trkpt>
      <trkpt lat="47.525520" lon="8.164388">
        <ele>515.254254</ele>
        <time>2021-11-21T09:19:33.264Z</time>
      </trkpt>
      <trkpt lat="47.526029" lon="8.163712">
        <ele>520.731917</ele>
        <time>2021-11-21T09:20:05.816Z</time>
      </trkpt>
      <trkpt lat="47.526202" lon="8.163510">
        <ele>522.489385</ele>
        <time>2021-11-21T09:20:16.871Z</time>
      </trkpt>
      <trkpt lat="47.526614" lon="8.163062">
        <ele>526.566919</ele>
        <time>2021-11-21T09:20:40.205Z</time>
      </trkpt>
      <trkpt lat="47.526845" lon="8.162813">
        <ele>528.846159</ele>
        <time>2021-11-21T09:20:52.895Z</time>
      </trkpt>
      <trkpt lat="47.527073" lon="8.162555">
        <ele>531.135196</ele>
        <time>2021-11-21T09:21:06.912Z</time>
      </trkpt>
      <trkpt lat="47.527259" lon="8.162351">
        <ele>532.795595</ele>
        <time>2021-11-21T09:21:17.932Z</time>
      </trkpt>
      <trkpt lat="47.527699" lon="8.161810">
        <ele>536.769952</ele>
        <time>2021-11-21T09:21:41.571Z</time>
      </trkpt>
      <trkpt lat="47.527813" lon="8.161522">
        <ele>538.336529</ele>
        <time>2021-11-21T09:21:50.877Z</time>
      </trkpt>
      <trkpt lat="47.527850" lon="8.161247">
        <ele>539.652368</ele>
        <time>2021-11-21T09:21:58.944Z</time>
      </trkpt>
      <trkpt lat="47.527845" lon="8.161149">
        <ele>540.113556</ele>
        <time>2021-11-21T09:22:02.610Z</time>
      </trkpt>
      <trkpt lat="47.527842" lon="8.161073">
        <ele>540.470804</ele>
        <time>2021-11-21T09:22:04.203Z</time>
      </trkpt>
      <trkpt lat="47.527767" lon="8.160384">
        <ele>543.745764</ele>
        <time>2021-11-21T09:22:22.322Z</time>
      </trkpt>
      <trkpt lat="47.527761" lon="8.160295">
        <ele>544.114613</ele>
        <time>2021-11-21T09:22:24.157Z</time>
      </trkpt>
      <trkpt lat="47.527764" lon="8.160196">
        <ele>544.394391</ele>
        <time>2021-11-21T09:22:27.987Z</time>
      </trkpt>
      <trkpt lat="47.527794" lon="8.159980">
        <ele>545.016969</ele>
        <time>2021-11-21T09:22:33.910Z</time>
      </trkpt>
      <trkpt lat="47.527823" lon="8.159869">
        <ele>545.352984</ele>
        <time>2021-11-21T09:22:39.106Z</time>
      </trkpt>
      <trkpt lat="47.527866" lon="8.159756">
        <ele>545.719177</ele>
        <time>2021-11-21T09:22:41.935Z</time>
      </trkpt>
      <trkpt lat="47.528044" lon="8.159481">
        <ele>546.794650</ele>
        <time>2021-11-21T09:22:54.125Z</time>
      </trkpt>
      <trkpt lat="47.528235" lon="8.159313">
        <ele>547.723464</ele>
        <time>2021-11-21T09:23:03.078Z</time>
      </trkpt>
      <trkpt lat="47.528358" lon="8.159233">
        <ele>548.285145</ele>
        <time>2021-11-21T09:23:07.204Z</time>
      </trkpt>
      <trkpt lat="47.528551" lon="8.159101">
        <ele>549.173986</ele>
        <time>2021-11-21T09:23:14.202Z</time>
      </trkpt>
      <trkpt lat="47.528696" lon="8.159009">
        <ele>549.833537</ele>
        <time>2021-11-21T09:23:18.521Z</time>
      </trkpt>
      <trkpt lat="47.528773" lon="8.158954">
        <ele>550.190968</ele>
        <time>2021-11-21T09:23:19.650Z</time>
      </trkpt>
      <trkpt lat="47.528873" lon="8.158872">
        <ele>550.668885</ele>
        <time>2021-11-21T09:23:23.047Z</time>
      </trkpt>
      <trkpt lat="47.528962" lon="8.158795">
        <ele>551.099844</ele>
        <time>2021-11-21T09:23:24.063Z</time>
      </trkpt>
      <trkpt lat="47.529013" lon="8.158747">
        <ele>551.352494</ele>
        <time>2021-11-21T09:23:27.482Z</time>
      </trkpt>
      <trkpt lat="47.529039" lon="8.158720">
        <ele>551.485263</ele>
        <time>2021-11-21T09:23:27.803Z</time>
      </trkpt>
      <trkpt lat="47.529091" lon="8.158660">
        <ele>551.283687</ele>
        <time>2021-11-21T09:23:28.457Z</time>
      </trkpt>
      <trkpt lat="47.529235" lon="8.158441">
        <ele>550.116274</ele>
        <time>2021-11-21T09:23:30.560Z</time>
      </trkpt>
      <trkpt lat="47.529315" lon="8.158315">
        <ele>549.455755</ele>
        <time>2021-11-21T09:23:32.230Z</time>
      </trkpt>
      <trkpt lat="47.529437" lon="8.158073">
        <ele>548.302377</ele>
        <time>2021-11-21T09:23:34.232Z</time>
      </trkpt>
      <trkpt lat="47.529679" lon="8.157567">
        <ele>545.934327</ele>
        <time>2021-11-21T09:23:38.169Z</time>
      </trkpt>
      <trkpt lat="47.529810" lon="8.157300">
        <ele>544.673891</ele>
        <time>2021-11-21T09:23:40.259Z</time>
      </trkpt>
      <trkpt lat="47.529856" lon="8.157192">
        <ele>544.186239</ele>
        <time>2021-11-21T09:23:40.977Z</time>
      </trkpt>
      <trkpt lat="47.530071" lon="8.156701">
        <ele>541.951342</ele>
        <time>2021-11-21T09:23:44.393Z</time>
      </trkpt>
      <trkpt lat="47.530199" lon="8.156282">
        <ele>539.356255</ele>
        <time>2021-11-21T09:23:47.047Z</time>
      </trkpt>
      <trkpt lat="47.530239" lon="8.155804">
        <ele>536.220176</ele>
        <time>2021-11-21T09:23:49.850Z</time>
      </trkpt>
      <trkpt lat="47.530234" lon="8.155720">
        <ele>535.671129</ele>
        <time>2021-11-21T09:23:50.321Z</time>
      </trkpt>
      <trkpt lat="47.530211" lon="8.155580">
        <ele>534.732992</ele>
        <time>2021-11-21T09:23:51.140Z</time>
      </trkpt>
      <trkpt lat="47.530058" lon="8.154979">
        <ele>530.550964</ele>
        <time>2021-11-21T09:23:54.869Z</time>
      </trkpt>
      <trkpt lat="47.529728" lon="8.154087">
        <ele>523.967188</ele>
        <time>2021-11-21T09:24:00.869Z</time>
      </trkpt>
      <trkpt lat="47.529587" lon="8.153510">
        <ele>521.353471</ele>
        <time>2021-11-21T09:24:04.577Z</time>
      </trkpt>
      <trkpt lat="47.529529" lon="8.153239">
        <ele>520.142555</ele>
        <time>2021-11-21T09:24:06.341Z</time>
      </trkpt>
      <trkpt lat="47.529405" lon="8.152475">
        <ele>516.795619</ele>
        <time>2021-11-21T09:24:11.230Z</time>
      </trkpt>
      <trkpt lat="47.529292" lon="8.151912">
        <ele>514.293821</ele>
        <time>2021-11-21T09:24:14.885Z</time>
      </trkpt>
      <trkpt lat="47.529120" lon="8.151400">
        <ele>512.205235</ele>
        <time>2021-11-21T09:24:18.439Z</time>
      </trkpt>
      <trkpt lat="47.529014" lon="8.151078">
        <ele>511.313196</ele>
        <time>2021-11-21T09:24:20.716Z</time>
      </trkpt>
      <trkpt lat="47.528964" lon="8.150888">
        <ele>510.805408</ele>
        <time>2021-11-21T09:24:22.024Z</time>
      </trkpt>
      <trkpt lat="47.528852" lon="8.149954">
        <ele>508.443229</ele>
        <time>2021-11-21T09:24:28.414Z</time>
      </trkpt>
      <trkpt lat="47.528834" lon="8.149583">
        <ele>507.517006</ele>
        <time>2021-11-21T09:24:30.995Z</time>
      </trkpt>
      <trkpt lat="47.528815" lon="8.149196">
        <ele>506.550778</ele>
        <time>2021-11-21T09:24:33.746Z</time>
      </trkpt>
      <trkpt lat="47.528722" lon="8.148418">
        <ele>505.256088</ele>
        <time>2021-11-21T09:24:39.603Z</time>
      </trkpt>
      <trkpt lat="47.528534" lon="8.147807">
        <ele>504.345439</ele>
        <time>2021-11-21T09:24:45.025Z</time>
      </trkpt>
      <trkpt lat="47.528477" lon="8.147642">
        <ele>504.094072</ele>
        <time>2021-11-21T09:24:46.624Z</time>
      </trkpt>
      <trkpt lat="47.528291" lon="8.147059">
        <ele>503.219558</ele>
        <time>2021-11-21T09:24:51.849Z</time>
      </trkpt>
      <trkpt lat="47.528185" lon="8.146699">
        <ele>502.686904</ele>
        <time>2021-11-21T09:24:55.086Z</time>
      </trkpt>
      <trkpt lat="47.528149" lon="8.146523">
        <ele>502.401795</ele>
        <time>2021-11-21T09:24:56.361Z</time>
      </trkpt>
      <trkpt lat="47.528029" lon="8.145634">
        <ele>497.008681</ele>
        <time>2021-11-21T09:25:02.129Z</time>
      </trkpt>
      <trkpt lat="47.528031" lon="8.145045">
        <ele>493.504794</ele>
        <time>2021-11-21T09:25:05.556Z</time>
      </trkpt>
      <trkpt lat="47.528051" lon="8.144879">
        <ele>492.501696</ele>
        <time>2021-11-21T09:25:06.526Z</time>
      </trkpt>
      <trkpt lat="47.528102" lon="8.144463">
        <ele>489.986539</ele>
        <time>2021-11-21T09:25:08.965Z</time>
      </trkpt>
      <trkpt lat="47.528165" lon="8.144175">
        <ele>488.185625</ele>
        <time>2021-11-21T09:25:10.698Z</time>
      </trkpt>
      <trkpt lat="47.528319" lon="8.143633">
        <ele>483.238745</ele>
        <time>2021-11-21T09:25:14.033Z</time>
      </trkpt>
      <trkpt lat="47.528529" lon="8.143139">
        <ele>477.138061</ele>
        <time>2021-11-21T09:25:17.300Z</time>
      </trkpt>
      <trkpt lat="47.529056" lon="8.142203">
        <ele>464.401547</ele>
        <time>2021-11-21T09:25:24.075Z</time>
      </trkpt>
      <trkpt lat="47.529206" lon="8.141942">
        <ele>460.819635</ele>
        <time>2021-11-21T09:25:25.984Z</time>
      </trkpt>
      <trkpt lat="47.529330" lon="8.141745">
        <ele>458.242123</ele>
        <time>2021-11-21T09:25:27.487Z</time>
      </trkpt>
      <trkpt lat="47.529595" lon="8.141302">
        <ele>453.991345</ele>
        <time>2021-11-21T09:25:30.839Z</time>
      </trkpt>
      <trkpt lat="47.529775" lon="8.140977">
        <ele>450.972321</ele>
        <time>2021-11-21T09:25:33.241Z</time>
      </trkpt>
      <trkpt lat="47.530071" lon="8.140473">
        <ele>446.174770</ele>
        <time>2021-11-21T09:25:37.232Z</time>
      </trkpt>
      <trkpt lat="47.530742" lon="8.139379">
        <ele>437.430197</ele>
        <time>2021-11-21T09:25:45.895Z</time>
      </trkpt>
      <trkpt lat="47.531156" lon="8.138865">
        <ele>434.323945</ele>
        <time>2021-11-21T09:25:51.591Z</time>
      </trkpt>
      <trkpt lat="47.531239" lon="8.138781">
        <ele>433.745918</ele>
        <time>2021-11-21T09:25:52.417Z</time>
      </trkpt>
      <trkpt lat="47.531449" lon="8.138596">
        <ele>432.340968</ele>
        <time>2021-11-21T09:25:58.768Z</time>
      </trkpt>
      <trkpt lat="47.531568" lon="8.138521">
        <ele>431.597346</ele>
        <time>2021-11-21T09:25:59.841Z</time>
      </trkpt>
      <trkpt lat="47.531896" lon="8.138317">
        <ele>429.551818</ele>
        <time>2021-11-21T09:26:03.304Z</time>
      </trkpt>
      <trkpt lat="47.532062" lon="8.138249">
        <ele>428.659588</ele>
        <time>2021-11-21T09:26:07.470Z</time>
      </trkpt>
      <trkpt lat="47.532251" lon="8.138188">
        <ele>427.697360</ele>
        <time>2021-11-21T09:26:09.136Z</time>
      </trkpt>
      <trkpt lat="47.532921" lon="8.138051">
        <ele>424.332892</ele>
        <time>2021-11-21T09:26:15.438Z</time>
      </trkpt>
      <trkpt lat="47.533257" lon="8.137990">
        <ele>422.648980</ele>
        <time>2021-11-21T09:26:18.724Z</time>
      </trkpt>
      <trkpt lat="47.533600" lon="8.137926">
        <ele>420.929271</ele>
        <time>2021-11-21T09:26:22.003Z</time>
      </trkpt>
      <trkpt lat="47.533889" lon="8.137879">
        <ele>419.454936</ele>
        <time>2021-11-21T09:26:24.736Z</time>
      </trkpt>
      <trkpt lat="47.534074" lon="8.137846">
        <ele>418.497693</ele>
        <time>2021-11-21T09:26:26.493Z</time>
      </trkpt>
      <trkpt lat="47.534107" lon="8.137840">
        <ele>418.326895</ele>
        <time>2021-11-21T09:26:26.824Z</time>
      </trkpt>
      <trkpt lat="47.534213" lon="8.137821">
        <ele>417.778383</ele>
        <time>2021-11-21T09:26:27.799Z</time>
      </trkpt>
      <trkpt lat="47.534814" lon="8.137722">
        <ele>414.671914</ele>
        <time>2021-11-21T09:26:33.428Z</time>
      </trkpt>
      <trkpt lat="47.535048" lon="8.137685">
        <ele>413.462988</ele>
        <time>2021-11-21T09:26:35.593Z</time>
      </trkpt>
      <trkpt lat="47.535119" lon="8.137674">
        <ele>413.096259</ele>
        <time>2021-11-21T09:26:36.268Z</time>
      </trkpt>
      <trkpt lat="47.535263" lon="8.137663">
        <ele>412.355525</ele>
        <time>2021-11-21T09:26:37.651Z</time>
      </trkpt>
      <trkpt lat="47.535322" lon="8.137658">
        <ele>412.051937</ele>
        <time>2021-11-21T09:26:38.187Z</time>
      </trkpt>
      <trkpt lat="47.535430" lon="8.137649">
        <ele>411.496246</ele>
        <time>2021-11-21T09:26:39.211Z</time>
      </trkpt>
      <trkpt lat="47.535502" lon="8.137652">
        <ele>411.126224</ele>
        <time>2021-11-21T09:26:39.905Z</time>
      </trkpt>
      <trkpt lat="47.535749" lon="8.137651">
        <ele>410.126042</ele>
        <time>2021-11-21T09:26:42.252Z</time>
      </trkpt>
      <trkpt lat="47.536065" lon="8.137655">
        <ele>408.853195</ele>
        <time>2021-11-21T09:26:45.351Z</time>
      </trkpt>
      <trkpt lat="47.536180" lon="8.137660">
        <ele>408.389793</ele>
        <time>2021-11-21T09:26:46.440Z</time>
      </trkpt>
      <trkpt lat="47.536373" lon="8.137663">
        <ele>407.612375</ele>
        <time>2021-11-21T09:26:48.331Z</time>
      </trkpt>
      <trkpt lat="47.536388" lon="8.137662">
        <ele>407.551896</ele>
        <time>2021-11-21T09:26:48.461Z</time>
      </trkpt>
      <trkpt lat="47.537303" lon="8.137605">
        <ele>403.863155</ele>
        <time>2021-11-21T09:26:57.468Z</time>
      </trkpt>
      <trkpt lat="47.537561" lon="8.137544">
        <ele>403.214350</ele>
        <time>2021-11-21T09:27:00.187Z</time>
      </trkpt>
      <trkpt lat="47.537646" lon="8.137515">
        <ele>402.998532</ele>
        <time>2021-11-21T09:27:01.060Z</time>
      </trkpt>
      <trkpt lat="47.537954" lon="8.137399">
        <ele>402.212215</ele>
        <time>2021-11-21T09:27:04.479Z</time>
      </trkpt>
      <trkpt lat="47.538245" lon="8.137269">
        <ele>401.460176</ele>
        <time>2021-11-21T09:27:07.849Z</time>
      </trkpt>
      <trkpt lat="47.538326" lon="8.137234">
        <ele>401.251408</ele>
        <time>2021-11-21T09:27:08.736Z</time>
      </trkpt>
      <trkpt lat="47.539177" lon="8.136833">
        <ele>399.011418</ele>
        <time>2021-11-21T09:27:18.434Z</time>
      </trkpt>
      <trkpt lat="47.539418" lon="8.136710">
        <ele>398.328119</ele>
        <time>2021-11-21T09:27:21.202Z</time>
      </trkpt>
      <trkpt lat="47.539754" lon="8.136528">
        <ele>397.369102</ele>
        <time>2021-11-21T09:27:24.980Z</time>
      </trkpt>
      <trkpt lat="47.540238" lon="8.136236">
        <ele>395.968205</ele>
        <time>2021-11-21T09:27:30.381Z</time>
      </trkpt>
      <trkpt lat="47.540569" lon="8.135993">
        <ele>394.977932</ele>
        <time>2021-11-21T09:27:34.190Z</time>
      </trkpt>
      <trkpt lat="47.540731" lon="8.135878">
        <ele>394.478121</ele>
        <time>2021-11-21T09:27:36.097Z</time>
      </trkpt>
      <trkpt lat="47.540869" lon="8.135758">
        <ele>393.961019</ele>
        <time>2021-11-21T09:27:37.621Z</time>
      </trkpt>
      <trkpt lat="47.541466" lon="8.135315">
        <ele>391.803307</ele>
        <time>2021-11-21T09:27:44.416Z</time>
      </trkpt>
      <trkpt lat="47.541516" lon="8.135303">
        <ele>391.639626</ele>
        <time>2021-11-21T09:27:44.874Z</time>
      </trkpt>
      <trkpt lat="47.541574" lon="8.135288">
        <ele>391.449364</ele>
        <time>2021-11-21T09:27:45.452Z</time>
      </trkpt>
      <trkpt lat="47.541750" lon="8.135267">
        <ele>390.878779</ele>
        <time>2021-11-21T09:27:47.271Z</time>
      </trkpt>
      <trkpt lat="47.541919" lon="8.135253">
        <ele>390.331803</ele>
        <time>2021-11-21T09:27:48.903Z</time>
      </trkpt>
      <trkpt lat="47.542003" lon="8.135244">
        <ele>390.059649</ele>
        <time>2021-11-21T09:27:49.786Z</time>
      </trkpt>
      <trkpt lat="47.542148" lon="8.135197">
        <ele>389.579996</ele>
        <time>2021-11-21T09:27:51.316Z</time>
      </trkpt>
      <trkpt lat="47.542698" lon="8.134836">
        <ele>387.904156</ele>
        <time>2021-11-21T09:27:57.538Z</time>
      </trkpt>
      <trkpt lat="47.542844" lon="8.134643">
        <ele>387.420954</ele>
        <time>2021-11-21T09:27:59.585Z</time>
      </trkpt>
      <trkpt lat="47.542894" lon="8.134525">
        <ele>387.188715</ele>
        <time>2021-11-21T09:28:00.526Z</time>
      </trkpt>
      <trkpt lat="47.542926" lon="8.134419">
        <ele>386.995156</ele>
        <time>2021-11-21T09:28:01.476Z</time>
      </trkpt>
      <trkpt lat="47.543005" lon="8.134187">
        <ele>386.562012</ele>
        <time>2021-11-21T09:28:03.365Z</time>
      </trkpt>
      <trkpt lat="47.543075" lon="8.134036">
        <ele>386.256667</ele>
        <time>2021-11-21T09:28:04.643Z</time>
      </trkpt>
      <trkpt lat="47.543149" lon="8.133918">
        <ele>385.988187</ele>
        <time>2021-11-21T09:28:05.888Z</time>
      </trkpt>
      <trkpt lat="47.543220" lon="8.133852">
        <ele>385.781202</ele>
        <time>2021-11-21T09:28:06.746Z</time>
      </trkpt>
      <trkpt lat="47.543321" lon="8.133795">
        <ele>385.514309</ele>
        <time>2021-11-21T09:28:07.845Z</time>
      </trkpt>
      <trkpt lat="47.543505" lon="8.133721">
        <ele>385.043496</ele>
        <time>2021-11-21T09:28:10.058Z</time>
      </trkpt>
      <trkpt lat="47.543619" lon="8.133664">
        <ele>384.746384</ele>
        <time>2021-11-21T09:28:11.343Z</time>
      </trkpt>
      <trkpt lat="47.543708" lon="8.133619">
        <ele>384.514161</ele>
        <time>2021-11-21T09:28:12.285Z</time>
      </trkpt>
      <trkpt lat="47.543845" lon="8.133524">
        <ele>384.141792</ele>
        <time>2021-11-21T09:28:14.154Z</time>
      </trkpt>
      <trkpt lat="47.544105" lon="8.133316">
        <ele>383.416569</ele>
        <time>2021-11-21T09:28:17.264Z</time>
      </trkpt>
      <trkpt lat="47.544222" lon="8.133222">
        <ele>383.089904</ele>
        <time>2021-11-21T09:28:18.724Z</time>
      </trkpt>
      <trkpt lat="47.544453" lon="8.133038">
        <ele>382.446202</ele>
        <time>2021-11-21T09:28:21.653Z</time>
      </trkpt>
      <trkpt lat="47.544650" lon="8.132899">
        <ele>381.910663</ele>
        <time>2021-11-21T09:28:23.883Z</time>
      </trkpt>
      <trkpt lat="47.544810" lon="8.132765">
        <ele>381.459565</ele>
        <time>2021-11-21T09:28:25.924Z</time>
      </trkpt>
      <trkpt lat="47.545059" lon="8.132589">
        <ele>380.782446</ele>
        <time>2021-11-21T09:28:28.814Z</time>
      </trkpt>
      <trkpt lat="47.545184" lon="8.132503">
        <ele>380.444187</ele>
        <time>2021-11-21T09:28:30.230Z</time>
      </trkpt>
      <trkpt lat="47.545331" lon="8.132442">
        <ele>380.069517</ele>
        <time>2021-11-21T09:28:31.790Z</time>
      </trkpt>
      <trkpt lat="47.545734" lon="8.132329">
        <ele>378.827921</ele>
        <time>2021-11-21T09:28:36.020Z</time>
      </trkpt>
      <trkpt lat="47.545962" lon="8.132304">
        <ele>378.112452</ele>
        <time>2021-11-21T09:28:38.330Z</time>
      </trkpt>
      <trkpt lat="47.546023" lon="8.132300">
        <ele>377.921368</ele>
        <time>2021-11-21T09:28:38.933Z</time>
      </trkpt>
      <trkpt lat="47.546602" lon="8.132235">
        <ele>376.104217</ele>
        <time>2021-11-21T09:28:44.820Z</time>
      </trkpt>
      <trkpt lat="47.546938" lon="8.132181">
        <ele>375.046550</ele>
        <time>2021-11-21T09:28:48.193Z</time>
      </trkpt>
      <trkpt lat="47.547951" lon="8.132055">
        <ele>372.614715</ele>
        <time>2021-11-21T09:28:58.680Z</time>
      </trkpt>
      <trkpt lat="47.548544" lon="8.131974">
        <ele>371.327537</ele>
        <time>2021-11-21T09:29:05.244Z</time>
      </trkpt>
      <trkpt lat="47.549752" lon="8.131786">
        <ele>369.672406</ele>
        <time>2021-11-21T09:29:19.894Z</time>
      </trkpt>
      <trkpt lat="47.550488" lon="8.131671">
        <ele>368.986633</ele>
        <time>2021-11-21T09:29:29.482Z</time>
      </trkpt>
      <trkpt lat="47.550614" lon="8.131652">
        <ele>368.869276</ele>
        <time>2021-11-21T09:29:31.337Z</time>
      </trkpt>
      <trkpt lat="47.550712" lon="8.131637">
        <ele>368.777984</ele>
        <time>2021-11-21T09:29:32.473Z</time>
      </trkpt>
      <trkpt lat="47.551029" lon="8.131586">
        <ele>368.358460</ele>
        <time>2021-11-21T09:29:36.497Z</time>
      </trkpt>
      <trkpt lat="47.551383" lon="8.131531">
        <ele>367.865830</ele>
        <time>2021-11-21T09:29:40.639Z</time>
      </trkpt>
      <trkpt lat="47.551749" lon="8.131479">
        <ele>367.356953</ele>
        <time>2021-11-21T09:29:44.916Z</time>
      </trkpt>
      <trkpt lat="47.551784" lon="8.131474">
        <ele>367.308288</ele>
        <time>2021-11-21T09:29:45.262Z</time>
      </trkpt>
      <trkpt lat="47.551873" lon="8.131469">
        <ele>367.185021</ele>
        <time>2021-11-21T09:29:46.280Z</time>
      </trkpt>
      <trkpt lat="47.552293" lon="8.131579">
        <ele>366.594720</ele>
        <time>2021-11-21T09:29:51.306Z</time>
      </trkpt>
      <trkpt lat="47.552326" lon="8.131597">
        <ele>366.546051</ele>
        <time>2021-11-21T09:29:51.619Z</time>
      </trkpt>
      <trkpt lat="47.552402" lon="8.131645">
        <ele>366.431708</ele>
        <time>2021-11-21T09:29:52.621Z</time>
      </trkpt>
      <trkpt lat="47.552493" lon="8.131722">
        <ele>366.286671</ele>
        <time>2021-11-21T09:29:53.778Z</time>
      </trkpt>
      <trkpt lat="47.552602" lon="8.131831">
        <ele>366.065936</ele>
        <time>2021-11-21T09:29:55.289Z</time>
      </trkpt>
      <trkpt lat="47.553483" lon="8.132756">
        <ele>364.157505</ele>
        <time>2021-11-21T09:30:07.344Z</time>
      </trkpt>
      <trkpt lat="47.553541" lon="8.132821">
        <ele>364.028973</ele>
        <time>2021-11-21T09:30:08.041Z</time>
      </trkpt>
      <trkpt lat="47.553641" lon="8.132928">
        <ele>363.810960</ele>
        <time>2021-11-21T09:30:09.572Z</time>
      </trkpt>
      <trkpt lat="47.553708" lon="8.133003">
        <ele>363.662546</ele>
        <time>2021-11-21T09:30:10.650Z</time>
      </trkpt>
      <trkpt lat="47.553759" lon="8.133056">
        <ele>363.552446</ele>
        <time>2021-11-21T09:30:11.381Z</time>
      </trkpt>
      <trkpt lat="47.553847" lon="8.133128">
        <ele>363.374774</ele>
        <time>2021-11-21T09:30:12.467Z</time>
      </trkpt>
      <trkpt lat="47.554071" lon="8.133239">
        <ele>362.947155</ele>
        <time>2021-11-21T09:30:15.226Z</time>
      </trkpt>
      <trkpt lat="47.554467" lon="8.133300">
        <ele>362.177397</ele>
        <time>2021-11-21T09:30:19.776Z</time>
      </trkpt>
      <trkpt lat="47.554619" lon="8.133314">
        <ele>361.882951</ele>
        <time>2021-11-21T09:30:21.380Z</time>
      </trkpt>
      <trkpt lat="47.554855" lon="8.133333">
        <ele>361.425993</ele>
        <time>2021-11-21T09:30:24.018Z</time>
      </trkpt>
      <trkpt lat="47.555303" lon="8.133375">
        <ele>360.558091</ele>
        <time>2021-11-21T09:30:28.951Z</time>
      </trkpt>
      <trkpt lat="47.555444" lon="8.133390">
        <ele>360.284778</ele>
        <time>2021-11-21T09:30:30.457Z</time>
      </trkpt>
      <trkpt lat="47.555690" lon="8.133401">
        <ele>359.808942</ele>
        <time>2021-11-21T09:30:33.212Z</time>
      </trkpt>
      <trkpt lat="47.555896" lon="8.133399">
        <ele>359.374877</ele>
        <time>2021-11-21T09:30:35.454Z</time>
      </trkpt>
      <trkpt lat="47.556093" lon="8.133383">
        <ele>358.916456</ele>
        <time>2021-11-21T09:30:37.583Z</time>
      </trkpt>
      <trkpt lat="47.556204" lon="8.133369">
        <ele>358.657613</ele>
        <time>2021-11-21T09:30:38.751Z</time>
      </trkpt>
      <trkpt lat="47.556513" lon="8.133340">
        <ele>357.938206</ele>
        <time>2021-11-21T09:30:42.062Z</time>
      </trkpt>
      <trkpt lat="47.557021" lon="8.133293">
        <ele>356.755559</ele>
        <time>2021-11-21T09:30:47.427Z</time>
      </trkpt>
      <trkpt lat="47.557237" lon="8.133273">
        <ele>356.252699</ele>
        <time>2021-11-21T09:30:49.719Z</time>
      </trkpt>
      <trkpt lat="47.557846" lon="8.133209">
        <ele>354.975699</ele>
        <time>2021-11-21T09:30:56.336Z</time>
      </trkpt>
      <trkpt lat="47.558277" lon="8.133165">
        <ele>354.219204</ele>
        <time>2021-11-21T09:31:00.951Z</time>
      </trkpt>
      <trkpt lat="47.558609" lon="8.133121">
        <ele>353.635531</ele>
        <time>2021-11-21T09:31:04.606Z</time>
      </trkpt>
      <trkpt lat="47.559286" lon="8.133042">
        <ele>352.446394</ele>
        <time>2021-11-21T09:31:12.574Z</time>
      </trkpt>
      <trkpt lat="47.559423" lon="8.133034">
        <ele>352.234060</ele>
        <time>2021-11-21T09:31:14.203Z</time>
      </trkpt>
      <trkpt lat="47.559553" lon="8.133012">
        <ele>352.125080</ele>
        <time>2021-11-21T09:31:18.654Z</time>
      </trkpt>
      <trkpt lat="47.559972" lon="8.132981">
        <ele>351.775663</ele>
        <time>2021-11-21T09:31:33.066Z</time>
      </trkpt>
      <trkpt lat="47.560046" lon="8.132973">
        <ele>351.713865</ele>
        <time>2021-11-21T09:31:35.453Z</time>
      </trkpt>
      <trkpt lat="47.560143" lon="8.132963">
        <ele>351.632880</ele>
        <time>2021-11-21T09:31:36.688Z</time>
      </trkpt>
      <trkpt lat="47.560243" lon="8.132948">
        <ele>351.549165</ele>
        <time>2021-11-21T09:31:37.934Z</time>
      </trkpt>
      <trkpt lat="47.560335" lon="8.132935">
        <ele>351.472191</ele>
        <time>2021-11-21T09:31:39.397Z</time>
      </trkpt>
      <trkpt lat="47.560777" lon="8.132722">
        <ele>351.085076</ele>
        <time>2021-11-21T09:31:45.214Z</time>
      </trkpt>
      <trkpt lat="47.560827" lon="8.132679">
        <ele>351.036926</ele>
        <time>2021-11-21T09:31:46.046Z</time>
      </trkpt>
      <trkpt lat="47.560889" lon="8.132614">
        <ele>350.973671</ele>
        <time>2021-11-21T09:31:46.995Z</time>
      </trkpt>
      <trkpt lat="47.561056" lon="8.132422">
        <ele>350.797626</ele>
        <time>2021-11-21T09:31:49.759Z</time>
      </trkpt>
      <trkpt lat="47.561185" lon="8.132211">
        <ele>350.620870</ele>
        <time>2021-11-21T09:31:52.294Z</time>
      </trkpt>
      <trkpt lat="47.561302" lon="8.131960">
        <ele>350.426193</ele>
        <time>2021-11-21T09:31:54.871Z</time>
      </trkpt>
      <trkpt lat="47.561796" lon="8.130897">
        <ele>349.602537</ele>
        <time>2021-11-21T09:32:05.984Z</time>
      </trkpt>
      <trkpt lat="47.562119" lon="8.130197">
        <ele>349.061385</ele>
        <time>2021-11-21T09:32:12.530Z</time>
      </trkpt>
      <trkpt lat="47.562169" lon="8.130101">
        <ele>348.953540</ele>
        <time>2021-11-21T09:32:13.556Z</time>
      </trkpt>
      <trkpt lat="47.562200" lon="8.130042">
        <ele>348.886749</ele>
        <time>2021-11-21T09:32:14.201Z</time>
      </trkpt>
      <trkpt lat="47.562419" lon="8.129559">
        <ele>348.366983</ele>
        <time>2021-11-21T09:32:18.874Z</time>
      </trkpt>
      <trkpt lat="47.562839" lon="8.128684">
        <ele>347.407868</ele>
        <time>2021-11-21T09:32:27.178Z</time>
      </trkpt>
      <trkpt lat="47.562984" lon="8.128403">
        <ele>347.091903</ele>
        <time>2021-11-21T09:32:29.980Z</time>
      </trkpt>
      <trkpt lat="47.563096" lon="8.128178">
        <ele>346.842169</ele>
        <time>2021-11-21T09:32:32.433Z</time>
      </trkpt>
      <trkpt lat="47.563232" lon="8.127932">
        <ele>346.524836</ele>
        <time>2021-11-21T09:32:34.896Z</time>
      </trkpt>
      <trkpt lat="47.563398" lon="8.127697">
        <ele>346.137557</ele>
        <time>2021-11-21T09:32:37.509Z</time>
      </trkpt>
      <trkpt lat="47.563589" lon="8.127466">
        <ele>345.721661</ele>
        <time>2021-11-21T09:32:41.487Z</time>
      </trkpt>
      <trkpt lat="47.563627" lon="8.127420">
        <ele>345.638887</ele>
        <time>2021-11-21T09:32:41.925Z</time>
      </trkpt>
      <trkpt lat="47.563751" lon="8.127247">
        <ele>345.351586</ele>
        <time>2021-11-21T09:32:43.747Z</time>
      </trkpt>
      <trkpt lat="47.563829" lon="8.127101">
        <ele>345.139605</ele>
        <time>2021-11-21T09:32:46.389Z</time>
      </trkpt>
      <trkpt lat="47.563898" lon="8.126936">
        <ele>344.918635</ele>
        <time>2021-11-21T09:32:50.032Z</time>
      </trkpt>
      <trkpt lat="47.563932" lon="8.126822">
        <ele>344.776754</ele>
        <time>2021-11-21T09:32:52.590Z</time>
      </trkpt>
      <trkpt lat="47.563935" lon="8.126813">
        <ele>344.765328</ele>
        <time>2021-11-21T09:32:52.777Z</time>
      </trkpt>
      <trkpt lat="47.563988" lon="8.126616">
        <ele>344.523909</ele>
        <time>2021-11-21T09:32:58.991Z</time>
      </trkpt>
      <trkpt lat="47.564016" lon="8.126515">
        <ele>344.399613</ele>
        <time>2021-11-21T09:33:00.897Z</time>
      </trkpt>
      <trkpt lat="47.564050" lon="8.126343">
        <ele>344.195592</ele>
        <time>2021-11-21T09:33:04.651Z</time>
      </trkpt>
      <trkpt lat="47.564078" lon="8.126253">
        <ele>344.082777</ele>
        <time>2021-11-21T09:33:07.140Z</time>
      </trkpt>
      <trkpt lat="47.564142" lon="8.126069">
        <ele>343.847135</ele>
        <time>2021-11-21T09:33:11.654Z</time>
      </trkpt>
      <trkpt lat="47.564204" lon="8.125933">
        <ele>343.660302</ele>
        <time>2021-11-21T09:33:12.758Z</time>
      </trkpt>
      <trkpt lat="47.564281" lon="8.125780">
        <ele>343.344785</ele>
        <time>2021-11-21T09:33:14.340Z</time>
      </trkpt>
      <trkpt lat="47.564404" lon="8.125557">
        <ele>342.857476</ele>
        <time>2021-11-21T09:33:16.387Z</time>
      </trkpt>
      <trkpt lat="47.564445" lon="8.125480">
        <ele>342.691523</ele>
        <time>2021-11-21T09:33:17.030Z</time>
      </trkpt>
      <trkpt lat="47.564862" lon="8.124663">
        <ele>340.958330</ele>
        <time>2021-11-21T09:33:24.397Z</time>
      </trkpt>
      <trkpt lat="47.565033" lon="8.124341">
        <ele>340.265052</ele>
        <time>2021-11-21T09:33:27.335Z</time>
      </trkpt>
      <trkpt lat="47.565098" lon="8.124202">
        <ele>339.978925</ele>
        <time>2021-11-21T09:33:28.456Z</time>
      </trkpt>
      <trkpt lat="47.565268" lon="8.123888">
        <ele>339.297805</ele>
        <time>2021-11-21T09:33:31.235Z</time>
      </trkpt>
      <trkpt lat="47.565326" lon="8.123776">
        <ele>339.086819</ele>
        <time>2021-11-21T09:33:32.154Z</time>
      </trkpt>
      <trkpt lat="47.565434" lon="8.123568">
        <ele>338.805299</ele>
        <time>2021-11-21T09:33:34.057Z</time>
      </trkpt>
      <trkpt lat="47.565629" lon="8.123189">
        <ele>338.294066</ele>
        <time>2021-11-21T09:33:37.561Z</time>
      </trkpt>
      <trkpt lat="47.565954" lon="8.122541">
        <ele>337.428018</ele>
        <time>2021-11-21T09:33:43.901Z</time>
      </trkpt>
      <trkpt lat="47.566102" lon="8.122133">
        <ele>336.931153</ele>
        <time>2021-11-21T09:33:47.769Z</time>
      </trkpt>
      <trkpt lat="47.566119" lon="8.122027">
        <ele>336.814287</ele>
        <time>2021-11-21T09:33:48.614Z</time>
      </trkpt>
      <trkpt lat="47.566151" lon="8.121930">
        <ele>336.698473</ele>
        <time>2021-11-21T09:33:49.708Z</time>
      </trkpt>
      <trkpt lat="47.566318" lon="8.120964">
        <ele>335.876933</ele>
        <time>2021-11-21T09:33:57.912Z</time>
      </trkpt>
      <trkpt lat="47.566366" lon="8.120637">
        <ele>335.655620</ele>
        <time>2021-11-21T09:34:00.735Z</time>
      </trkpt>
      <trkpt lat="47.566398" lon="8.120421">
        <ele>335.509370</ele>
        <time>2021-11-21T09:34:02.845Z</time>
      </trkpt>
      <trkpt lat="47.566431" lon="8.120180">
        <ele>335.346741</ele>
        <time>2021-11-21T09:34:04.844Z</time>
      </trkpt>
      <trkpt lat="47.566474" lon="8.119870">
        <ele>335.137442</ele>
        <time>2021-11-21T09:34:07.705Z</time>
      </trkpt>
      <trkpt lat="47.566566" lon="8.119245">
        <ele>334.714390</ele>
        <time>2021-11-21T09:34:13.027Z</time>
      </trkpt>
      <trkpt lat="47.566580" lon="8.119152">
        <ele>334.651375</ele>
        <time>2021-11-21T09:34:13.698Z</time>
      </trkpt>
      <trkpt lat="47.566644" lon="8.118715">
        <ele>334.328415</ele>
        <time>2021-11-21T09:34:17.310Z</time>
      </trkpt>
      <trkpt lat="47.566733" lon="8.118099">
        <ele>333.839673</ele>
        <time>2021-11-21T09:34:21.974Z</time>
      </trkpt>
      <trkpt lat="47.566811" lon="8.117556">
        <ele>333.408960</ele>
        <time>2021-11-21T09:34:26.146Z</time>
      </trkpt>
      <trkpt lat="47.566944" lon="8.116530">
        <ele>332.598410</ele>
        <time>2021-11-21T09:34:35.189Z</time>
      </trkpt>
      <trkpt lat="47.566983" lon="8.116203">
        <ele>332.390335</ele>
        <time>2021-11-21T09:34:38.131Z</time>
      </trkpt>
      <trkpt lat="47.567009" lon="8.116010">
        <ele>332.310385</ele>
        <time>2021-11-21T09:34:40.806Z</time>
      </trkpt>
      <trkpt lat="47.567157" lon="8.115310">
        <ele>332.012388</ele>
        <time>2021-11-21T09:34:47.065Z</time>
      </trkpt>
      <trkpt lat="47.567411" lon="8.114753">
        <ele>331.739287</ele>
        <time>2021-11-21T09:34:52.727Z</time>
      </trkpt>
      <trkpt lat="47.567654" lon="8.114290">
        <ele>331.501001</ele>
        <time>2021-11-21T09:34:58.046Z</time>
      </trkpt>
      <trkpt lat="47.567881" lon="8.113862">
        <ele>331.075739</ele>
        <time>2021-11-21T09:35:03.046Z</time>
      </trkpt>
      <trkpt lat="47.568167" lon="8.113323">
        <ele>330.104174</ele>
        <time>2021-11-21T09:35:08.994Z</time>
      </trkpt>
      <trkpt lat="47.568835" lon="8.112063">
        <ele>327.833736</ele>
        <time>2021-11-21T09:35:20.331Z</time>
      </trkpt>
      <trkpt lat="47.569083" lon="8.111567">
        <ele>326.596601</ele>
        <time>2021-11-21T09:35:24.519Z</time>
      </trkpt>
      <trkpt lat="47.569107" lon="8.111522">
        <ele>326.468257</ele>
        <time>2021-11-21T09:35:24.846Z</time>
      </trkpt>
      <trkpt lat="47.569423" lon="8.110628">
        <ele>324.210080</ele>
        <time>2021-11-21T09:35:31.662Z</time>
      </trkpt>
      <trkpt lat="47.569495" lon="8.110499">
        <ele>323.835487</ele>
        <time>2021-11-21T09:35:32.659Z</time>
      </trkpt>
      <trkpt lat="47.569574" lon="8.110385">
        <ele>323.469842</ele>
        <time>2021-11-21T09:35:33.723Z</time>
      </trkpt>
      <trkpt lat="47.569664" lon="8.110262">
        <ele>323.063863</ele>
        <time>2021-11-21T09:35:36.072Z</time>
      </trkpt>
      <trkpt lat="47.569787" lon="8.110094">
        <ele>322.509177</ele>
        <time>2021-11-21T09:35:37.628Z</time>
      </trkpt>
      <trkpt lat="47.569974" lon="8.109825">
        <ele>321.644988</ele>
        <time>2021-11-21T09:35:40.519Z</time>
      </trkpt>
      <trkpt lat="47.570263" lon="8.109376">
        <ele>322.082916</ele>
        <time>2021-11-21T09:35:45.100Z</time>
      </trkpt>
      <trkpt lat="47.570283" lon="8.109343">
        <ele>322.116608</ele>
        <time>2021-11-21T09:35:45.400Z</time>
      </trkpt>
      <trkpt lat="47.570582" lon="8.108889">
        <ele>322.598485</ele>
        <time>2021-11-21T09:35:50.984Z</time>
      </trkpt>
      <trkpt lat="47.570830" lon="8.108502">
        <ele>323.003878</ele>
        <time>2021-11-21T09:36:01.310Z</time>
      </trkpt>
      <trkpt lat="47.571253" lon="8.107823">
        <ele>323.693274</ele>
        <time>2021-11-21T09:36:20.671Z</time>
      </trkpt>
      <trkpt lat="47.571440" lon="8.107260">
        <ele>324.071757</ele>
        <time>2021-11-21T09:36:33.510Z</time>
      </trkpt>
      <trkpt lat="47.571458" lon="8.107087">
        <ele>324.177332</ele>
        <time>2021-11-21T09:36:37.634Z</time>
      </trkpt>
      <trkpt lat="47.571460" lon="8.106995">
        <ele>324.232849</ele>
        <time>2021-11-21T09:36:39.266Z</time>
      </trkpt>
      <trkpt lat="47.571461" lon="8.106820">
        <ele>324.338400</ele>
        <time>2021-11-21T09:36:40.852Z</time>
      </trkpt>
      <trkpt lat="47.571440" lon="8.106588">
        <ele>324.479580</ele>
        <time>2021-11-21T09:36:43.680Z</time>
      </trkpt>
      <trkpt lat="47.571298" lon="8.105561">
        <ele>325.111871</ele>
        <time>2021-11-21T09:36:51.993Z</time>
      </trkpt>
      <trkpt lat="47.571251" lon="8.105188">
        <ele>325.114388</ele>
        <time>2021-11-21T09:36:54.899Z</time>
      </trkpt>
      <trkpt lat="47.571234" lon="8.105037">
        <ele>324.969025</ele>
        <time>2021-11-21T09:36:56.537Z</time>
      </trkpt>
      <trkpt lat="47.571214" lon="8.104836">
        <ele>324.776104</ele>
        <time>2021-11-21T09:36:58.183Z</time>
      </trkpt>
      <trkpt lat="47.571252" lon="8.104668">
        <ele>324.607855</ele>
        <time>2021-11-21T09:36:59.686Z</time>
      </trkpt>
      <trkpt lat="47.571285" lon="8.104547">
        <ele>324.483929</ele>
        <time>2021-11-21T09:37:00.608Z</time>
      </trkpt>
      <trkpt lat="47.571319" lon="8.104520">
        <ele>324.429642</ele>
        <time>2021-11-21T09:37:01.025Z</time>
      </trkpt>
      <trkpt lat="47.571345" lon="8.104476">
        <ele>324.374103</ele>
        <time>2021-11-21T09:37:01.413Z</time>
      </trkpt>
      <trkpt lat="47.571359" lon="8.104422">
        <ele>324.319173</ele>
        <time>2021-11-21T09:37:01.785Z</time>
      </trkpt>
      <trkpt lat="47.571359" lon="8.104365">
        <ele>324.265049</ele>
        <time>2021-11-21T09:37:02.217Z</time>
      </trkpt>
      <trkpt lat="47.571346" lon="8.104311">
        <ele>324.210608</ele>
        <time>2021-11-21T09:37:02.599Z</time>
      </trkpt>
      <trkpt lat="47.571354" lon="8.104222">
        <ele>324.125352</ele>
        <time>2021-11-21T09:37:03.605Z</time>
      </trkpt>
      <trkpt lat="47.571310" lon="8.104135">
        <ele>324.022109</ele>
        <time>2021-11-21T09:37:04.342Z</time>
      </trkpt>
      <trkpt lat="47.571041" lon="8.104109">
        <ele>323.642713</ele>
        <time>2021-11-21T09:37:07.183Z</time>
      </trkpt>
      <trkpt lat="47.570788" lon="8.103933">
        <ele>323.249372</ele>
        <time>2021-11-21T09:37:10.173Z</time>
      </trkpt>
      <trkpt lat="47.570667" lon="8.103884">
        <ele>323.072835</ele>
        <time>2021-11-21T09:37:11.893Z</time>
      </trkpt>
      <trkpt lat="47.570391" lon="8.103841">
        <ele>322.778296</ele>
        <time>2021-11-21T09:37:20.715Z</time>
      </trkpt>
      <trkpt lat="47.570159" lon="8.103813">
        <ele>323.254624</ele>
        <time>2021-11-21T09:37:24.904Z</time>
      </trkpt>
      <trkpt lat="47.569638" lon="8.103696">
        <ele>324.332948</ele>
        <time>2021-11-21T09:37:38.773Z</time>
      </trkpt>
      <trkpt lat="47.569557" lon="8.103677">
        <ele>324.500766</ele>
        <time>2021-11-21T09:37:41.287Z</time>
      </trkpt>
      <trkpt lat="47.567683" lon="8.103272">
        <ele>328.975507</ele>
        <time>2021-11-21T09:38:29.650Z</time>
      </trkpt>
      <trkpt lat="47.566684" lon="8.102974">
        <ele>331.613557</ele>
        <time>2021-11-21T09:38:55.798Z</time>
      </trkpt>
      <trkpt lat="47.565727" lon="8.102512">
        <ele>333.861740</ele>
        <time>2021-11-21T09:39:21.070Z</time>
      </trkpt>
      <trkpt lat="47.564165" lon="8.101615">
        <ele>337.389380</ele>
        <time>2021-11-21T09:39:56.261Z</time>
      </trkpt>
      <trkpt lat="47.563202" lon="8.101042">
        <ele>339.876396</ele>
        <time>2021-11-21T09:40:22.074Z</time>
      </trkpt>
      <trkpt lat="47.563031" lon="8.100935">
        <ele>340.481677</ele>
        <time>2021-11-21T09:40:28.957Z</time>
      </trkpt>
      <trkpt lat="47.562207" lon="8.100413">
        <ele>343.403867</ele>
        <time>2021-11-21T09:40:59.398Z</time>
      </trkpt>
      <trkpt lat="47.561466" lon="8.099697">
        <ele>344.953145</ele>
        <time>2021-11-21T09:41:30.298Z</time>
      </trkpt>
      <trkpt lat="47.560787" lon="8.098864">
        <ele>345.348972</ele>
        <time>2021-11-21T09:41:49.967Z</time>
      </trkpt>
      <trkpt lat="47.560171" lon="8.097877">
        <ele>343.365580</ele>
        <time>2021-11-21T09:42:03.548Z</time>
      </trkpt>
      <trkpt lat="47.559606" lon="8.096837">
        <ele>339.137364</ele>
        <time>2021-11-21T09:42:15.559Z</time>
      </trkpt>
      <trkpt lat="47.558983" lon="8.095482">
        <ele>333.854966</ele>
        <time>2021-11-21T09:42:30.088Z</time>
      </trkpt>
      <trkpt lat="47.558857" lon="8.095293">
        <ele>332.989669</ele>
        <time>2021-11-21T09:42:32.580Z</time>
      </trkpt>
      <trkpt lat="47.558776" lon="8.095210">
        <ele>332.514371</ele>
        <time>2021-11-21T09:42:33.829Z</time>
      </trkpt>
      <trkpt lat="47.558531" lon="8.094661">
        <ele>330.370663</ele>
        <time>2021-11-21T09:42:38.110Z</time>
      </trkpt>
      <trkpt lat="47.557677" lon="8.092776">
        <ele>324.084772</ele>
        <time>2021-11-21T09:42:53.535Z</time>
      </trkpt>
      <trkpt lat="47.556850" lon="8.091457">
        <ele>318.844402</ele>
        <time>2021-11-21T09:43:05.159Z</time>
      </trkpt>
      <trkpt lat="47.556692" lon="8.091113">
        <ele>317.471751</ele>
        <time>2021-11-21T09:43:07.763Z</time>
      </trkpt>
      <trkpt lat="47.556527" lon="8.090721">
        <ele>315.947732</ele>
        <time>2021-11-21T09:43:10.643Z</time>
      </trkpt>
      <trkpt lat="47.556259" lon="8.090058">
        <ele>313.398330</ele>
        <time>2021-11-21T09:43:15.555Z</time>
      </trkpt>
      <trkpt lat="47.556193" lon="8.089926">
        <ele>312.856402</ele>
        <time>2021-11-21T09:43:16.687Z</time>
      </trkpt>
      <trkpt lat="47.556110" lon="8.089809">
        <ele>312.600695</ele>
        <time>2021-11-21T09:43:17.765Z</time>
      </trkpt>
      <trkpt lat="47.556137" lon="8.089730">
        <ele>312.518780</ele>
        <time>2021-11-21T09:43:18.318Z</time>
      </trkpt>
      <trkpt lat="47.556151" lon="8.089459">
        <ele>312.267363</ele>
        <time>2021-11-21T09:43:20.161Z</time>
      </trkpt>
      <trkpt lat="47.556111" lon="8.089266">
        <ele>312.080603</ele>
        <time>2021-11-21T09:43:21.450Z</time>
      </trkpt>
      <trkpt lat="47.556065" lon="8.089084">
        <ele>311.900827</ele>
        <time>2021-11-21T09:43:22.760Z</time>
      </trkpt>
      <trkpt lat="47.555997" lon="8.088801">
        <ele>311.622944</ele>
        <time>2021-11-21T09:43:25.069Z</time>
      </trkpt>
      <trkpt lat="47.555991" lon="8.088778">
        <ele>311.600134</ele>
        <time>2021-11-21T09:43:25.307Z</time>
      </trkpt>
      <trkpt lat="47.555939" lon="8.088552">
        <ele>311.379260</ele>
        <time>2021-11-21T09:43:27.137Z</time>
      </trkpt>
      <trkpt lat="47.555887" lon="8.088299">
        <ele>311.134612</ele>
        <time>2021-11-21T09:43:29.648Z</time>
      </trkpt>
      <trkpt lat="47.555829" lon="8.087941">
        <ele>310.794040</ele>
        <time>2021-11-21T09:43:33.464Z</time>
      </trkpt>
      <trkpt lat="47.555809" lon="8.087783">
        <ele>310.645335</ele>
        <time>2021-11-21T09:43:35.076Z</time>
      </trkpt>
      <trkpt lat="47.555780" lon="8.087557">
        <ele>310.432531</ele>
        <time>2021-11-21T09:43:37.252Z</time>
      </trkpt>
      <trkpt lat="47.555737" lon="8.087083">
        <ele>310.963729</ele>
        <time>2021-11-21T09:43:44.879Z</time>
      </trkpt>
      <trkpt lat="47.555733" lon="8.086819">
        <ele>311.621116</ele>
        <time>2021-11-21T09:43:49.901Z</time>
      </trkpt>
      <trkpt lat="47.555764" lon="8.085769">
        <ele>314.237564</ele>
        <time>2021-11-21T09:44:11.843Z</time>
      </trkpt>
      <trkpt lat="47.555899" lon="8.084472">
        <ele>317.740227</ele>
        <time>2021-11-21T09:44:41.148Z</time>
      </trkpt>
      <trkpt lat="47.555914" lon="8.084380">
        <ele>318.066001</ele>
        <time>2021-11-21T09:44:43.776Z</time>
      </trkpt>
      <trkpt lat="47.555956" lon="8.084115">
        <ele>319.002947</ele>
        <time>2021-11-21T09:44:49.902Z</time>
      </trkpt>
      <trkpt lat="47.556083" lon="8.083354">
        <ele>321.701205</ele>
        <time>2021-11-21T09:45:08.422Z</time>
      </trkpt>
      <trkpt lat="47.556470" lon="8.081563">
        <ele>327.688848</ele>
        <time>2021-11-21T09:45:54.829Z</time>
      </trkpt>
      <trkpt lat="47.556853" lon="8.080477">
        <ele>330.937390</ele>
        <time>2021-11-21T09:46:20.902Z</time>
      </trkpt>
      <trkpt lat="47.557099" lon="8.079786">
        <ele>333.008572</ele>
        <time>2021-11-21T09:46:35.227Z</time>
      </trkpt>
      <trkpt lat="47.557256" lon="8.079416">
        <ele>333.198056</ele>
        <time>2021-11-21T09:46:41.947Z</time>
      </trkpt>
      <trkpt lat="47.557793" lon="8.078299">
        <ele>333.443081</ele>
        <time>2021-11-21T09:46:58.248Z</time>
      </trkpt>
      <trkpt lat="47.558613" lon="8.076826">
        <ele>332.487707</ele>
        <time>2021-11-21T09:47:12.812Z</time>
      </trkpt>
      <trkpt lat="47.559046" lon="8.076086">
        <ele>331.402541</ele>
        <time>2021-11-21T09:47:20.192Z</time>
      </trkpt>
      <trkpt lat="47.559426" lon="8.075372">
        <ele>330.420133</ele>
        <time>2021-11-21T09:47:27.190Z</time>
      </trkpt>
      <trkpt lat="47.559811" lon="8.074398">
        <ele>329.291954</ele>
        <time>2021-11-21T09:47:36.084Z</time>
      </trkpt>
      <trkpt lat="47.560318" lon="8.072316">
        <ele>326.737202</ele>
        <time>2021-11-21T09:47:53.355Z</time>
      </trkpt>
      <trkpt lat="47.560524" lon="8.071179">
        <ele>325.116451</ele>
        <time>2021-11-21T09:48:01.921Z</time>
      </trkpt>
      <trkpt lat="47.560553" lon="8.071099">
        <ele>324.991430</ele>
        <time>2021-11-21T09:48:02.532Z</time>
      </trkpt>
      <trkpt lat="47.560584" lon="8.070919">
        <ele>324.735680</ele>
        <time>2021-11-21T09:48:03.843Z</time>
      </trkpt>
      <trkpt lat="47.560739" lon="8.070551">
        <ele>324.149878</ele>
        <time>2021-11-21T09:48:06.929Z</time>
      </trkpt>
      <trkpt lat="47.560864" lon="8.070015">
        <ele>323.418828</ele>
        <time>2021-11-21T09:48:10.951Z</time>
      </trkpt>
      <trkpt lat="47.560904" lon="8.069780">
        <ele>323.106404</ele>
        <time>2021-11-21T09:48:12.696Z</time>
      </trkpt>
      <trkpt lat="47.560998" lon="8.069237">
        <ele>322.383764</ele>
        <time>2021-11-21T09:48:16.776Z</time>
      </trkpt>
      <trkpt lat="47.561130" lon="8.068650">
        <ele>321.586164</ele>
        <time>2021-11-21T09:48:21.446Z</time>
      </trkpt>
      <trkpt lat="47.561187" lon="8.068256">
        <ele>321.066725</ele>
        <time>2021-11-21T09:48:24.742Z</time>
      </trkpt>
      <trkpt lat="47.561229" lon="8.067903">
        <ele>320.845379</ele>
        <time>2021-11-21T09:48:27.800Z</time>
      </trkpt>
      <trkpt lat="47.561265" lon="8.067435">
        <ele>320.765521</ele>
        <time>2021-11-21T09:48:31.775Z</time>
      </trkpt>
      <trkpt lat="47.561276" lon="8.067022">
        <ele>320.695447</ele>
        <time>2021-11-21T09:48:35.671Z</time>
      </trkpt>
      <trkpt lat="47.561253" lon="8.066385">
        <ele>320.587296</ele>
        <time>2021-11-21T09:48:42.174Z</time>
      </trkpt>
      <trkpt lat="47.561250" lon="8.066362">
        <ele>320.583325</ele>
        <time>2021-11-21T09:48:42.475Z</time>
      </trkpt>
      <trkpt lat="47.561108" lon="8.065242">
        <ele>320.353851</ele>
        <time>2021-11-21T09:48:54.590Z</time>
      </trkpt>
      <trkpt lat="47.561017" lon="8.064820">
        <ele>320.210329</ele>
        <time>2021-11-21T09:48:59.199Z</time>
      </trkpt>
      <trkpt lat="47.560887" lon="8.064271">
        <ele>320.021842</ele>
        <time>2021-11-21T09:49:04.420Z</time>
      </trkpt>
      <trkpt lat="47.560806" lon="8.064037">
        <ele>319.936643</ele>
        <time>2021-11-21T09:49:06.672Z</time>
      </trkpt>
      <trkpt lat="47.560719" lon="8.063873">
        <ele>319.869062</ele>
        <time>2021-11-21T09:49:08.444Z</time>
      </trkpt>
      <trkpt lat="47.560392" lon="8.063300">
        <ele>319.625950</ele>
        <time>2021-11-21T09:49:14.722Z</time>
      </trkpt>
      <trkpt lat="47.560335" lon="8.063169">
        <ele>319.575453</ele>
        <time>2021-11-21T09:49:16.069Z</time>
      </trkpt>
      <trkpt lat="47.560443" lon="8.063042">
        <ele>319.470584</ele>
        <time>2021-11-21T09:49:17.738Z</time>
      </trkpt>
      <trkpt lat="47.560545" lon="8.062928">
        <ele>319.367761</ele>
        <time>2021-11-21T09:49:19.305Z</time>
      </trkpt>
      <trkpt lat="47.560580" lon="8.062890">
        <ele>319.332841</ele>
        <time>2021-11-21T09:49:19.840Z</time>
      </trkpt>
      <trkpt lat="47.560673" lon="8.062786">
        <ele>319.239072</ele>
        <time>2021-11-21T09:49:21.911Z</time>
      </trkpt>
      <trkpt lat="47.560765" lon="8.062729">
        <ele>319.158817</ele>
        <time>2021-11-21T09:49:23.663Z</time>
      </trkpt>
      <trkpt lat="47.560570" lon="8.061926">
        <ele>318.695325</ele>
        <time>2021-11-21T09:49:31.019Z</time>
      </trkpt>
      <trkpt lat="47.560335" lon="8.060984">
        <ele>318.149877</ele>
        <time>2021-11-21T09:49:39.348Z</time>
      </trkpt>
      <trkpt lat="47.560293" lon="8.060828">
        <ele>318.089373</ele>
        <time>2021-11-21T09:49:40.778Z</time>
      </trkpt>
      <trkpt lat="47.560262" lon="8.060729">
        <ele>318.060346</ele>
        <time>2021-11-21T09:49:41.733Z</time>
      </trkpt>
      <trkpt lat="47.560130" lon="8.060196">
        <ele>317.909346</ele>
        <time>2021-11-21T09:49:46.933Z</time>
      </trkpt>
      <trkpt lat="47.560069" lon="8.059943">
        <ele>317.837892</ele>
        <time>2021-11-21T09:49:49.345Z</time>
      </trkpt>
      <trkpt lat="47.560040" lon="8.059827">
        <ele>317.804991</ele>
        <time>2021-11-21T09:49:50.562Z</time>
      </trkpt>
      <trkpt lat="47.560019" lon="8.059741">
        <ele>317.780667</ele>
        <time>2021-11-21T09:49:51.452Z</time>
      </trkpt>
      <trkpt lat="47.559979" lon="8.059591">
        <ele>317.737772</ele>
        <time>2021-11-21T09:49:52.914Z</time>
      </trkpt>
      <trkpt lat="47.559859" lon="8.059093">
        <ele>317.597133</ele>
        <time>2021-11-21T09:49:57.936Z</time>
      </trkpt>
      <trkpt lat="47.559725" lon="8.058554">
        <ele>317.444361</ele>
        <time>2021-11-21T09:50:03.346Z</time>
      </trkpt>
      <trkpt lat="47.559654" lon="8.058257">
        <ele>317.382537</ele>
        <time>2021-11-21T09:50:06.298Z</time>
      </trkpt>
      <trkpt lat="47.559579" lon="8.057955">
        <ele>317.335022</ele>
        <time>2021-11-21T09:50:09.202Z</time>
      </trkpt>
      <trkpt lat="47.559548" lon="8.057827">
        <ele>317.314942</ele>
        <time>2021-11-21T09:50:10.497Z</time>
      </trkpt>
      <trkpt lat="47.559447" lon="8.057490">
        <ele>317.260496</ele>
        <time>2021-11-21T09:50:13.925Z</time>
      </trkpt>
      <trkpt lat="47.559294" lon="8.057130">
        <ele>317.197677</ele>
        <time>2021-11-21T09:50:18.064Z</time>
      </trkpt>
      <trkpt lat="47.559116" lon="8.056760">
        <ele>317.130583</ele>
        <time>2021-11-21T09:50:22.502Z</time>
      </trkpt>
      <trkpt lat="47.558662" lon="8.056061">
        <ele>317.020354</ele>
        <time>2021-11-21T09:50:31.840Z</time>
      </trkpt>
      <trkpt lat="47.558447" lon="8.055831">
        <ele>317.028213</ele>
        <time>2021-11-21T09:50:35.371Z</time>
      </trkpt>
      <trkpt lat="47.558239" lon="8.055639">
        <ele>317.035476</ele>
        <time>2021-11-21T09:50:39.053Z</time>
      </trkpt>
      <trkpt lat="47.558012" lon="8.055477">
        <ele>317.042943</ele>
        <time>2021-11-21T09:50:42.697Z</time>
      </trkpt>
      <trkpt lat="47.557918" lon="8.055409">
        <ele>317.046043</ele>
        <time>2021-11-21T09:50:44.495Z</time>
      </trkpt>
      <trkpt lat="47.557710" lon="8.055283">
        <ele>317.052703</ele>
        <time>2021-11-21T09:50:47.860Z</time>
      </trkpt>
      <trkpt lat="47.557500" lon="8.055133">
        <ele>317.059612</ele>
        <time>2021-11-21T09:50:51.685Z</time>
      </trkpt>
      <trkpt lat="47.557273" lon="8.054941">
        <ele>317.067358</ele>
        <time>2021-11-21T09:50:55.925Z</time>
      </trkpt>
      <trkpt lat="47.557097" lon="8.054768">
        <ele>317.060961</ele>
        <time>2021-11-21T09:50:58.889Z</time>
      </trkpt>
      <trkpt lat="47.557019" lon="8.054678">
        <ele>317.054374</ele>
        <time>2021-11-21T09:51:00.695Z</time>
      </trkpt>
      <trkpt lat="47.556494" lon="8.054073">
        <ele>317.010056</ele>
        <time>2021-11-21T09:51:09.546Z</time>
      </trkpt>
      <trkpt lat="47.556239" lon="8.053780">
        <ele>316.988554</ele>
        <time>2021-11-21T09:51:13.952Z</time>
      </trkpt>
      <trkpt lat="47.556032" lon="8.053510">
        <ele>316.970177</ele>
        <time>2021-11-21T09:51:18.176Z</time>
      </trkpt>
      <trkpt lat="47.555890" lon="8.053286">
        <ele>316.956357</ele>
        <time>2021-11-21T09:51:21.813Z</time>
      </trkpt>
      <trkpt lat="47.555773" lon="8.053070">
        <ele>317.012530</ele>
        <time>2021-11-21T09:51:24.754Z</time>
      </trkpt>
      <trkpt lat="47.555603" lon="8.052757">
        <ele>317.202298</ele>
        <time>2021-11-21T09:51:28.976Z</time>
      </trkpt>
      <trkpt lat="47.555259" lon="8.052135">
        <ele>317.582134</ele>
        <time>2021-11-21T09:51:37.673Z</time>
      </trkpt>
      <trkpt lat="47.554988" lon="8.051475">
        <ele>317.947036</ele>
        <time>2021-11-21T09:51:46.664Z</time>
      </trkpt>
      <trkpt lat="47.554715" lon="8.050527">
        <ele>318.814647</ele>
        <time>2021-11-21T09:52:01.454Z</time>
      </trkpt>
      <trkpt lat="47.554412" lon="8.049127">
        <ele>320.683392</ele>
        <time>2021-11-21T09:52:24.015Z</time>
      </trkpt>
      <trkpt lat="47.554309" lon="8.048719">
        <ele>321.237080</ele>
        <time>2021-11-21T09:52:31.032Z</time>
      </trkpt>
      <trkpt lat="47.553996" lon="8.047557">
        <ele>322.251051</ele>
        <time>2021-11-21T09:52:50.262Z</time>
      </trkpt>
      <trkpt lat="47.553619" lon="8.046372">
        <ele>323.136771</ele>
        <time>2021-11-21T09:53:06.699Z</time>
      </trkpt>
      <trkpt lat="47.552844" lon="8.044355">
        <ele>321.950741</ele>
        <time>2021-11-21T09:53:26.629Z</time>
      </trkpt>
      <trkpt lat="47.551627" lon="8.041127">
        <ele>317.138940</ele>
        <time>2021-11-21T09:53:53.381Z</time>
      </trkpt>
      <trkpt lat="47.551167" lon="8.039905">
        <ele>315.787327</ele>
        <time>2021-11-21T09:54:04.012Z</time>
      </trkpt>
      <trkpt lat="47.551001" lon="8.039426">
        <ele>315.267188</ele>
        <time>2021-11-21T09:54:08.367Z</time>
      </trkpt>
      <trkpt lat="47.550515" lon="8.038174">
        <ele>315.184562</ele>
        <time>2021-11-21T09:54:22.070Z</time>
      </trkpt>
      <trkpt lat="47.550424" lon="8.037956">
        <ele>315.267089</ele>
        <time>2021-11-21T09:54:25.041Z</time>
      </trkpt>
      <trkpt lat="47.550111" lon="8.037123">
        <ele>315.574045</ele>
        <time>2021-11-21T09:54:37.408Z</time>
      </trkpt>
      <trkpt lat="47.549832" lon="8.036349">
        <ele>315.906649</ele>
        <time>2021-11-21T09:54:48.691Z</time>
      </trkpt>
      <trkpt lat="47.549753" lon="8.036077">
        <ele>316.035592</ele>
        <time>2021-11-21T09:54:52.463Z</time>
      </trkpt>
      <trkpt lat="47.549699" lon="8.035900">
        <ele>316.120174</ele>
        <time>2021-11-21T09:54:54.796Z</time>
      </trkpt>
      <trkpt lat="47.549632" lon="8.035633">
        <ele>316.244215</ele>
        <time>2021-11-21T09:54:58.113Z</time>
      </trkpt>
      <trkpt lat="47.549554" lon="8.035288">
        <ele>316.402649</ele>
        <time>2021-11-21T09:55:02.405Z</time>
      </trkpt>
      <trkpt lat="47.549494" lon="8.034935">
        <ele>316.561163</ele>
        <time>2021-11-21T09:55:06.863Z</time>
      </trkpt>
      <trkpt lat="47.549442" lon="8.034584">
        <ele>316.717645</ele>
        <time>2021-11-21T09:55:10.267Z</time>
      </trkpt>
      <trkpt lat="47.549395" lon="8.034029">
        <ele>316.870001</ele>
        <time>2021-11-21T09:55:16.329Z</time>
      </trkpt>
      <trkpt lat="47.549394" lon="8.034003">
        <ele>316.869363</ele>
        <time>2021-11-21T09:55:17.805Z</time>
      </trkpt>
      <trkpt lat="47.549386" lon="8.033799">
        <ele>316.864361</ele>
        <time>2021-11-21T09:55:19.337Z</time>
      </trkpt>
      <trkpt lat="47.549374" lon="8.033423">
        <ele>316.855146</ele>
        <time>2021-11-21T09:55:23.852Z</time>
      </trkpt>
      <trkpt lat="47.549363" lon="8.032869">
        <ele>316.841577</ele>
        <time>2021-11-21T09:55:29.013Z</time>
      </trkpt>
      <trkpt lat="47.549368" lon="8.032544">
        <ele>316.833619</ele>
        <time>2021-11-21T09:55:31.610Z</time>
      </trkpt>
      <trkpt lat="47.549372" lon="8.031883">
        <ele>316.817436</ele>
        <time>2021-11-21T09:55:38.628Z</time>
      </trkpt>
      <trkpt lat="47.549378" lon="8.030790">
        <ele>316.984254</ele>
        <time>2021-11-21T09:55:49.289Z</time>
      </trkpt>
      <trkpt lat="47.549380" lon="8.030702">
        <ele>317.004129</ele>
        <time>2021-11-21T09:55:50.129Z</time>
      </trkpt>
      <trkpt lat="47.549418" lon="8.028906">
        <ele>317.409723</ele>
        <time>2021-11-21T09:56:10.836Z</time>
      </trkpt>
      <trkpt lat="47.549431" lon="8.028306">
        <ele>317.655557</ele>
        <time>2021-11-21T09:56:17.581Z</time>
      </trkpt>
      <trkpt lat="47.549445" lon="8.027599">
        <ele>317.946568</ele>
        <time>2021-11-21T09:56:25.758Z</time>
      </trkpt>
      <trkpt lat="47.549454" lon="8.027138">
        <ele>318.136320</ele>
        <time>2021-11-21T09:56:31.283Z</time>
      </trkpt>
      <trkpt lat="47.549436" lon="8.026046">
        <ele>318.537705</ele>
        <time>2021-11-21T09:56:44.568Z</time>
      </trkpt>
      <trkpt lat="47.549322" lon="8.024323">
        <ele>318.812441</ele>
        <time>2021-11-21T09:57:03.172Z</time>
      </trkpt>
      <trkpt lat="47.549268" lon="8.023385">
        <ele>318.850666</ele>
        <time>2021-11-21T09:57:12.619Z</time>
      </trkpt>
      <trkpt lat="47.549201" lon="8.022146">
        <ele>318.349679</ele>
        <time>2021-11-21T09:57:23.836Z</time>
      </trkpt>
      <trkpt lat="47.549191" lon="8.021436">
        <ele>318.063447</ele>
        <time>2021-11-21T09:57:29.803Z</time>
      </trkpt>
      <trkpt lat="47.549186" lon="8.021006">
        <ele>317.890107</ele>
        <time>2021-11-21T09:57:33.387Z</time>
      </trkpt>
      <trkpt lat="47.549208" lon="8.019997">
        <ele>316.951030</ele>
        <time>2021-11-21T09:57:41.621Z</time>
      </trkpt>
      <trkpt lat="47.549261" lon="8.017878">
        <ele>314.915167</ele>
        <time>2021-11-21T09:57:57.743Z</time>
      </trkpt>
      <trkpt lat="47.549256" lon="8.017769">
        <ele>314.819137</ele>
        <time>2021-11-21T09:57:58.607Z</time>
      </trkpt>
      <trkpt lat="47.549291" lon="8.017761">
        <ele>314.773018</ele>
        <time>2021-11-21T09:57:59.004Z</time>
      </trkpt>
      <trkpt lat="47.549324" lon="8.017738">
        <ele>314.725525</ele>
        <time>2021-11-21T09:57:59.393Z</time>
      </trkpt>
      <trkpt lat="47.549351" lon="8.017702">
        <ele>314.678222</ele>
        <time>2021-11-21T09:57:59.796Z</time>
      </trkpt>
      <trkpt lat="47.549370" lon="8.017656">
        <ele>314.630818</ele>
        <time>2021-11-21T09:58:00.255Z</time>
      </trkpt>
      <trkpt lat="47.549379" lon="8.017603">
        <ele>314.582781</ele>
        <time>2021-11-21T09:58:00.661Z</time>
      </trkpt>
      <trkpt lat="47.549377" lon="8.017547">
        <ele>314.533489</ele>
        <time>2021-11-21T09:58:01.219Z</time>
      </trkpt>
      <trkpt lat="47.549310" lon="8.017418">
        <ele>314.390416</ele>
        <time>2021-11-21T09:58:02.565Z</time>
      </trkpt>
      <trkpt lat="47.549274" lon="8.017401">
        <ele>314.341210</ele>
        <time>2021-11-21T09:58:03.047Z</time>
      </trkpt>
      <trkpt lat="47.549281" lon="8.017304">
        <ele>314.255463</ele>
        <time>2021-11-21T09:58:03.762Z</time>
      </trkpt>
      <trkpt lat="47.549431" lon="8.015998">
        <ele>313.091016</ele>
        <time>2021-11-21T09:58:14.507Z</time>
      </trkpt>
      <trkpt lat="47.549589" lon="8.015316">
        <ele>312.438144</ele>
        <time>2021-11-21T09:58:20.351Z</time>
      </trkpt>
      <trkpt lat="47.549795" lon="8.014667">
        <ele>311.781082</ele>
        <time>2021-11-21T09:58:26.166Z</time>
      </trkpt>
      <trkpt lat="47.549871" lon="8.014427">
        <ele>311.538204</ele>
        <time>2021-11-21T09:58:28.301Z</time>
      </trkpt>
      <trkpt lat="47.550001" lon="8.014034">
        <ele>311.137235</ele>
        <time>2021-11-21T09:58:31.690Z</time>
      </trkpt>
      <trkpt lat="47.550565" lon="8.012461">
        <ele>309.787576</ele>
        <time>2021-11-21T09:58:45.297Z</time>
      </trkpt>
      <trkpt lat="47.550764" lon="8.011985">
        <ele>309.425196</ele>
        <time>2021-11-21T09:58:49.796Z</time>
      </trkpt>
      <trkpt lat="47.551187" lon="8.011080">
        <ele>308.767536</ele>
        <time>2021-11-21T09:58:59.914Z</time>
      </trkpt>
      <trkpt lat="47.551275" lon="8.010934">
        <ele>308.878940</ele>
        <time>2021-11-21T09:59:01.724Z</time>
      </trkpt>
      <trkpt lat="47.551902" lon="8.009884">
        <ele>309.676843</ele>
        <time>2021-11-21T09:59:18.678Z</time>
      </trkpt>
      <trkpt lat="47.552604" lon="8.008677">
        <ele>310.332736</ele>
        <time>2021-11-21T09:59:41.159Z</time>
      </trkpt>
      <trkpt lat="47.552640" lon="8.008615">
        <ele>310.343352</ele>
        <time>2021-11-21T09:59:42.745Z</time>
      </trkpt>
      <trkpt lat="47.552935" lon="8.007851">
        <ele>310.457607</ele>
        <time>2021-11-21T09:59:52.343Z</time>
      </trkpt>
      <trkpt lat="47.553173" lon="8.006642">
        <ele>310.541864</ele>
        <time>2021-11-21T10:00:03.146Z</time>
      </trkpt>
      <trkpt lat="47.553211" lon="8.006270">
        <ele>310.356926</ele>
        <time>2021-11-21T10:00:06.359Z</time>
      </trkpt>
      <trkpt lat="47.553220" lon="8.006182">
        <ele>310.313176</ele>
        <time>2021-11-21T10:00:06.950Z</time>
      </trkpt>
      <trkpt lat="47.553251" lon="8.005657">
        <ele>310.054127</ele>
        <time>2021-11-21T10:00:11.198Z</time>
      </trkpt>
      <trkpt lat="47.553256" lon="8.004837">
        <ele>309.651041</ele>
        <time>2021-11-21T10:00:18.123Z</time>
      </trkpt>
      <trkpt lat="47.553266" lon="8.003502">
        <ele>309.560209</ele>
        <time>2021-11-21T10:00:30.710Z</time>
      </trkpt>
      <trkpt lat="47.553270" lon="8.002465">
        <ele>310.011985</ele>
        <time>2021-11-21T10:00:43.381Z</time>
      </trkpt>
      <trkpt lat="47.553271" lon="8.002109">
        <ele>310.167077</ele>
        <time>2021-11-21T10:00:48.360Z</time>
      </trkpt>
      <trkpt lat="47.553273" lon="8.001687">
        <ele>310.350925</ele>
        <time>2021-11-21T10:00:54.040Z</time>
      </trkpt>
      <trkpt lat="47.553275" lon="7.999860">
        <ele>310.749413</ele>
        <time>2021-11-21T10:01:16.226Z</time>
      </trkpt>
      <trkpt lat="47.553278" lon="7.999508">
        <ele>310.814603</ele>
        <time>2021-11-21T10:01:19.773Z</time>
      </trkpt>
      <trkpt lat="47.553287" lon="7.998380">
        <ele>310.508290</ele>
        <time>2021-11-21T10:01:29.540Z</time>
      </trkpt>
      <trkpt lat="47.553287" lon="7.997190">
        <ele>309.203117</ele>
        <time>2021-11-21T10:01:38.839Z</time>
      </trkpt>
      <trkpt lat="47.553279" lon="7.996528">
        <ele>308.476929</ele>
        <time>2021-11-21T10:01:43.855Z</time>
      </trkpt>
      <trkpt lat="47.553268" lon="7.996252">
        <ele>308.173689</ele>
        <time>2021-11-21T10:01:45.927Z</time>
      </trkpt>
      <trkpt lat="47.553246" lon="7.995617">
        <ele>307.441538</ele>
        <time>2021-11-21T10:01:50.109Z</time>
      </trkpt>
      <trkpt lat="47.553164" lon="7.993925">
        <ele>305.463317</ele>
        <time>2021-11-21T10:02:03.628Z</time>
      </trkpt>
      <trkpt lat="47.553156" lon="7.993696">
        <ele>305.195909</ele>
        <time>2021-11-21T10:02:05.029Z</time>
      </trkpt>
      <trkpt lat="47.553137" lon="7.993190">
        <ele>304.865895</ele>
        <time>2021-11-21T10:02:09.642Z</time>
      </trkpt>
      <trkpt lat="47.553130" lon="7.993014">
        <ele>304.831533</ele>
        <time>2021-11-21T10:02:13.827Z</time>
      </trkpt>
      <trkpt lat="47.553107" lon="7.992226">
        <ele>304.677807</ele>
        <time>2021-11-21T10:02:20.542Z</time>
      </trkpt>
      <trkpt lat="47.553091" lon="7.991915">
        <ele>304.617017</ele>
        <time>2021-11-21T10:02:24.774Z</time>
      </trkpt>
      <trkpt lat="47.553050" lon="7.990744">
        <ele>304.298018</ele>
        <time>2021-11-21T10:02:37.596Z</time>
      </trkpt>
      <trkpt lat="47.553126" lon="7.990240">
        <ele>303.319081</ele>
        <time>2021-11-21T10:02:41.509Z</time>
      </trkpt>
      <trkpt lat="47.553146" lon="7.990113">
        <ele>303.071873</ele>
        <time>2021-11-21T10:02:42.437Z</time>
      </trkpt>
      <trkpt lat="47.553163" lon="7.990004">
        <ele>302.859808</ele>
        <time>2021-11-21T10:02:43.222Z</time>
      </trkpt>
      <trkpt lat="47.553214" lon="7.989758">
        <ele>302.371987</ele>
        <time>2021-11-21T10:02:45.001Z</time>
      </trkpt>
      <trkpt lat="47.553253" lon="7.989578">
        <ele>302.013629</ele>
        <time>2021-11-21T10:02:46.291Z</time>
      </trkpt>
      <trkpt lat="47.553352" lon="7.989142">
        <ele>301.141630</ele>
        <time>2021-11-21T10:02:49.386Z</time>
      </trkpt>
      <trkpt lat="47.553424" lon="7.988762">
        <ele>300.393459</ele>
        <time>2021-11-21T10:02:52.033Z</time>
      </trkpt>
      <trkpt lat="47.553410" lon="7.988607">
        <ele>300.097023</ele>
        <time>2021-11-21T10:02:53.064Z</time>
      </trkpt>
      <trkpt lat="47.553343" lon="7.988401">
        <ele>299.663554</ele>
        <time>2021-11-21T10:02:54.586Z</time>
      </trkpt>
      <trkpt lat="47.553232" lon="7.988247">
        <ele>299.217786</ele>
        <time>2021-11-21T10:02:56.057Z</time>
      </trkpt>
      <trkpt lat="47.552867" lon="7.987810">
        <ele>297.677254</ele>
        <time>2021-11-21T10:03:00.626Z</time>
      </trkpt>
      <trkpt lat="47.552713" lon="7.987638">
        <ele>297.044153</ele>
        <time>2021-11-21T10:03:02.464Z</time>
      </trkpt>
      <trkpt lat="47.552504" lon="7.987369">
        <ele>296.135320</ele>
        <time>2021-11-21T10:03:05.174Z</time>
      </trkpt>
      <trkpt lat="47.552436" lon="7.987273">
        <ele>295.826977</ele>
        <time>2021-11-21T10:03:06.118Z</time>
      </trkpt>
      <trkpt lat="47.552224" lon="7.986975">
        <ele>294.867648</ele>
        <time>2021-11-21T10:03:09.102Z</time>
      </trkpt>
      <trkpt lat="47.552152" lon="7.986883">
        <ele>294.555527</ele>
        <time>2021-11-21T10:03:10.083Z</time>
      </trkpt>
      <trkpt lat="47.551971" lon="7.986555">
        <ele>293.616797</ele>
        <time>2021-11-21T10:03:13.081Z</time>
      </trkpt>
      <trkpt lat="47.551917" lon="7.986288">
        <ele>293.549705</ele>
        <time>2021-11-21T10:03:15.162Z</time>
      </trkpt>
      <trkpt lat="47.551915" lon="7.986209">
        <ele>293.592135</ele>
        <time>2021-11-21T10:03:15.722Z</time>
      </trkpt>
      <trkpt lat="47.551898" lon="7.985654">
        <ele>293.890321</ele>
        <time>2021-11-21T10:03:21.229Z</time>
      </trkpt>
      <trkpt lat="47.551939" lon="7.985151">
        <ele>294.162253</ele>
        <time>2021-11-21T10:03:27.385Z</time>
      </trkpt>
      <trkpt lat="47.551934" lon="7.984260">
        <ele>294.640487</ele>
        <time>2021-11-21T10:03:40.967Z</time>
      </trkpt>
      <trkpt lat="47.551993" lon="7.984014">
        <ele>294.780608</ele>
        <time>2021-11-21T10:03:44.572Z</time>
      </trkpt>
      <trkpt lat="47.552007" lon="7.983931">
        <ele>294.826526</ele>
        <time>2021-11-21T10:03:46.146Z</time>
      </trkpt>
      <trkpt lat="47.552005" lon="7.983849">
        <ele>294.870566</ele>
        <time>2021-11-21T10:03:48.228Z</time>
      </trkpt>
      <trkpt lat="47.551911" lon="7.983632">
        <ele>295.343031</ele>
        <time>2021-11-21T10:03:52.421Z</time>
      </trkpt>
      <trkpt lat="47.551892" lon="7.983447">
        <ele>295.689711</ele>
        <time>2021-11-21T10:03:55.765Z</time>
      </trkpt>
      <trkpt lat="47.551861" lon="7.981113">
        <ele>299.839749</ele>
        <time>2021-11-21T10:04:39.055Z</time>
      </trkpt>
      <trkpt lat="47.551865" lon="7.980584">
        <ele>299.982879</ele>
        <time>2021-11-21T10:04:45.695Z</time>
      </trkpt>
      <trkpt lat="47.551873" lon="7.980135">
        <ele>300.104398</ele>
        <time>2021-11-21T10:04:50.451Z</time>
      </trkpt>
      <trkpt lat="47.551933" lon="7.979363">
        <ele>300.314643</ele>
        <time>2021-11-21T10:04:58.810Z</time>
      </trkpt>
      <trkpt lat="47.551923" lon="7.979308">
        <ele>300.330054</ele>
        <time>2021-11-21T10:04:59.178Z</time>
      </trkpt>
      <trkpt lat="47.551901" lon="7.979190">
        <ele>300.363174</ele>
        <time>2021-11-21T10:05:00.149Z</time>
      </trkpt>
      <trkpt lat="47.551829" lon="7.976305">
        <ele>299.861414</ele>
        <time>2021-11-21T10:05:25.198Z</time>
      </trkpt>
      <trkpt lat="47.551793" lon="7.974325">
        <ele>299.926375</ele>
        <time>2021-11-21T10:05:47.310Z</time>
      </trkpt>
      <trkpt lat="47.551755" lon="7.972603">
        <ele>299.837395</ele>
        <time>2021-11-21T10:06:04.609Z</time>
      </trkpt>
      <trkpt lat="47.551725" lon="7.970823">
        <ele>299.243750</ele>
        <time>2021-11-21T10:06:19.838Z</time>
      </trkpt>
      <trkpt lat="47.551734" lon="7.970034">
        <ele>299.088981</ele>
        <time>2021-11-21T10:06:26.798Z</time>
      </trkpt>
      <trkpt lat="47.551750" lon="7.968659">
        <ele>298.903517</ele>
        <time>2021-11-21T10:06:39.987Z</time>
      </trkpt>
      <trkpt lat="47.551825" lon="7.968445">
        <ele>298.870997</ele>
        <time>2021-11-21T10:06:42.240Z</time>
      </trkpt>
      <trkpt lat="47.551847" lon="7.968315">
        <ele>298.852922</ele>
        <time>2021-11-21T10:06:43.710Z</time>
      </trkpt>
      <trkpt lat="47.551839" lon="7.968208">
        <ele>298.838404</ele>
        <time>2021-11-21T10:06:44.912Z</time>
      </trkpt>
      <trkpt lat="47.551767" lon="7.967910">
        <ele>298.817023</ele>
        <time>2021-11-21T10:06:48.146Z</time>
      </trkpt>
      <trkpt lat="47.551902" lon="7.964650">
        <ele>299.468408</ele>
        <time>2021-11-21T10:07:24.548Z</time>
      </trkpt>
      <trkpt lat="47.551910" lon="7.964205">
        <ele>299.465445</ele>
        <time>2021-11-21T10:07:29.127Z</time>
      </trkpt>
      <trkpt lat="47.551918" lon="7.963725">
        <ele>299.462248</ele>
        <time>2021-11-21T10:07:33.946Z</time>
      </trkpt>
      <trkpt lat="47.551906" lon="7.962453">
        <ele>299.389393</ele>
        <time>2021-11-21T10:07:45.876Z</time>
      </trkpt>
      <trkpt lat="47.551859" lon="7.961133">
        <ele>298.929834</ele>
        <time>2021-11-21T10:07:57.464Z</time>
      </trkpt>
      <trkpt lat="47.551894" lon="7.960729">
        <ele>298.788224</ele>
        <time>2021-11-21T10:08:01.215Z</time>
      </trkpt>
      <trkpt lat="47.551882" lon="7.960631">
        <ele>298.753597</ele>
        <time>2021-11-21T10:08:01.985Z</time>
      </trkpt>
      <trkpt lat="47.551865" lon="7.960528">
        <ele>298.716732</ele>
        <time>2021-11-21T10:08:02.930Z</time>
      </trkpt>
      <trkpt lat="47.551677" lon="7.960100">
        <ele>298.539192</ele>
        <time>2021-11-21T10:08:07.454Z</time>
      </trkpt>
      <trkpt lat="47.551405" lon="7.959194">
        <ele>298.446728</ele>
        <time>2021-11-21T10:08:16.466Z</time>
      </trkpt>
      <trkpt lat="47.551300" lon="7.958844">
        <ele>298.414125</ele>
        <time>2021-11-21T10:08:20.453Z</time>
      </trkpt>
      <trkpt lat="47.550869" lon="7.957700">
        <ele>298.302605</ele>
        <time>2021-11-21T10:08:33.818Z</time>
      </trkpt>
      <trkpt lat="47.550745" lon="7.957569">
        <ele>298.319811</ele>
        <time>2021-11-21T10:08:36.054Z</time>
      </trkpt>
      <trkpt lat="47.550735" lon="7.957541">
        <ele>298.322486</ele>
        <time>2021-11-21T10:08:36.496Z</time>
      </trkpt>
      <trkpt lat="47.550613" lon="7.957254">
        <ele>298.351119</ele>
        <time>2021-11-21T10:08:39.832Z</time>
      </trkpt>
      <trkpt lat="47.550549" lon="7.957126">
        <ele>298.364567</ele>
        <time>2021-11-21T10:08:41.378Z</time>
      </trkpt>
      <trkpt lat="47.550445" lon="7.956918">
        <ele>298.386420</ele>
        <time>2021-11-21T10:08:44.050Z</time>
      </trkpt>
      <trkpt lat="47.550380" lon="7.956806">
        <ele>298.398890</ele>
        <time>2021-11-21T10:08:45.534Z</time>
      </trkpt>
      <trkpt lat="47.550205" lon="7.956552">
        <ele>298.429532</ele>
        <time>2021-11-21T10:08:49.244Z</time>
      </trkpt>
      <trkpt lat="47.549444" lon="7.955496">
        <ele>298.565425</ele>
        <time>2021-11-21T10:09:05.610Z</time>
      </trkpt>
      <trkpt lat="47.549157" lon="7.955099">
        <ele>298.622619</ele>
        <time>2021-11-21T10:09:11.411Z</time>
      </trkpt>
      <trkpt lat="47.549042" lon="7.954942">
        <ele>298.645398</ele>
        <time>2021-11-21T10:09:13.763Z</time>
      </trkpt>
      <trkpt lat="47.548833" lon="7.954652">
        <ele>298.687108</ele>
        <time>2021-11-21T10:09:18.119Z</time>
      </trkpt>
      <trkpt lat="47.548542" lon="7.954269">
        <ele>298.743806</ele>
        <time>2021-11-21T10:09:24.137Z</time>
      </trkpt>
      <trkpt lat="47.548342" lon="7.954009">
        <ele>298.782564</ele>
        <time>2021-11-21T10:09:28.319Z</time>
      </trkpt>
      <trkpt lat="47.548251" lon="7.953895">
        <ele>298.818183</ele>
        <time>2021-11-21T10:09:30.247Z</time>
      </trkpt>
      <trkpt lat="47.548115" lon="7.953729">
        <ele>298.885421</ele>
        <time>2021-11-21T10:09:33.116Z</time>
      </trkpt>
      <trkpt lat="47.547994" lon="7.953584">
        <ele>298.944805</ele>
        <time>2021-11-21T10:09:35.678Z</time>
      </trkpt>
      <trkpt lat="47.547871" lon="7.953437">
        <ele>299.005107</ele>
        <time>2021-11-21T10:09:38.269Z</time>
      </trkpt>
      <trkpt lat="47.547797" lon="7.953355">
        <ele>299.040368</ele>
        <time>2021-11-21T10:09:39.772Z</time>
      </trkpt>
      <trkpt lat="47.547624" lon="7.953160">
        <ele>299.123316</ele>
        <time>2021-11-21T10:09:43.266Z</time>
      </trkpt>
      <trkpt lat="47.547550" lon="7.953078">
        <ele>299.158577</ele>
        <time>2021-11-21T10:09:44.790Z</time>
      </trkpt>
      <trkpt lat="47.547458" lon="7.952975">
        <ele>299.202579</ele>
        <time>2021-11-21T10:09:46.803Z</time>
      </trkpt>
      <trkpt lat="47.547400" lon="7.952910">
        <ele>299.230329</ele>
        <time>2021-11-21T10:09:48.085Z</time>
      </trkpt>
      <trkpt lat="47.547090" lon="7.952543">
        <ele>299.381747</ele>
        <time>2021-11-21T10:09:54.533Z</time>
      </trkpt>
      <trkpt lat="47.546935" lon="7.952372">
        <ele>299.455490</ele>
        <time>2021-11-21T10:09:57.425Z</time>
      </trkpt>
      <trkpt lat="47.546776" lon="7.952185">
        <ele>299.498146</ele>
        <time>2021-11-21T10:10:00.749Z</time>
      </trkpt>
      <trkpt lat="47.546695" lon="7.952091">
        <ele>299.513836</ele>
        <time>2021-11-21T10:10:02.557Z</time>
      </trkpt>
      <trkpt lat="47.546634" lon="7.952024">
        <ele>299.525416</ele>
        <time>2021-11-21T10:10:04.000Z</time>
      </trkpt>
      <trkpt lat="47.546421" lon="7.951793">
        <ele>299.565669</ele>
        <time>2021-11-21T10:10:08.411Z</time>
      </trkpt>
      <trkpt lat="47.546231" lon="7.951558">
        <ele>299.603412</ele>
        <time>2021-11-21T10:10:12.964Z</time>
      </trkpt>
      <trkpt lat="47.546212" lon="7.951535">
        <ele>299.607153</ele>
        <time>2021-11-21T10:10:13.210Z</time>
      </trkpt>
      <trkpt lat="47.546135" lon="7.951406">
        <ele>299.624878</ele>
        <time>2021-11-21T10:10:15.019Z</time>
      </trkpt>
      <trkpt lat="47.545886" lon="7.951110">
        <ele>299.673560</ele>
        <time>2021-11-21T10:10:19.839Z</time>
      </trkpt>
      <trkpt lat="47.545824" lon="7.951061">
        <ele>299.684276</ele>
        <time>2021-11-21T10:10:20.980Z</time>
      </trkpt>
      <trkpt lat="47.545759" lon="7.950982">
        <ele>299.697097</ele>
        <time>2021-11-21T10:10:22.386Z</time>
      </trkpt>
      <trkpt lat="47.545727" lon="7.950947">
        <ele>299.703162</ele>
        <time>2021-11-21T10:10:23.187Z</time>
      </trkpt>
      <trkpt lat="47.545625" lon="7.950829">
        <ele>299.722896</ele>
        <time>2021-11-21T10:10:24.742Z</time>
      </trkpt>
      <trkpt lat="47.545567" lon="7.950765">
        <ele>299.733925</ele>
        <time>2021-11-21T10:10:25.776Z</time>
      </trkpt>
      <trkpt lat="47.545494" lon="7.950684">
        <ele>299.747832</ele>
        <time>2021-11-21T10:10:27.143Z</time>
      </trkpt>
      <trkpt lat="47.545434" lon="7.950668">
        <ele>299.724770</ele>
        <time>2021-11-21T10:10:28.229Z</time>
      </trkpt>
      <trkpt lat="47.545166" lon="7.950366">
        <ele>299.565189</ele>
        <time>2021-11-21T10:10:32.569Z</time>
      </trkpt>
      <trkpt lat="47.544901" lon="7.950044">
        <ele>299.402757</ele>
        <time>2021-11-21T10:10:36.702Z</time>
      </trkpt>
      <trkpt lat="47.544521" lon="7.949558">
        <ele>299.164835</ele>
        <time>2021-11-21T10:10:42.892Z</time>
      </trkpt>
      <trkpt lat="47.544239" lon="7.949202">
        <ele>298.989244</ele>
        <time>2021-11-21T10:10:47.799Z</time>
      </trkpt>
      <trkpt lat="47.543864" lon="7.948694">
        <ele>299.373038</ele>
        <time>2021-11-21T10:10:55.763Z</time>
      </trkpt>
      <trkpt lat="47.543760" lon="7.948548">
        <ele>299.590938</ele>
        <time>2021-11-21T10:10:58.005Z</time>
      </trkpt>
      <trkpt lat="47.543579" lon="7.948287">
        <ele>299.975079</ele>
        <time>2021-11-21T10:11:03.723Z</time>
      </trkpt>
      <trkpt lat="47.543532" lon="7.948214">
        <ele>300.078642</ele>
        <time>2021-11-21T10:11:04.849Z</time>
      </trkpt>
      <trkpt lat="47.543435" lon="7.948000">
        <ele>300.343266</ele>
        <time>2021-11-21T10:11:07.911Z</time>
      </trkpt>
      <trkpt lat="47.543407" lon="7.947938">
        <ele>300.419846</ele>
        <time>2021-11-21T10:11:09.768Z</time>
      </trkpt>
      <trkpt lat="47.543280" lon="7.947656">
        <ele>300.767862</ele>
        <time>2021-11-21T10:11:14.255Z</time>
      </trkpt>
      <trkpt lat="47.543142" lon="7.947250">
        <ele>301.234519</ele>
        <time>2021-11-21T10:11:21.719Z</time>
      </trkpt>
      <trkpt lat="47.543086" lon="7.947052">
        <ele>301.454906</ele>
        <time>2021-11-21T10:11:25.148Z</time>
      </trkpt>
      <trkpt lat="47.543056" lon="7.946935">
        <ele>301.583392</ele>
        <time>2021-11-21T10:11:27.990Z</time>
      </trkpt>
      <trkpt lat="47.543045" lon="7.946881">
        <ele>301.647262</ele>
        <time>2021-11-21T10:11:29.146Z</time>
      </trkpt>
      <trkpt lat="47.542982" lon="7.946547">
        <ele>302.237186</ele>
        <time>2021-11-21T10:11:34.546Z</time>
      </trkpt>
      <trkpt lat="47.542974" lon="7.946495">
        <ele>302.327911</ele>
        <time>2021-11-21T10:11:36.187Z</time>
      </trkpt>
      <trkpt lat="47.542960" lon="7.946400">
        <ele>302.493320</ele>
        <time>2021-11-21T10:11:38.253Z</time>
      </trkpt>
      <trkpt lat="47.542916" lon="7.945730">
        <ele>303.638426</ele>
        <time>2021-11-21T10:11:50.918Z</time>
      </trkpt>
      <trkpt lat="47.542913" lon="7.945267">
        <ele>304.426064</ele>
        <time>2021-11-21T10:11:59.413Z</time>
      </trkpt>
      <trkpt lat="47.543007" lon="7.943867">
        <ele>306.240254</ele>
        <time>2021-11-21T10:12:20.580Z</time>
      </trkpt>
      <trkpt lat="47.543161" lon="7.942213">
        <ele>306.567788</ele>
        <time>2021-11-21T10:12:38.986Z</time>
      </trkpt>
      <trkpt lat="47.543435" lon="7.940670">
        <ele>305.714828</ele>
        <time>2021-11-21T10:12:51.935Z</time>
      </trkpt>
      <trkpt lat="47.543826" lon="7.939433">
        <ele>304.366671</ele>
        <time>2021-11-21T10:13:02.336Z</time>
      </trkpt>
      <trkpt lat="47.544472" lon="7.937932">
        <ele>302.274265</ele>
        <time>2021-11-21T10:13:15.660Z</time>
      </trkpt>
      <trkpt lat="47.544705" lon="7.937395">
        <ele>301.498234</ele>
        <time>2021-11-21T10:13:20.499Z</time>
      </trkpt>
      <trkpt lat="47.544903" lon="7.936917">
        <ele>300.816902</ele>
        <time>2021-11-21T10:13:24.760Z</time>
      </trkpt>
      <trkpt lat="47.545074" lon="7.936484">
        <ele>300.347883</ele>
        <time>2021-11-21T10:13:28.591Z</time>
      </trkpt>
      <trkpt lat="47.545457" lon="7.935110">
        <ele>298.958073</ele>
        <time>2021-11-21T10:13:39.959Z</time>
      </trkpt>
      <trkpt lat="47.545674" lon="7.933625">
        <ele>298.583625</ele>
        <time>2021-11-21T10:13:53.039Z</time>
      </trkpt>
      <trkpt lat="47.545702" lon="7.933290">
        <ele>298.686158</ele>
        <time>2021-11-21T10:13:56.619Z</time>
      </trkpt>
      <trkpt lat="47.545724" lon="7.932758">
        <ele>298.848056</ele>
        <time>2021-11-21T10:14:03.071Z</time>
      </trkpt>
      <trkpt lat="47.545721" lon="7.931992">
        <ele>299.080732</ele>
        <time>2021-11-21T10:14:13.062Z</time>
      </trkpt>
      <trkpt lat="47.545696" lon="7.931497">
        <ele>299.541011</ele>
        <time>2021-11-21T10:14:20.262Z</time>
      </trkpt>
      <trkpt lat="47.545661" lon="7.930955">
        <ele>300.245105</ele>
        <time>2021-11-21T10:14:28.954Z</time>
      </trkpt>
      <trkpt lat="47.545636" lon="7.930623">
        <ele>300.677099</ele>
        <time>2021-11-21T10:14:34.870Z</time>
      </trkpt>
      <trkpt lat="47.545625" lon="7.930473">
        <ele>300.872215</ele>
        <time>2021-11-21T10:14:37.337Z</time>
      </trkpt>
      <trkpt lat="47.545563" lon="7.929641">
        <ele>301.954664</ele>
        <time>2021-11-21T10:14:51.378Z</time>
      </trkpt>
      <trkpt lat="47.545475" lon="7.928419">
        <ele>302.109483</ele>
        <time>2021-11-21T10:15:07.655Z</time>
      </trkpt>
      <trkpt lat="47.545421" lon="7.927686">
        <ele>301.640610</ele>
        <time>2021-11-21T10:15:13.689Z</time>
      </trkpt>
      <trkpt lat="47.545406" lon="7.927306">
        <ele>301.398559</ele>
        <time>2021-11-21T10:15:16.588Z</time>
      </trkpt>
      <trkpt lat="47.545407" lon="7.927001">
        <ele>301.204611</ele>
        <time>2021-11-21T10:15:18.874Z</time>
      </trkpt>
      <trkpt lat="47.545409" lon="7.926773">
        <ele>301.059616</ele>
        <time>2021-11-21T10:15:20.503Z</time>
      </trkpt>
      <trkpt lat="47.545417" lon="7.925848">
        <ele>299.233050</ele>
        <time>2021-11-21T10:15:26.838Z</time>
      </trkpt>
      <trkpt lat="47.545446" lon="7.925350">
        <ele>297.970260</ele>
        <time>2021-11-21T10:15:30.130Z</time>
      </trkpt>
      <trkpt lat="47.545466" lon="7.924880">
        <ele>296.780524</ele>
        <time>2021-11-21T10:15:33.184Z</time>
      </trkpt>
      <trkpt lat="47.545481" lon="7.924396">
        <ele>295.556489</ele>
        <time>2021-11-21T10:15:36.267Z</time>
      </trkpt>
      <trkpt lat="47.545521" lon="7.923709">
        <ele>293.968520</ele>
        <time>2021-11-21T10:15:40.792Z</time>
      </trkpt>
      <trkpt lat="47.545536" lon="7.923407">
        <ele>293.548461</ele>
        <time>2021-11-21T10:15:43.182Z</time>
      </trkpt>
      <trkpt lat="47.545553" lon="7.923142">
        <ele>293.179204</ele>
        <time>2021-11-21T10:15:44.903Z</time>
      </trkpt>
      <trkpt lat="47.545587" lon="7.922895">
        <ele>292.829520</ele>
        <time>2021-11-21T10:15:47.304Z</time>
      </trkpt>
      <trkpt lat="47.545641" lon="7.922610">
        <ele>292.418896</ele>
        <time>2021-11-21T10:15:49.303Z</time>
      </trkpt>
      <trkpt lat="47.545690" lon="7.922369">
        <ele>292.069752</ele>
        <time>2021-11-21T10:15:51.994Z</time>
      </trkpt>
      <trkpt lat="47.545699" lon="7.922325">
        <ele>292.005976</ele>
        <time>2021-11-21T10:15:52.255Z</time>
      </trkpt>
      <trkpt lat="47.545714" lon="7.922249">
        <ele>291.896136</ele>
        <time>2021-11-21T10:15:52.845Z</time>
      </trkpt>
      <trkpt lat="47.545778" lon="7.921947">
        <ele>291.457050</ele>
        <time>2021-11-21T10:15:56.001Z</time>
      </trkpt>
      <trkpt lat="47.545810" lon="7.921755">
        <ele>291.182716</ele>
        <time>2021-11-21T10:15:57.358Z</time>
      </trkpt>
      <trkpt lat="47.545881" lon="7.921096">
        <ele>290.414938</ele>
        <time>2021-11-21T10:16:02.707Z</time>
      </trkpt>
      <trkpt lat="47.545913" lon="7.920765">
        <ele>290.312308</ele>
        <time>2021-11-21T10:16:05.574Z</time>
      </trkpt>
      <trkpt lat="47.545973" lon="7.920313">
        <ele>290.170920</ele>
        <time>2021-11-21T10:16:10.721Z</time>
      </trkpt>
      <trkpt lat="47.546128" lon="7.919617">
        <ele>289.945973</ele>
        <time>2021-11-21T10:16:17.184Z</time>
      </trkpt>
      <trkpt lat="47.546262" lon="7.919081">
        <ele>289.770540</ele>
        <time>2021-11-21T10:16:23.183Z</time>
      </trkpt>
      <trkpt lat="47.546821" lon="7.916867">
        <ele>288.965328</ele>
        <time>2021-11-21T10:16:43.936Z</time>
      </trkpt>
      <trkpt lat="47.547032" lon="7.916218">
        <ele>288.714900</ele>
        <time>2021-11-21T10:16:50.426Z</time>
      </trkpt>
      <trkpt lat="47.547091" lon="7.916039">
        <ele>288.714311</ele>
        <time>2021-11-21T10:16:52.244Z</time>
      </trkpt>
      <trkpt lat="47.547113" lon="7.915971">
        <ele>288.714088</ele>
        <time>2021-11-21T10:16:52.843Z</time>
      </trkpt>
      <trkpt lat="47.547423" lon="7.915080">
        <ele>288.711123</ele>
        <time>2021-11-21T10:17:02.487Z</time>
      </trkpt>
      <trkpt lat="47.547994" lon="7.913433">
        <ele>288.989634</ele>
        <time>2021-11-21T10:17:22.206Z</time>
      </trkpt>
      <trkpt lat="47.548027" lon="7.913334">
        <ele>289.056832</ele>
        <time>2021-11-21T10:17:23.565Z</time>
      </trkpt>
      <trkpt lat="47.548412" lon="7.912168">
        <ele>289.846813</ele>
        <time>2021-11-21T10:17:39.968Z</time>
      </trkpt>
      <trkpt lat="47.549012" lon="7.910340">
        <ele>291.298710</ele>
        <time>2021-11-21T10:18:06.908Z</time>
      </trkpt>
      <trkpt lat="47.549102" lon="7.910058">
        <ele>291.542560</ele>
        <time>2021-11-21T10:18:11.037Z</time>
      </trkpt>
      <trkpt lat="47.549195" lon="7.909756">
        <ele>291.802054</ele>
        <time>2021-11-21T10:18:15.248Z</time>
      </trkpt>
      <trkpt lat="47.549260" lon="7.909541">
        <ele>291.986216</ele>
        <time>2021-11-21T10:18:18.304Z</time>
      </trkpt>
      <trkpt lat="47.549317" lon="7.909350">
        <ele>292.149470</ele>
        <time>2021-11-21T10:18:20.863Z</time>
      </trkpt>
      <trkpt lat="47.549520" lon="7.908678">
        <ele>292.900924</ele>
        <time>2021-11-21T10:18:30.227Z</time>
      </trkpt>
      <trkpt lat="47.549539" lon="7.908625">
        <ele>292.974201</ele>
        <time>2021-11-21T10:18:30.956Z</time>
      </trkpt>
      <trkpt lat="47.550307" lon="7.906166">
        <ele>296.834330</ele>
        <time>2021-11-21T10:19:12.285Z</time>
      </trkpt>
      <trkpt lat="47.550497" lon="7.905558">
        <ele>298.384295</ele>
        <time>2021-11-21T10:19:25.620Z</time>
      </trkpt>
      <trkpt lat="47.550283" lon="7.905413">
        <ele>299.190840</ele>
        <time>2021-11-21T10:19:33.818Z</time>
      </trkpt>
      <trkpt lat="47.550067" lon="7.905245">
        <ele>300.026990</ele>
        <time>2021-11-21T10:19:42.611Z</time>
      </trkpt>
      <trkpt lat="47.549867" lon="7.905155">
        <ele>300.743409</ele>
        <time>2021-11-21T10:19:50.334Z</time>
      </trkpt>
      <trkpt lat="47.549868" lon="7.905010">
        <ele>301.078867</ele>
        <time>2021-11-21T10:19:53.793Z</time>
      </trkpt>
      <trkpt lat="47.550025" lon="7.904774">
        <ele>301.847083</ele>
        <time>2021-11-21T10:20:02.047Z</time>
      </trkpt>
      <trkpt lat="47.550302" lon="7.904164">
        <ele>303.736878</ele>
        <time>2021-11-21T10:20:20.603Z</time>
      </trkpt>
      <trkpt lat="47.550498" lon="7.903445">
        <ele>305.730049</ele>
        <time>2021-11-21T10:20:40.175Z</time>
      </trkpt>
      <trkpt lat="47.550688" lon="7.902451">
        <ele>308.385513</ele>
        <time>2021-11-21T10:21:02.724Z</time>
      </trkpt>
      <trkpt lat="47.550757" lon="7.901591">
        <ele>310.743637</ele>
        <time>2021-11-21T10:21:22.520Z</time>
      </trkpt>
      <trkpt lat="47.550769" lon="7.901362">
        <ele>311.374391</ele>
        <time>2021-11-21T10:21:28.428Z</time>
      </trkpt>
      <trkpt lat="47.550801" lon="7.900244">
        <ele>314.447312</ele>
        <time>2021-11-21T10:21:52.825Z</time>
      </trkpt>
      <trkpt lat="47.550819" lon="7.898109">
        <ele>319.795100</ele>
        <time>2021-11-21T10:22:39.865Z</time>
      </trkpt>
      <trkpt lat="47.550648" lon="7.896481">
        <ele>322.944904</ele>
        <time>2021-11-21T10:23:07.520Z</time>
      </trkpt>
      <trkpt lat="47.550639" lon="7.896345">
        <ele>323.069259</ele>
        <time>2021-11-21T10:23:09.896Z</time>
      </trkpt>
      <trkpt lat="47.550660" lon="7.896255">
        <ele>323.155916</ele>
        <time>2021-11-21T10:23:10.696Z</time>
      </trkpt>
      <trkpt lat="47.550838" lon="7.895509">
        <ele>323.875955</ele>
        <time>2021-11-21T10:23:20.864Z</time>
      </trkpt>
      <trkpt lat="47.550878" lon="7.895158">
        <ele>324.199888</ele>
        <time>2021-11-21T10:23:24.927Z</time>
      </trkpt>
      <trkpt lat="47.550908" lon="7.894308">
        <ele>325.086364</ele>
        <time>2021-11-21T10:23:35.399Z</time>
      </trkpt>
      <trkpt lat="47.550892" lon="7.893176">
        <ele>327.188147</ele>
        <time>2021-11-21T10:23:50.116Z</time>
      </trkpt>
      <trkpt lat="47.550904" lon="7.891725">
        <ele>329.960739</ele>
        <time>2021-11-21T10:24:19.878Z</time>
      </trkpt>
      <trkpt lat="47.550915" lon="7.890600">
        <ele>334.467715</ele>
        <time>2021-11-21T10:24:48.718Z</time>
      </trkpt>
      <trkpt lat="47.550833" lon="7.889069">
        <ele>340.621282</ele>
        <time>2021-11-21T10:25:31.352Z</time>
      </trkpt>
      <trkpt lat="47.550831" lon="7.888611">
        <ele>342.476028</ele>
        <time>2021-11-21T10:25:43.922Z</time>
      </trkpt>
      <trkpt lat="47.550789" lon="7.887816">
        <ele>345.705293</ele>
        <time>2021-11-21T10:26:04.534Z</time>
      </trkpt>
      <trkpt lat="47.550758" lon="7.887295">
        <ele>347.823309</ele>
        <time>2021-11-21T10:26:18.356Z</time>
      </trkpt>
      <trkpt lat="47.550677" lon="7.886476">
        <ele>351.175340</ele>
        <time>2021-11-21T10:26:39.844Z</time>
      </trkpt>
      <trkpt lat="47.550548" lon="7.885799">
        <ele>353.520283</ele>
        <time>2021-11-21T10:26:57.047Z</time>
      </trkpt>
      <trkpt lat="47.550391" lon="7.885109">
        <ele>355.927554</ele>
        <time>2021-11-21T10:27:14.685Z</time>
      </trkpt>
      <trkpt lat="47.550332" lon="7.884727">
        <ele>357.223088</ele>
        <time>2021-11-21T10:27:23.375Z</time>
      </trkpt>
      <trkpt lat="47.550234" lon="7.883221">
        <ele>361.650264</ele>
        <time>2021-11-21T10:27:56.217Z</time>
      </trkpt>
      <trkpt lat="47.549927" lon="7.881490">
        <ele>365.973929</ele>
        <time>2021-11-21T10:28:28.759Z</time>
      </trkpt>
      <trkpt lat="47.549828" lon="7.881145">
        <ele>366.939964</ele>
        <time>2021-11-21T10:28:37.010Z</time>
      </trkpt>
      <trkpt lat="47.549726" lon="7.880786">
        <ele>368.042735</ele>
        <time>2021-11-21T10:28:44.654Z</time>
      </trkpt>
      <trkpt lat="47.549726" lon="7.880786">
        <ele>368.042735</ele>
        <time>2021-11-21T10:28:44.714Z</time>
      </trkpt>
      <trkpt lat="47.549327" lon="7.879547">
        <ele>371.929380</ele>
        <time>2021-11-21T10:29:14.331Z</time>
      </trkpt>
      <trkpt lat="47.549318" lon="7.879398">
        <ele>372.352913</ele>
        <time>2021-11-21T10:29:17.467Z</time>
      </trkpt>
      <trkpt lat="47.549140" lon="7.879391">
        <ele>373.099821</ele>
        <time>2021-11-21T10:29:24.456Z</time>
      </trkpt>
      <trkpt lat="47.548718" lon="7.879258">
        <ele>374.572128</ele>
        <time>2021-11-21T10:29:38.060Z</time>
      </trkpt>
      <trkpt lat="47.548422" lon="7.878959">
        <ele>375.468730</ele>
        <time>2021-11-21T10:29:48.519Z</time>
      </trkpt>
      <trkpt lat="47.548234" lon="7.878638">
        <ele>376.186653</ele>
        <time>2021-11-21T10:29:56.874Z</time>
      </trkpt>
      <trkpt lat="47.547992" lon="7.877974">
        <ele>377.461389</ele>
        <time>2021-11-21T10:30:09.950Z</time>
      </trkpt>
      <trkpt lat="47.547574" lon="7.876801">
        <ele>377.581423</ele>
        <time>2021-11-21T10:30:23.713Z</time>
      </trkpt>
      <trkpt lat="47.547126" lon="7.875801">
        <ele>375.795896</ele>
        <time>2021-11-21T10:30:32.496Z</time>
      </trkpt>
      <trkpt lat="47.546309" lon="7.874154">
        <ele>369.751772</ele>
        <time>2021-11-21T10:30:45.685Z</time>
      </trkpt>
      <trkpt lat="47.546135" lon="7.873859">
        <ele>368.225351</ele>
        <time>2021-11-21T10:30:48.067Z</time>
      </trkpt>
      <trkpt lat="47.546077" lon="7.873763">
        <ele>367.723354</ele>
        <time>2021-11-21T10:30:48.879Z</time>
      </trkpt>
      <trkpt lat="47.545934" lon="7.873549">
        <ele>366.550061</ele>
        <time>2021-11-21T10:30:50.683Z</time>
      </trkpt>
      <trkpt lat="47.545827" lon="7.873408">
        <ele>365.723436</ele>
        <time>2021-11-21T10:30:51.996Z</time>
      </trkpt>
      <trkpt lat="47.545746" lon="7.873302">
        <ele>365.099581</ele>
        <time>2021-11-21T10:30:52.971Z</time>
      </trkpt>
      <trkpt lat="47.545515" lon="7.873015">
        <ele>363.199100</ele>
        <time>2021-11-21T10:30:55.670Z</time>
      </trkpt>
      <trkpt lat="47.545478" lon="7.872968">
        <ele>362.865857</ele>
        <time>2021-11-21T10:30:56.112Z</time>
      </trkpt>
      <trkpt lat="47.545375" lon="7.872836">
        <ele>361.934680</ele>
        <time>2021-11-21T10:30:57.305Z</time>
      </trkpt>
      <trkpt lat="47.545131" lon="7.872664">
        <ele>360.087148</ele>
        <time>2021-11-21T10:30:59.764Z</time>
      </trkpt>
      <trkpt lat="47.544883" lon="7.872555">
        <ele>358.318448</ele>
        <time>2021-11-21T10:31:02.087Z</time>
      </trkpt>
      <trkpt lat="47.544390" lon="7.872423">
        <ele>354.893050</ele>
        <time>2021-11-21T10:31:06.549Z</time>
      </trkpt>
      <trkpt lat="47.543332" lon="7.872237">
        <ele>351.929939</ele>
        <time>2021-11-21T10:31:16.311Z</time>
      </trkpt>
      <trkpt lat="47.543251" lon="7.872152">
        <ele>351.929939</ele>
        <time>2021-11-21T10:31:17.260Z</time>
      </trkpt>
      <trkpt lat="47.543233" lon="7.872082">
        <ele>351.929939</ele>
        <time>2021-11-21T10:31:17.681Z</time>
      </trkpt>
      <trkpt lat="47.543013" lon="7.872182">
        <ele>351.929939</ele>
        <time>2021-11-21T10:31:19.916Z</time>
      </trkpt>
      <trkpt lat="47.542919" lon="7.872226">
        <ele>351.929939</ele>
        <time>2021-11-21T10:31:20.850Z</time>
      </trkpt>
      <trkpt lat="47.542814" lon="7.872280">
        <ele>351.929939</ele>
        <time>2021-11-21T10:31:21.901Z</time>
      </trkpt>
      <trkpt lat="47.542714" lon="7.872334">
        <ele>351.929939</ele>
        <time>2021-11-21T10:31:22.967Z</time>
      </trkpt>
      <trkpt lat="47.542537" lon="7.872430">
        <ele>351.929939</ele>
        <time>2021-11-21T10:31:24.709Z</time>
      </trkpt>
      <trkpt lat="47.542436" lon="7.872494">
        <ele>351.929939</ele>
        <time>2021-11-21T10:31:25.987Z</time>
      </trkpt>
      <trkpt lat="47.542394" lon="7.872341">
        <ele>351.929939</ele>
        <time>2021-11-21T10:31:27.066Z</time>
      </trkpt>
      <trkpt lat="47.542218" lon="7.871866">
        <ele>351.929939</ele>
        <time>2021-11-21T10:31:30.725Z</time>
      </trkpt>
      <trkpt lat="47.542091" lon="7.871721">
        <ele>351.929939</ele>
        <time>2021-11-21T10:31:32.251Z</time>
      </trkpt>
      <trkpt lat="47.542067" lon="7.871664">
        <ele>351.929939</ele>
        <time>2021-11-21T10:31:32.925Z</time>
      </trkpt>
      <trkpt lat="47.542039" lon="7.871556">
        <ele>351.929939</ele>
        <time>2021-11-21T10:31:33.782Z</time>
      </trkpt>
      <trkpt lat="47.542039" lon="7.871556">
        <ele>351.929939</ele>
        <time>2021-11-21T10:31:33.783Z</time>
      </trkpt>
    </trkseg>
  </trk>
</gpx>